<?xml version="1.0" encoding="UTF-8" standalone="no" ?>
<gpx xmlns="http://www.topografix.com/GPX/1/1" xmlns:xsi="http://www.w3.org/2001/XMLSchema-instance" xsi:schemaLocation="http://www.topografix.com/GPX/1/1 http://www.topografix.com/GPX/1/1/gpx.xsd" version="1.1" creator="VisuGPX - https://www.visugpx.com">
  <metadata>
    <name>Tournefeuille Gravel bike</name>
  </metadata>
  <trk>
    <name><![CDATA[Tournefeuille Gravel bike_1]]></name>
    <trkseg>
      <trkpt lat="43.58715" lon="1.32263">
        <ele>184.8</ele>
        <time>2022-09-27T04:54:39Z</time>
      </trkpt>
      <trkpt lat="43.58722" lon="1.32257">
        <ele>186</ele>
        <time>2022-09-27T04:54:42Z</time>
      </trkpt>
      <trkpt lat="43.58724" lon="1.32255">
        <ele>186.2</ele>
        <time>2022-09-27T04:54:43Z</time>
      </trkpt>
      <trkpt lat="43.58732" lon="1.32247">
        <ele>186.6</ele>
        <time>2022-09-27T04:54:46Z</time>
      </trkpt>
      <trkpt lat="43.58743" lon="1.32238">
        <ele>187.2</ele>
        <time>2022-09-27T04:54:49Z</time>
      </trkpt>
      <trkpt lat="43.58748" lon="1.32235">
        <ele>186.8</ele>
        <time>2022-09-27T04:54:50Z</time>
      </trkpt>
      <trkpt lat="43.58765" lon="1.32213">
        <ele>187.2</ele>
        <time>2022-09-27T04:54:55Z</time>
      </trkpt>
      <trkpt lat="43.58775" lon="1.32202">
        <ele>187.8</ele>
        <time>2022-09-27T04:54:58Z</time>
      </trkpt>
      <trkpt lat="43.58786" lon="1.3219">
        <ele>188.4</ele>
        <time>2022-09-27T04:55:01Z</time>
      </trkpt>
      <trkpt lat="43.58789" lon="1.32186">
        <ele>188.4</ele>
        <time>2022-09-27T04:55:02Z</time>
      </trkpt>
      <trkpt lat="43.58805" lon="1.32166">
        <ele>188.8</ele>
        <time>2022-09-27T04:55:08Z</time>
      </trkpt>
      <trkpt lat="43.58808" lon="1.32155">
        <ele>189.2</ele>
        <time>2022-09-27T04:55:12Z</time>
      </trkpt>
      <trkpt lat="43.58811" lon="1.32141">
        <ele>189.2</ele>
        <time>2022-09-27T04:55:15Z</time>
      </trkpt>
      <trkpt lat="43.58815" lon="1.32131">
        <ele>189.4</ele>
        <time>2022-09-27T04:55:17Z</time>
      </trkpt>
      <trkpt lat="43.58821" lon="1.32124">
        <ele>189.4</ele>
        <time>2022-09-27T04:55:19Z</time>
      </trkpt>
      <trkpt lat="43.58833" lon="1.32112">
        <ele>189.4</ele>
        <time>2022-09-27T04:55:22Z</time>
      </trkpt>
      <trkpt lat="43.58871" lon="1.32071">
        <ele>189.6</ele>
        <time>2022-09-27T04:55:32Z</time>
      </trkpt>
      <trkpt lat="43.58888" lon="1.32055">
        <ele>189.8</ele>
        <time>2022-09-27T04:55:36Z</time>
      </trkpt>
      <trkpt lat="43.58892" lon="1.32051">
        <ele>189.8</ele>
        <time>2022-09-27T04:55:37Z</time>
      </trkpt>
      <trkpt lat="43.589" lon="1.32043">
        <ele>189.8</ele>
        <time>2022-09-27T04:55:39Z</time>
      </trkpt>
      <trkpt lat="43.58927" lon="1.32016">
        <ele>189.8</ele>
        <time>2022-09-27T04:55:46Z</time>
      </trkpt>
      <trkpt lat="43.58931" lon="1.32015">
        <ele>189.8</ele>
        <time>2022-09-27T04:55:47Z</time>
      </trkpt>
      <trkpt lat="43.58946" lon="1.3201">
        <ele>189.8</ele>
        <time>2022-09-27T04:55:51Z</time>
      </trkpt>
      <trkpt lat="43.58969" lon="1.31999">
        <ele>189.8</ele>
        <time>2022-09-27T04:55:56Z</time>
      </trkpt>
      <trkpt lat="43.58974" lon="1.31996">
        <ele>189.8</ele>
        <time>2022-09-27T04:55:57Z</time>
      </trkpt>
      <trkpt lat="43.59001" lon="1.31969">
        <ele>189.8</ele>
        <time>2022-09-27T04:56:03Z</time>
      </trkpt>
      <trkpt lat="43.59009" lon="1.3196">
        <ele>189.8</ele>
        <time>2022-09-27T04:56:05Z</time>
      </trkpt>
      <trkpt lat="43.59027" lon="1.31938">
        <ele>189.8</ele>
        <time>2022-09-27T04:56:09Z</time>
      </trkpt>
      <trkpt lat="43.5903" lon="1.31932">
        <ele>189.8</ele>
        <time>2022-09-27T04:56:10Z</time>
      </trkpt>
      <trkpt lat="43.5904" lon="1.31914">
        <ele>189.8</ele>
        <time>2022-09-27T04:56:13Z</time>
      </trkpt>
      <trkpt lat="43.59049" lon="1.31905">
        <ele>189.8</ele>
        <time>2022-09-27T04:56:15Z</time>
      </trkpt>
      <trkpt lat="43.59059" lon="1.31898">
        <ele>190</ele>
        <time>2022-09-27T04:56:17Z</time>
      </trkpt>
      <trkpt lat="43.59067" lon="1.31888">
        <ele>190</ele>
        <time>2022-09-27T04:56:19Z</time>
      </trkpt>
      <trkpt lat="43.59079" lon="1.31871">
        <ele>190</ele>
        <time>2022-09-27T04:56:22Z</time>
      </trkpt>
      <trkpt lat="43.59093" lon="1.31856">
        <ele>190</ele>
        <time>2022-09-27T04:56:25Z</time>
      </trkpt>
      <trkpt lat="43.59141" lon="1.3181">
        <ele>190</ele>
        <time>2022-09-27T04:56:35Z</time>
      </trkpt>
      <trkpt lat="43.59148" lon="1.31806">
        <ele>189.8</ele>
        <time>2022-09-27T04:56:38Z</time>
      </trkpt>
      <trkpt lat="43.59162" lon="1.31798">
        <ele>189.4</ele>
        <time>2022-09-27T04:56:43Z</time>
      </trkpt>
      <trkpt lat="43.59185" lon="1.31786">
        <ele>189.2</ele>
        <time>2022-09-27T04:56:48Z</time>
      </trkpt>
      <trkpt lat="43.59212" lon="1.31775">
        <ele>189</ele>
        <time>2022-09-27T04:56:54Z</time>
      </trkpt>
      <trkpt lat="43.59235" lon="1.31767">
        <ele>188.8</ele>
        <time>2022-09-27T04:57:01Z</time>
      </trkpt>
      <trkpt lat="43.59249" lon="1.31772">
        <ele>188.8</ele>
        <time>2022-09-27T04:57:05Z</time>
      </trkpt>
      <trkpt lat="43.59253" lon="1.31774">
        <ele>188.8</ele>
        <time>2022-09-27T04:57:06Z</time>
      </trkpt>
      <trkpt lat="43.59263" lon="1.31777">
        <ele>188.8</ele>
        <time>2022-09-27T04:57:08Z</time>
      </trkpt>
      <trkpt lat="43.59276" lon="1.31779">
        <ele>188.6</ele>
        <time>2022-09-27T04:57:11Z</time>
      </trkpt>
      <trkpt lat="43.5928" lon="1.31781">
        <ele>188.6</ele>
        <time>2022-09-27T04:57:12Z</time>
      </trkpt>
      <trkpt lat="43.59297" lon="1.31793">
        <ele>188.4</ele>
        <time>2022-09-27T04:57:16Z</time>
      </trkpt>
      <trkpt lat="43.59302" lon="1.31795">
        <ele>188.4</ele>
        <time>2022-09-27T04:57:17Z</time>
      </trkpt>
      <trkpt lat="43.59307" lon="1.31796">
        <ele>188.4</ele>
        <time>2022-09-27T04:57:18Z</time>
      </trkpt>
      <trkpt lat="43.59318" lon="1.31796">
        <ele>188.4</ele>
        <time>2022-09-27T04:57:20Z</time>
      </trkpt>
      <trkpt lat="43.59326" lon="1.31794">
        <ele>188.4</ele>
        <time>2022-09-27T04:57:22Z</time>
      </trkpt>
      <trkpt lat="43.59336" lon="1.31784">
        <ele>188.4</ele>
        <time>2022-09-27T04:57:26Z</time>
      </trkpt>
      <trkpt lat="43.5935" lon="1.31773">
        <ele>188.4</ele>
        <time>2022-09-27T04:57:30Z</time>
      </trkpt>
      <trkpt lat="43.59362" lon="1.31764">
        <ele>188.4</ele>
        <time>2022-09-27T04:57:33Z</time>
      </trkpt>
      <trkpt lat="43.59371" lon="1.31757">
        <ele>188.4</ele>
        <time>2022-09-27T04:57:35Z</time>
      </trkpt>
      <trkpt lat="43.59384" lon="1.31747">
        <ele>188.4</ele>
        <time>2022-09-27T04:57:38Z</time>
      </trkpt>
      <trkpt lat="43.59394" lon="1.31744">
        <ele>188.4</ele>
        <time>2022-09-27T04:57:40Z</time>
      </trkpt>
      <trkpt lat="43.59399" lon="1.31742">
        <ele>188.4</ele>
        <time>2022-09-27T04:57:41Z</time>
      </trkpt>
      <trkpt lat="43.59411" lon="1.31742">
        <ele>188.4</ele>
        <time>2022-09-27T04:57:43Z</time>
      </trkpt>
      <trkpt lat="43.59416" lon="1.3174">
        <ele>188.4</ele>
        <time>2022-09-27T04:57:44Z</time>
      </trkpt>
      <trkpt lat="43.59425" lon="1.31736">
        <ele>188.6</ele>
        <time>2022-09-27T04:57:46Z</time>
      </trkpt>
      <trkpt lat="43.5944" lon="1.31737">
        <ele>188.6</ele>
        <time>2022-09-27T04:57:49Z</time>
      </trkpt>
      <trkpt lat="43.5947" lon="1.3174">
        <ele>188.4</ele>
        <time>2022-09-27T04:57:55Z</time>
      </trkpt>
      <trkpt lat="43.59479" lon="1.3174">
        <ele>188.4</ele>
        <time>2022-09-27T04:57:57Z</time>
      </trkpt>
      <trkpt lat="43.59486" lon="1.31742">
        <ele>188.4</ele>
        <time>2022-09-27T04:57:59Z</time>
      </trkpt>
      <trkpt lat="43.59488" lon="1.31746">
        <ele>188.4</ele>
        <time>2022-09-27T04:58:00Z</time>
      </trkpt>
      <trkpt lat="43.59489" lon="1.3175">
        <ele>188.4</ele>
        <time>2022-09-27T04:58:01Z</time>
      </trkpt>
      <trkpt lat="43.59489" lon="1.31768">
        <ele>188.4</ele>
        <time>2022-09-27T04:58:04Z</time>
      </trkpt>
      <trkpt lat="43.59488" lon="1.31833">
        <ele>188</ele>
        <time>2022-09-27T04:58:14Z</time>
      </trkpt>
      <trkpt lat="43.59488" lon="1.3184">
        <ele>188</ele>
        <time>2022-09-27T04:58:15Z</time>
      </trkpt>
      <trkpt lat="43.59487" lon="1.3189">
        <ele>187.8</ele>
        <time>2022-09-27T04:58:22Z</time>
      </trkpt>
      <trkpt lat="43.59488" lon="1.31897">
        <ele>187.8</ele>
        <time>2022-09-27T04:58:23Z</time>
      </trkpt>
      <trkpt lat="43.59498" lon="1.31928">
        <ele>187.6</ele>
        <time>2022-09-27T04:58:28Z</time>
      </trkpt>
      <trkpt lat="43.595" lon="1.31934">
        <ele>187.6</ele>
        <time>2022-09-27T04:58:29Z</time>
      </trkpt>
      <trkpt lat="43.59515" lon="1.31963">
        <ele>187.4</ele>
        <time>2022-09-27T04:58:34Z</time>
      </trkpt>
      <trkpt lat="43.59521" lon="1.31974">
        <ele>187.4</ele>
        <time>2022-09-27T04:58:36Z</time>
      </trkpt>
      <trkpt lat="43.59544" lon="1.31991">
        <ele>187.2</ele>
        <time>2022-09-27T04:58:41Z</time>
      </trkpt>
      <trkpt lat="43.59557" lon="1.31998">
        <ele>187</ele>
        <time>2022-09-27T04:58:44Z</time>
      </trkpt>
      <trkpt lat="43.59567" lon="1.31997">
        <ele>187</ele>
        <time>2022-09-27T04:58:46Z</time>
      </trkpt>
      <trkpt lat="43.59571" lon="1.31997">
        <ele>187</ele>
        <time>2022-09-27T04:58:47Z</time>
      </trkpt>
      <trkpt lat="43.5958" lon="1.32">
        <ele>187</ele>
        <time>2022-09-27T04:58:49Z</time>
      </trkpt>
      <trkpt lat="43.59583" lon="1.32005">
        <ele>187</ele>
        <time>2022-09-27T04:58:50Z</time>
      </trkpt>
      <trkpt lat="43.59586" lon="1.3201">
        <ele>186.8</ele>
        <time>2022-09-27T04:58:51Z</time>
      </trkpt>
      <trkpt lat="43.59591" lon="1.32022">
        <ele>186.6</ele>
        <time>2022-09-27T04:58:53Z</time>
      </trkpt>
      <trkpt lat="43.59594" lon="1.32027">
        <ele>186.6</ele>
        <time>2022-09-27T04:58:54Z</time>
      </trkpt>
      <trkpt lat="43.59598" lon="1.32031">
        <ele>186.6</ele>
        <time>2022-09-27T04:58:55Z</time>
      </trkpt>
      <trkpt lat="43.59613" lon="1.32041">
        <ele>186.6</ele>
        <time>2022-09-27T04:58:58Z</time>
      </trkpt>
      <trkpt lat="43.59642" lon="1.32064">
        <ele>186.8</ele>
        <time>2022-09-27T04:59:04Z</time>
      </trkpt>
      <trkpt lat="43.59647" lon="1.32068">
        <ele>186.8</ele>
        <time>2022-09-27T04:59:05Z</time>
      </trkpt>
      <trkpt lat="43.59694" lon="1.32101">
        <ele>186.8</ele>
        <time>2022-09-27T04:59:14Z</time>
      </trkpt>
      <trkpt lat="43.59732" lon="1.32131">
        <ele>186.8</ele>
        <time>2022-09-27T04:59:21Z</time>
      </trkpt>
      <trkpt lat="43.59764" lon="1.32152">
        <ele>186.6</ele>
        <time>2022-09-27T04:59:27Z</time>
      </trkpt>
      <trkpt lat="43.59769" lon="1.32153">
        <ele>186.6</ele>
        <time>2022-09-27T04:59:28Z</time>
      </trkpt>
      <trkpt lat="43.59773" lon="1.32153">
        <ele>186.6</ele>
        <time>2022-09-27T04:59:29Z</time>
      </trkpt>
      <trkpt lat="43.59781" lon="1.32154">
        <ele>186.6</ele>
        <time>2022-09-27T04:59:31Z</time>
      </trkpt>
      <trkpt lat="43.59785" lon="1.32157">
        <ele>186.6</ele>
        <time>2022-09-27T04:59:32Z</time>
      </trkpt>
      <trkpt lat="43.59787" lon="1.32162">
        <ele>186.6</ele>
        <time>2022-09-27T04:59:33Z</time>
      </trkpt>
      <trkpt lat="43.59791" lon="1.32172">
        <ele>186.6</ele>
        <time>2022-09-27T04:59:35Z</time>
      </trkpt>
      <trkpt lat="43.59807" lon="1.32188">
        <ele>186.4</ele>
        <time>2022-09-27T04:59:39Z</time>
      </trkpt>
      <trkpt lat="43.5982" lon="1.32203">
        <ele>186.2</ele>
        <time>2022-09-27T04:59:42Z</time>
      </trkpt>
      <trkpt lat="43.5983" lon="1.32212">
        <ele>186.2</ele>
        <time>2022-09-27T04:59:44Z</time>
      </trkpt>
      <trkpt lat="43.59836" lon="1.32215">
        <ele>186.2</ele>
        <time>2022-09-27T04:59:45Z</time>
      </trkpt>
      <trkpt lat="43.59842" lon="1.32217">
        <ele>186</ele>
        <time>2022-09-27T04:59:46Z</time>
      </trkpt>
      <trkpt lat="43.59866" lon="1.32221">
        <ele>186</ele>
        <time>2022-09-27T04:59:50Z</time>
      </trkpt>
      <trkpt lat="43.59897" lon="1.32226">
        <ele>186.2</ele>
        <time>2022-09-27T04:59:55Z</time>
      </trkpt>
      <trkpt lat="43.59927" lon="1.3223">
        <ele>186</ele>
        <time>2022-09-27T05:00:00Z</time>
      </trkpt>
      <trkpt lat="43.59956" lon="1.32236">
        <ele>186</ele>
        <time>2022-09-27T05:00:05Z</time>
      </trkpt>
      <trkpt lat="43.59966" lon="1.32241">
        <ele>185.8</ele>
        <time>2022-09-27T05:00:07Z</time>
      </trkpt>
      <trkpt lat="43.59972" lon="1.32244">
        <ele>185.8</ele>
        <time>2022-09-27T05:00:08Z</time>
      </trkpt>
      <trkpt lat="43.59985" lon="1.32258">
        <ele>186</ele>
        <time>2022-09-27T05:00:11Z</time>
      </trkpt>
      <trkpt lat="43.59988" lon="1.32262">
        <ele>185.8</ele>
        <time>2022-09-27T05:00:12Z</time>
      </trkpt>
      <trkpt lat="43.59996" lon="1.3227">
        <ele>185.8</ele>
        <time>2022-09-27T05:00:14Z</time>
      </trkpt>
      <trkpt lat="43.6" lon="1.32273">
        <ele>186</ele>
        <time>2022-09-27T05:00:15Z</time>
      </trkpt>
      <trkpt lat="43.60005" lon="1.32274">
        <ele>186</ele>
        <time>2022-09-27T05:00:16Z</time>
      </trkpt>
      <trkpt lat="43.60015" lon="1.32274">
        <ele>186</ele>
        <time>2022-09-27T05:00:18Z</time>
      </trkpt>
      <trkpt lat="43.6002" lon="1.32273">
        <ele>186</ele>
        <time>2022-09-27T05:00:19Z</time>
      </trkpt>
      <trkpt lat="43.6003" lon="1.3227">
        <ele>186</ele>
        <time>2022-09-27T05:00:21Z</time>
      </trkpt>
      <trkpt lat="43.60039" lon="1.32265">
        <ele>186</ele>
        <time>2022-09-27T05:00:23Z</time>
      </trkpt>
      <trkpt lat="43.60043" lon="1.32265">
        <ele>186</ele>
        <time>2022-09-27T05:00:24Z</time>
      </trkpt>
      <trkpt lat="43.60047" lon="1.32267">
        <ele>186</ele>
        <time>2022-09-27T05:00:25Z</time>
      </trkpt>
      <trkpt lat="43.60048" lon="1.32271">
        <ele>186</ele>
        <time>2022-09-27T05:00:26Z</time>
      </trkpt>
      <trkpt lat="43.60048" lon="1.32288">
        <ele>186</ele>
        <time>2022-09-27T05:00:29Z</time>
      </trkpt>
      <trkpt lat="43.60048" lon="1.32301">
        <ele>186</ele>
        <time>2022-09-27T05:00:31Z</time>
      </trkpt>
      <trkpt lat="43.60052" lon="1.32329">
        <ele>185.8</ele>
        <time>2022-09-27T05:00:35Z</time>
      </trkpt>
      <trkpt lat="43.60057" lon="1.32341">
        <ele>185.6</ele>
        <time>2022-09-27T05:00:37Z</time>
      </trkpt>
      <trkpt lat="43.60064" lon="1.32352">
        <ele>185.4</ele>
        <time>2022-09-27T05:00:39Z</time>
      </trkpt>
      <trkpt lat="43.60073" lon="1.32363">
        <ele>185.4</ele>
        <time>2022-09-27T05:00:41Z</time>
      </trkpt>
      <trkpt lat="43.60078" lon="1.32368">
        <ele>185.4</ele>
        <time>2022-09-27T05:00:42Z</time>
      </trkpt>
      <trkpt lat="43.60102" lon="1.32395">
        <ele>185.2</ele>
        <time>2022-09-27T05:00:47Z</time>
      </trkpt>
      <trkpt lat="43.60115" lon="1.32413">
        <ele>185.2</ele>
        <time>2022-09-27T05:00:50Z</time>
      </trkpt>
      <trkpt lat="43.6012" lon="1.32418">
        <ele>185.2</ele>
        <time>2022-09-27T05:00:51Z</time>
      </trkpt>
      <trkpt lat="43.60139" lon="1.32438">
        <ele>185</ele>
        <time>2022-09-27T05:00:55Z</time>
      </trkpt>
      <trkpt lat="43.60175" lon="1.3248">
        <ele>184.6</ele>
        <time>2022-09-27T05:01:03Z</time>
      </trkpt>
      <trkpt lat="43.60189" lon="1.32495">
        <ele>184.6</ele>
        <time>2022-09-27T05:01:06Z</time>
      </trkpt>
      <trkpt lat="43.60211" lon="1.32521">
        <ele>184.6</ele>
        <time>2022-09-27T05:01:11Z</time>
      </trkpt>
      <trkpt lat="43.60246" lon="1.32563">
        <ele>184.8</ele>
        <time>2022-09-27T05:01:19Z</time>
      </trkpt>
      <trkpt lat="43.60284" lon="1.32607">
        <ele>185.2</ele>
        <time>2022-09-27T05:01:27Z</time>
      </trkpt>
      <trkpt lat="43.60294" lon="1.32617">
        <ele>185.2</ele>
        <time>2022-09-27T05:01:29Z</time>
      </trkpt>
      <trkpt lat="43.60305" lon="1.3262">
        <ele>185.2</ele>
        <time>2022-09-27T05:01:31Z</time>
      </trkpt>
      <trkpt lat="43.60342" lon="1.32615">
        <ele>185.2</ele>
        <time>2022-09-27T05:01:37Z</time>
      </trkpt>
      <trkpt lat="43.60353" lon="1.32611">
        <ele>185.4</ele>
        <time>2022-09-27T05:01:39Z</time>
      </trkpt>
      <trkpt lat="43.60361" lon="1.32603">
        <ele>185.4</ele>
        <time>2022-09-27T05:01:41Z</time>
      </trkpt>
      <trkpt lat="43.60391" lon="1.32545">
        <ele>185.6</ele>
        <time>2022-09-27T05:01:50Z</time>
      </trkpt>
      <trkpt lat="43.60424" lon="1.32485">
        <ele>185.4</ele>
        <time>2022-09-27T05:01:59Z</time>
      </trkpt>
      <trkpt lat="43.60441" lon="1.32452">
        <ele>185.2</ele>
        <time>2022-09-27T05:02:04Z</time>
      </trkpt>
      <trkpt lat="43.60452" lon="1.32432">
        <ele>185.2</ele>
        <time>2022-09-27T05:02:07Z</time>
      </trkpt>
      <trkpt lat="43.60463" lon="1.32412">
        <ele>185.2</ele>
        <time>2022-09-27T05:02:10Z</time>
      </trkpt>
      <trkpt lat="43.60472" lon="1.324">
        <ele>185.2</ele>
        <time>2022-09-27T05:02:12Z</time>
      </trkpt>
      <trkpt lat="43.60477" lon="1.32396">
        <ele>185.2</ele>
        <time>2022-09-27T05:02:13Z</time>
      </trkpt>
      <trkpt lat="43.60487" lon="1.32388">
        <ele>185.2</ele>
        <time>2022-09-27T05:02:15Z</time>
      </trkpt>
      <trkpt lat="43.60501" lon="1.32383">
        <ele>185.2</ele>
        <time>2022-09-27T05:02:18Z</time>
      </trkpt>
      <trkpt lat="43.60509" lon="1.32384">
        <ele>185.2</ele>
        <time>2022-09-27T05:02:21Z</time>
      </trkpt>
      <trkpt lat="43.60523" lon="1.32396">
        <ele>185.4</ele>
        <time>2022-09-27T05:02:26Z</time>
      </trkpt>
      <trkpt lat="43.60532" lon="1.32398">
        <ele>185.4</ele>
        <time>2022-09-27T05:02:28Z</time>
      </trkpt>
      <trkpt lat="43.6054" lon="1.32393">
        <ele>185.4</ele>
        <time>2022-09-27T05:02:30Z</time>
      </trkpt>
      <trkpt lat="43.60551" lon="1.32381">
        <ele>185.4</ele>
        <time>2022-09-27T05:02:33Z</time>
      </trkpt>
      <trkpt lat="43.6056" lon="1.32374">
        <ele>185.4</ele>
        <time>2022-09-27T05:02:35Z</time>
      </trkpt>
      <trkpt lat="43.6057" lon="1.32371">
        <ele>185.4</ele>
        <time>2022-09-27T05:02:37Z</time>
      </trkpt>
      <trkpt lat="43.60582" lon="1.32371">
        <ele>185.2</ele>
        <time>2022-09-27T05:02:39Z</time>
      </trkpt>
      <trkpt lat="43.60589" lon="1.32371">
        <ele>185.2</ele>
        <time>2022-09-27T05:02:40Z</time>
      </trkpt>
      <trkpt lat="43.606" lon="1.32379">
        <ele>185</ele>
        <time>2022-09-27T05:02:42Z</time>
      </trkpt>
      <trkpt lat="43.60634" lon="1.32417">
        <ele>184.4</ele>
        <time>2022-09-27T05:02:49Z</time>
      </trkpt>
      <trkpt lat="43.60654" lon="1.32437">
        <ele>184.2</ele>
        <time>2022-09-27T05:02:53Z</time>
      </trkpt>
      <trkpt lat="43.6066" lon="1.32441">
        <ele>184.2</ele>
        <time>2022-09-27T05:02:54Z</time>
      </trkpt>
      <trkpt lat="43.60666" lon="1.32441">
        <ele>184.2</ele>
        <time>2022-09-27T05:02:55Z</time>
      </trkpt>
      <trkpt lat="43.60684" lon="1.32437">
        <ele>184.2</ele>
        <time>2022-09-27T05:02:58Z</time>
      </trkpt>
      <trkpt lat="43.60725" lon="1.32411">
        <ele>184.2</ele>
        <time>2022-09-27T05:03:08Z</time>
      </trkpt>
      <trkpt lat="43.60742" lon="1.32394">
        <ele>184.2</ele>
        <time>2022-09-27T05:03:10Z</time>
      </trkpt>
      <trkpt lat="43.60748" lon="1.32376">
        <ele>184.2</ele>
        <time>2022-09-27T05:03:12Z</time>
      </trkpt>
      <trkpt lat="43.60757" lon="1.32365">
        <ele>184.4</ele>
        <time>2022-09-27T05:03:14Z</time>
      </trkpt>
      <trkpt lat="43.60761" lon="1.3236">
        <ele>184.4</ele>
        <time>2022-09-27T05:03:15Z</time>
      </trkpt>
      <trkpt lat="43.60772" lon="1.32349">
        <ele>184.4</ele>
        <time>2022-09-27T05:03:18Z</time>
      </trkpt>
      <trkpt lat="43.60778" lon="1.32345">
        <ele>184.4</ele>
        <time>2022-09-27T05:03:20Z</time>
      </trkpt>
      <trkpt lat="43.60794" lon="1.32352">
        <ele>184.4</ele>
        <time>2022-09-27T05:03:25Z</time>
      </trkpt>
      <trkpt lat="43.60813" lon="1.32353">
        <ele>184.2</ele>
        <time>2022-09-27T05:03:29Z</time>
      </trkpt>
      <trkpt lat="43.60822" lon="1.3235">
        <ele>184.2</ele>
        <time>2022-09-27T05:03:31Z</time>
      </trkpt>
      <trkpt lat="43.60855" lon="1.32331">
        <ele>184.4</ele>
        <time>2022-09-27T05:03:38Z</time>
      </trkpt>
      <trkpt lat="43.60864" lon="1.32327">
        <ele>184.6</ele>
        <time>2022-09-27T05:03:40Z</time>
      </trkpt>
      <trkpt lat="43.60874" lon="1.32326">
        <ele>184.6</ele>
        <time>2022-09-27T05:03:42Z</time>
      </trkpt>
      <trkpt lat="43.60879" lon="1.32328">
        <ele>184.6</ele>
        <time>2022-09-27T05:03:43Z</time>
      </trkpt>
      <trkpt lat="43.60884" lon="1.32329">
        <ele>184.6</ele>
        <time>2022-09-27T05:03:44Z</time>
      </trkpt>
      <trkpt lat="43.60895" lon="1.32327">
        <ele>184.6</ele>
        <time>2022-09-27T05:03:46Z</time>
      </trkpt>
      <trkpt lat="43.60901" lon="1.32325">
        <ele>184.6</ele>
        <time>2022-09-27T05:03:47Z</time>
      </trkpt>
      <trkpt lat="43.6092" lon="1.32315">
        <ele>184.4</ele>
        <time>2022-09-27T05:03:52Z</time>
      </trkpt>
      <trkpt lat="43.60934" lon="1.32307">
        <ele>184.8</ele>
        <time>2022-09-27T05:03:57Z</time>
      </trkpt>
      <trkpt lat="43.60937" lon="1.32307">
        <ele>185.4</ele>
        <time>2022-09-27T05:03:59Z</time>
      </trkpt>
      <trkpt lat="43.60939" lon="1.32313">
        <ele>186.2</ele>
        <time>2022-09-27T05:04:01Z</time>
      </trkpt>
      <trkpt lat="43.6094" lon="1.32322">
        <ele>186.6</ele>
        <time>2022-09-27T05:04:03Z</time>
      </trkpt>
      <trkpt lat="43.60941" lon="1.32329">
        <ele>187.2</ele>
        <time>2022-09-27T05:04:05Z</time>
      </trkpt>
      <trkpt lat="43.6094" lon="1.32332">
        <ele>187.4</ele>
        <time>2022-09-27T05:04:06Z</time>
      </trkpt>
      <trkpt lat="43.60937" lon="1.32334">
        <ele>187.6</ele>
        <time>2022-09-27T05:04:07Z</time>
      </trkpt>
      <trkpt lat="43.60933" lon="1.32336">
        <ele>187.8</ele>
        <time>2022-09-27T05:04:08Z</time>
      </trkpt>
      <trkpt lat="43.60922" lon="1.32341">
        <ele>187.8</ele>
        <time>2022-09-27T05:04:10Z</time>
      </trkpt>
      <trkpt lat="43.60891" lon="1.32355">
        <ele>187</ele>
        <time>2022-09-27T05:04:16Z</time>
      </trkpt>
      <trkpt lat="43.60889" lon="1.32357">
        <ele>186.6</ele>
        <time>2022-09-27T05:04:17Z</time>
      </trkpt>
      <trkpt lat="43.60887" lon="1.32358">
        <ele>185.8</ele>
        <time>2022-09-27T05:04:19Z</time>
      </trkpt>
      <trkpt lat="43.60886" lon="1.32359">
        <ele>185.2</ele>
        <time>2022-09-27T05:04:21Z</time>
      </trkpt>
      <trkpt lat="43.60884" lon="1.3236">
        <ele>185</ele>
        <time>2022-09-27T05:04:22Z</time>
      </trkpt>
      <trkpt lat="43.60881" lon="1.32361">
        <ele>184.8</ele>
        <time>2022-09-27T05:04:23Z</time>
      </trkpt>
      <trkpt lat="43.60872" lon="1.32367">
        <ele>184.2</ele>
        <time>2022-09-27T05:04:26Z</time>
      </trkpt>
      <trkpt lat="43.60868" lon="1.32374">
        <ele>184</ele>
        <time>2022-09-27T05:04:28Z</time>
      </trkpt>
      <trkpt lat="43.60869" lon="1.32389">
        <ele>183.6</ele>
        <time>2022-09-27T05:04:31Z</time>
      </trkpt>
      <trkpt lat="43.6088" lon="1.32424">
        <ele>183.2</ele>
        <time>2022-09-27T05:04:37Z</time>
      </trkpt>
      <trkpt lat="43.60882" lon="1.32429">
        <ele>183.2</ele>
        <time>2022-09-27T05:04:38Z</time>
      </trkpt>
      <trkpt lat="43.60887" lon="1.32441">
        <ele>183.2</ele>
        <time>2022-09-27T05:04:40Z</time>
      </trkpt>
      <trkpt lat="43.60887" lon="1.32448">
        <ele>183.2</ele>
        <time>2022-09-27T05:04:41Z</time>
      </trkpt>
      <trkpt lat="43.60888" lon="1.32455">
        <ele>183</ele>
        <time>2022-09-27T05:04:42Z</time>
      </trkpt>
      <trkpt lat="43.60891" lon="1.32469">
        <ele>183</ele>
        <time>2022-09-27T05:04:44Z</time>
      </trkpt>
      <trkpt lat="43.60894" lon="1.32474">
        <ele>183</ele>
        <time>2022-09-27T05:04:45Z</time>
      </trkpt>
      <trkpt lat="43.60898" lon="1.32479">
        <ele>183</ele>
        <time>2022-09-27T05:04:46Z</time>
      </trkpt>
      <trkpt lat="43.60914" lon="1.32497">
        <ele>182.8</ele>
        <time>2022-09-27T05:04:50Z</time>
      </trkpt>
      <trkpt lat="43.60916" lon="1.32508">
        <ele>182.8</ele>
        <time>2022-09-27T05:04:52Z</time>
      </trkpt>
      <trkpt lat="43.60916" lon="1.32514">
        <ele>182.8</ele>
        <time>2022-09-27T05:04:53Z</time>
      </trkpt>
      <trkpt lat="43.60915" lon="1.32519">
        <ele>182.8</ele>
        <time>2022-09-27T05:04:54Z</time>
      </trkpt>
      <trkpt lat="43.60911" lon="1.3253">
        <ele>182.8</ele>
        <time>2022-09-27T05:04:56Z</time>
      </trkpt>
      <trkpt lat="43.6091" lon="1.32535">
        <ele>182.8</ele>
        <time>2022-09-27T05:04:57Z</time>
      </trkpt>
      <trkpt lat="43.60911" lon="1.32541">
        <ele>182.8</ele>
        <time>2022-09-27T05:04:58Z</time>
      </trkpt>
      <trkpt lat="43.60918" lon="1.32552">
        <ele>182.6</ele>
        <time>2022-09-27T05:05:00Z</time>
      </trkpt>
      <trkpt lat="43.60934" lon="1.32566">
        <ele>182.6</ele>
        <time>2022-09-27T05:05:04Z</time>
      </trkpt>
      <trkpt lat="43.60938" lon="1.32567">
        <ele>182.6</ele>
        <time>2022-09-27T05:05:05Z</time>
      </trkpt>
      <trkpt lat="43.60941" lon="1.32567">
        <ele>182.6</ele>
        <time>2022-09-27T05:05:06Z</time>
      </trkpt>
      <trkpt lat="43.60944" lon="1.32572">
        <ele>182.6</ele>
        <time>2022-09-27T05:05:08Z</time>
      </trkpt>
      <trkpt lat="43.6094" lon="1.32587">
        <ele>182.6</ele>
        <time>2022-09-27T05:05:12Z</time>
      </trkpt>
      <trkpt lat="43.60925" lon="1.32612">
        <ele>182.6</ele>
        <time>2022-09-27T05:05:17Z</time>
      </trkpt>
      <trkpt lat="43.60913" lon="1.32631">
        <ele>182.6</ele>
        <time>2022-09-27T05:05:21Z</time>
      </trkpt>
      <trkpt lat="43.60904" lon="1.32636">
        <ele>182.6</ele>
        <time>2022-09-27T05:05:23Z</time>
      </trkpt>
      <trkpt lat="43.60876" lon="1.32653">
        <ele>182.6</ele>
        <time>2022-09-27T05:05:29Z</time>
      </trkpt>
      <trkpt lat="43.60867" lon="1.32663">
        <ele>182.8</ele>
        <time>2022-09-27T05:05:31Z</time>
      </trkpt>
      <trkpt lat="43.60861" lon="1.32676">
        <ele>182.8</ele>
        <time>2022-09-27T05:05:33Z</time>
      </trkpt>
      <trkpt lat="43.60859" lon="1.32683">
        <ele>182.8</ele>
        <time>2022-09-27T05:05:34Z</time>
      </trkpt>
      <trkpt lat="43.60857" lon="1.32699">
        <ele>182.8</ele>
        <time>2022-09-27T05:05:36Z</time>
      </trkpt>
      <trkpt lat="43.60857" lon="1.32708">
        <ele>183</ele>
        <time>2022-09-27T05:05:37Z</time>
      </trkpt>
      <trkpt lat="43.60858" lon="1.32715">
        <ele>183</ele>
        <time>2022-09-27T05:05:38Z</time>
      </trkpt>
      <trkpt lat="43.60864" lon="1.3273">
        <ele>183</ele>
        <time>2022-09-27T05:05:40Z</time>
      </trkpt>
      <trkpt lat="43.60868" lon="1.32737">
        <ele>183</ele>
        <time>2022-09-27T05:05:41Z</time>
      </trkpt>
      <trkpt lat="43.60872" lon="1.32743">
        <ele>183</ele>
        <time>2022-09-27T05:05:42Z</time>
      </trkpt>
      <trkpt lat="43.60884" lon="1.3275">
        <ele>183</ele>
        <time>2022-09-27T05:05:44Z</time>
      </trkpt>
      <trkpt lat="43.6089" lon="1.32752">
        <ele>183</ele>
        <time>2022-09-27T05:05:45Z</time>
      </trkpt>
      <trkpt lat="43.60896" lon="1.32752">
        <ele>183</ele>
        <time>2022-09-27T05:05:46Z</time>
      </trkpt>
      <trkpt lat="43.60916" lon="1.3275">
        <ele>183</ele>
        <time>2022-09-27T05:05:49Z</time>
      </trkpt>
      <trkpt lat="43.60928" lon="1.32754">
        <ele>183</ele>
        <time>2022-09-27T05:05:51Z</time>
      </trkpt>
      <trkpt lat="43.60933" lon="1.32759">
        <ele>183</ele>
        <time>2022-09-27T05:05:52Z</time>
      </trkpt>
      <trkpt lat="43.60971" lon="1.32806">
        <ele>183.2</ele>
        <time>2022-09-27T05:06:00Z</time>
      </trkpt>
      <trkpt lat="43.61011" lon="1.32856">
        <ele>183.2</ele>
        <time>2022-09-27T05:06:09Z</time>
      </trkpt>
      <trkpt lat="43.61052" lon="1.32905">
        <ele>183.4</ele>
        <time>2022-09-27T05:06:18Z</time>
      </trkpt>
      <trkpt lat="43.61061" lon="1.32916">
        <ele>183.4</ele>
        <time>2022-09-27T05:06:20Z</time>
      </trkpt>
      <trkpt lat="43.61072" lon="1.32936">
        <ele>183.4</ele>
        <time>2022-09-27T05:06:23Z</time>
      </trkpt>
      <trkpt lat="43.61082" lon="1.32945">
        <ele>183.4</ele>
        <time>2022-09-27T05:06:25Z</time>
      </trkpt>
      <trkpt lat="43.61093" lon="1.32952">
        <ele>183.4</ele>
        <time>2022-09-27T05:06:27Z</time>
      </trkpt>
      <trkpt lat="43.61098" lon="1.32956">
        <ele>183.4</ele>
        <time>2022-09-27T05:06:28Z</time>
      </trkpt>
      <trkpt lat="43.6111" lon="1.32969">
        <ele>183.4</ele>
        <time>2022-09-27T05:06:30Z</time>
      </trkpt>
      <trkpt lat="43.61115" lon="1.32976">
        <ele>183.4</ele>
        <time>2022-09-27T05:06:31Z</time>
      </trkpt>
      <trkpt lat="43.61125" lon="1.32989">
        <ele>183.4</ele>
        <time>2022-09-27T05:06:33Z</time>
      </trkpt>
      <trkpt lat="43.61137" lon="1.33005">
        <ele>183.2</ele>
        <time>2022-09-27T05:06:35Z</time>
      </trkpt>
      <trkpt lat="43.61164" lon="1.33037">
        <ele>182.6</ele>
        <time>2022-09-27T05:06:40Z</time>
      </trkpt>
      <trkpt lat="43.61173" lon="1.33049">
        <ele>182.2</ele>
        <time>2022-09-27T05:06:42Z</time>
      </trkpt>
      <trkpt lat="43.6119" lon="1.33067">
        <ele>181.8</ele>
        <time>2022-09-27T05:06:45Z</time>
      </trkpt>
      <trkpt lat="43.612" lon="1.33076">
        <ele>181.6</ele>
        <time>2022-09-27T05:06:47Z</time>
      </trkpt>
      <trkpt lat="43.61206" lon="1.33082">
        <ele>181.6</ele>
        <time>2022-09-27T05:06:48Z</time>
      </trkpt>
      <trkpt lat="43.61238" lon="1.33104">
        <ele>181.8</ele>
        <time>2022-09-27T05:06:54Z</time>
      </trkpt>
      <trkpt lat="43.61244" lon="1.33108">
        <ele>181.8</ele>
        <time>2022-09-27T05:06:55Z</time>
      </trkpt>
      <trkpt lat="43.61252" lon="1.33119">
        <ele>181.8</ele>
        <time>2022-09-27T05:06:57Z</time>
      </trkpt>
      <trkpt lat="43.61256" lon="1.33126">
        <ele>182</ele>
        <time>2022-09-27T05:06:58Z</time>
      </trkpt>
      <trkpt lat="43.61258" lon="1.33134">
        <ele>182</ele>
        <time>2022-09-27T05:06:59Z</time>
      </trkpt>
      <trkpt lat="43.61262" lon="1.33156">
        <ele>182.2</ele>
        <time>2022-09-27T05:07:02Z</time>
      </trkpt>
      <trkpt lat="43.61266" lon="1.33181">
        <ele>182.2</ele>
        <time>2022-09-27T05:07:05Z</time>
      </trkpt>
      <trkpt lat="43.61267" lon="1.33198">
        <ele>182.2</ele>
        <time>2022-09-27T05:07:07Z</time>
      </trkpt>
      <trkpt lat="43.61267" lon="1.33208">
        <ele>182.2</ele>
        <time>2022-09-27T05:07:08Z</time>
      </trkpt>
      <trkpt lat="43.61266" lon="1.33215">
        <ele>182.2</ele>
        <time>2022-09-27T05:07:09Z</time>
      </trkpt>
      <trkpt lat="43.61256" lon="1.3325">
        <ele>182.2</ele>
        <time>2022-09-27T05:07:13Z</time>
      </trkpt>
      <trkpt lat="43.61247" lon="1.33301">
        <ele>182.4</ele>
        <time>2022-09-27T05:07:19Z</time>
      </trkpt>
      <trkpt lat="43.61237" lon="1.33339">
        <ele>182.2</ele>
        <time>2022-09-27T05:07:23Z</time>
      </trkpt>
      <trkpt lat="43.61231" lon="1.33361">
        <ele>182.2</ele>
        <time>2022-09-27T05:07:25Z</time>
      </trkpt>
      <trkpt lat="43.61213" lon="1.33422">
        <ele>181.2</ele>
        <time>2022-09-27T05:07:32Z</time>
      </trkpt>
      <trkpt lat="43.61201" lon="1.3346">
        <ele>181.2</ele>
        <time>2022-09-27T05:07:37Z</time>
      </trkpt>
      <trkpt lat="43.6118" lon="1.33523">
        <ele>181.4</ele>
        <time>2022-09-27T05:07:45Z</time>
      </trkpt>
      <trkpt lat="43.61161" lon="1.33583">
        <ele>181.4</ele>
        <time>2022-09-27T05:07:52Z</time>
      </trkpt>
      <trkpt lat="43.61155" lon="1.336">
        <ele>181.4</ele>
        <time>2022-09-27T05:07:54Z</time>
      </trkpt>
      <trkpt lat="43.61147" lon="1.33614">
        <ele>181.4</ele>
        <time>2022-09-27T05:07:56Z</time>
      </trkpt>
      <trkpt lat="43.61141" lon="1.3362">
        <ele>181.4</ele>
        <time>2022-09-27T05:07:57Z</time>
      </trkpt>
      <trkpt lat="43.61136" lon="1.33625">
        <ele>181.4</ele>
        <time>2022-09-27T05:07:58Z</time>
      </trkpt>
      <trkpt lat="43.61111" lon="1.33643">
        <ele>181.2</ele>
        <time>2022-09-27T05:08:02Z</time>
      </trkpt>
      <trkpt lat="43.61102" lon="1.33655">
        <ele>181</ele>
        <time>2022-09-27T05:08:04Z</time>
      </trkpt>
      <trkpt lat="43.61099" lon="1.33665">
        <ele>180.8</ele>
        <time>2022-09-27T05:08:05Z</time>
      </trkpt>
      <trkpt lat="43.61098" lon="1.33675">
        <ele>180.8</ele>
        <time>2022-09-27T05:08:06Z</time>
      </trkpt>
      <trkpt lat="43.61099" lon="1.33693">
        <ele>180.6</ele>
        <time>2022-09-27T05:08:08Z</time>
      </trkpt>
      <trkpt lat="43.61101" lon="1.337">
        <ele>180.6</ele>
        <time>2022-09-27T05:08:09Z</time>
      </trkpt>
      <trkpt lat="43.61106" lon="1.33709">
        <ele>180.6</ele>
        <time>2022-09-27T05:08:10Z</time>
      </trkpt>
      <trkpt lat="43.61111" lon="1.33714">
        <ele>180.6</ele>
        <time>2022-09-27T05:08:11Z</time>
      </trkpt>
      <trkpt lat="43.61116" lon="1.33718">
        <ele>180.6</ele>
        <time>2022-09-27T05:08:12Z</time>
      </trkpt>
      <trkpt lat="43.6113" lon="1.33722">
        <ele>180.6</ele>
        <time>2022-09-27T05:08:14Z</time>
      </trkpt>
      <trkpt lat="43.61136" lon="1.33724">
        <ele>180.6</ele>
        <time>2022-09-27T05:08:15Z</time>
      </trkpt>
      <trkpt lat="43.61178" lon="1.33739">
        <ele>180.8</ele>
        <time>2022-09-27T05:08:22Z</time>
      </trkpt>
      <trkpt lat="43.61214" lon="1.33761">
        <ele>180.6</ele>
        <time>2022-09-27T05:08:27Z</time>
      </trkpt>
      <trkpt lat="43.61251" lon="1.33792">
        <ele>179.6</ele>
        <time>2022-09-27T05:08:32Z</time>
      </trkpt>
      <trkpt lat="43.61258" lon="1.338">
        <ele>179.4</ele>
        <time>2022-09-27T05:08:33Z</time>
      </trkpt>
      <trkpt lat="43.61279" lon="1.33824">
        <ele>178.4</ele>
        <time>2022-09-27T05:08:36Z</time>
      </trkpt>
      <trkpt lat="43.61301" lon="1.3385">
        <ele>176.8</ele>
        <time>2022-09-27T05:08:39Z</time>
      </trkpt>
      <trkpt lat="43.61324" lon="1.33877">
        <ele>175.2</ele>
        <time>2022-09-27T05:08:42Z</time>
      </trkpt>
      <trkpt lat="43.61344" lon="1.33906">
        <ele>174</ele>
        <time>2022-09-27T05:08:45Z</time>
      </trkpt>
      <trkpt lat="43.61356" lon="1.33925">
        <ele>173</ele>
        <time>2022-09-27T05:08:47Z</time>
      </trkpt>
      <trkpt lat="43.61361" lon="1.33936">
        <ele>172.4</ele>
        <time>2022-09-27T05:08:48Z</time>
      </trkpt>
      <trkpt lat="43.61371" lon="1.3397">
        <ele>171.6</ele>
        <time>2022-09-27T05:08:51Z</time>
      </trkpt>
      <trkpt lat="43.61373" lon="1.33983">
        <ele>171.2</ele>
        <time>2022-09-27T05:08:52Z</time>
      </trkpt>
      <trkpt lat="43.61377" lon="1.3402">
        <ele>170.2</ele>
        <time>2022-09-27T05:08:55Z</time>
      </trkpt>
      <trkpt lat="43.61378" lon="1.34032">
        <ele>169.8</ele>
        <time>2022-09-27T05:08:56Z</time>
      </trkpt>
      <trkpt lat="43.61381" lon="1.34056">
        <ele>169.4</ele>
        <time>2022-09-27T05:08:58Z</time>
      </trkpt>
      <trkpt lat="43.61389" lon="1.34076">
        <ele>168.8</ele>
        <time>2022-09-27T05:09:00Z</time>
      </trkpt>
      <trkpt lat="43.61401" lon="1.34089">
        <ele>168.4</ele>
        <time>2022-09-27T05:09:02Z</time>
      </trkpt>
      <trkpt lat="43.61408" lon="1.34093">
        <ele>168.4</ele>
        <time>2022-09-27T05:09:03Z</time>
      </trkpt>
      <trkpt lat="43.61415" lon="1.34094">
        <ele>168.2</ele>
        <time>2022-09-27T05:09:04Z</time>
      </trkpt>
      <trkpt lat="43.61431" lon="1.3409">
        <ele>168</ele>
        <time>2022-09-27T05:09:06Z</time>
      </trkpt>
      <trkpt lat="43.61444" lon="1.34078">
        <ele>167.8</ele>
        <time>2022-09-27T05:09:08Z</time>
      </trkpt>
      <trkpt lat="43.61449" lon="1.34071">
        <ele>167.8</ele>
        <time>2022-09-27T05:09:09Z</time>
      </trkpt>
      <trkpt lat="43.61454" lon="1.34063">
        <ele>167.8</ele>
        <time>2022-09-27T05:09:10Z</time>
      </trkpt>
      <trkpt lat="43.61459" lon="1.34056">
        <ele>167.6</ele>
        <time>2022-09-27T05:09:11Z</time>
      </trkpt>
      <trkpt lat="43.61469" lon="1.34048">
        <ele>167.6</ele>
        <time>2022-09-27T05:09:13Z</time>
      </trkpt>
      <trkpt lat="43.6149" lon="1.34039">
        <ele>167.8</ele>
        <time>2022-09-27T05:09:17Z</time>
      </trkpt>
      <trkpt lat="43.61495" lon="1.34038">
        <ele>167.8</ele>
        <time>2022-09-27T05:09:18Z</time>
      </trkpt>
      <trkpt lat="43.61541" lon="1.34032">
        <ele>168.4</ele>
        <time>2022-09-27T05:09:26Z</time>
      </trkpt>
      <trkpt lat="43.61552" lon="1.34029">
        <ele>168.6</ele>
        <time>2022-09-27T05:09:28Z</time>
      </trkpt>
      <trkpt lat="43.61557" lon="1.34028">
        <ele>168.8</ele>
        <time>2022-09-27T05:09:29Z</time>
      </trkpt>
      <trkpt lat="43.61578" lon="1.34022">
        <ele>169.4</ele>
        <time>2022-09-27T05:09:33Z</time>
      </trkpt>
      <trkpt lat="43.61595" lon="1.3402">
        <ele>169.8</ele>
        <time>2022-09-27T05:09:36Z</time>
      </trkpt>
      <trkpt lat="43.6162" lon="1.34017">
        <ele>170.6</ele>
        <time>2022-09-27T05:09:41Z</time>
      </trkpt>
      <trkpt lat="43.61637" lon="1.34017">
        <ele>171</ele>
        <time>2022-09-27T05:09:44Z</time>
      </trkpt>
      <trkpt lat="43.61664" lon="1.34015">
        <ele>171.6</ele>
        <time>2022-09-27T05:09:50Z</time>
      </trkpt>
      <trkpt lat="43.61681" lon="1.3401">
        <ele>171.8</ele>
        <time>2022-09-27T05:09:54Z</time>
      </trkpt>
      <trkpt lat="43.61712" lon="1.34008">
        <ele>171.8</ele>
        <time>2022-09-27T05:09:59Z</time>
      </trkpt>
      <trkpt lat="43.61726" lon="1.34005">
        <ele>171.8</ele>
        <time>2022-09-27T05:10:01Z</time>
      </trkpt>
      <trkpt lat="43.61748" lon="1.33997">
        <ele>171.6</ele>
        <time>2022-09-27T05:10:04Z</time>
      </trkpt>
      <trkpt lat="43.61762" lon="1.34003">
        <ele>171.4</ele>
        <time>2022-09-27T05:10:06Z</time>
      </trkpt>
      <trkpt lat="43.6177" lon="1.34021">
        <ele>171.2</ele>
        <time>2022-09-27T05:10:08Z</time>
      </trkpt>
      <trkpt lat="43.61785" lon="1.34081">
        <ele>169.6</ele>
        <time>2022-09-27T05:10:13Z</time>
      </trkpt>
      <trkpt lat="43.61796" lon="1.34119">
        <ele>168.2</ele>
        <time>2022-09-27T05:10:16Z</time>
      </trkpt>
      <trkpt lat="43.61798" lon="1.34129">
        <ele>167.2</ele>
        <time>2022-09-27T05:10:18Z</time>
      </trkpt>
      <trkpt lat="43.61803" lon="1.3415">
        <ele>166.6</ele>
        <time>2022-09-27T05:10:19Z</time>
      </trkpt>
      <trkpt lat="43.61808" lon="1.34159">
        <ele>166</ele>
        <time>2022-09-27T05:10:20Z</time>
      </trkpt>
      <trkpt lat="43.61813" lon="1.34166">
        <ele>165.4</ele>
        <time>2022-09-27T05:10:21Z</time>
      </trkpt>
      <trkpt lat="43.61819" lon="1.34173">
        <ele>164.8</ele>
        <time>2022-09-27T05:10:22Z</time>
      </trkpt>
      <trkpt lat="43.6183" lon="1.34188">
        <ele>164.2</ele>
        <time>2022-09-27T05:10:24Z</time>
      </trkpt>
      <trkpt lat="43.6184" lon="1.34203">
        <ele>163.4</ele>
        <time>2022-09-27T05:10:26Z</time>
      </trkpt>
      <trkpt lat="43.61855" lon="1.34223">
        <ele>162.4</ele>
        <time>2022-09-27T05:10:29Z</time>
      </trkpt>
      <trkpt lat="43.61868" lon="1.34238">
        <ele>161.8</ele>
        <time>2022-09-27T05:10:31Z</time>
      </trkpt>
      <trkpt lat="43.61886" lon="1.34259">
        <ele>161.4</ele>
        <time>2022-09-27T05:10:34Z</time>
      </trkpt>
      <trkpt lat="43.61915" lon="1.34294">
        <ele>160.4</ele>
        <time>2022-09-27T05:10:39Z</time>
      </trkpt>
      <trkpt lat="43.61921" lon="1.34301">
        <ele>160.4</ele>
        <time>2022-09-27T05:10:40Z</time>
      </trkpt>
      <trkpt lat="43.61952" lon="1.34333">
        <ele>159.4</ele>
        <time>2022-09-27T05:10:45Z</time>
      </trkpt>
      <trkpt lat="43.61957" lon="1.34339">
        <ele>159.4</ele>
        <time>2022-09-27T05:10:46Z</time>
      </trkpt>
      <trkpt lat="43.61968" lon="1.34348">
        <ele>159.2</ele>
        <time>2022-09-27T05:10:48Z</time>
      </trkpt>
      <trkpt lat="43.61999" lon="1.3438">
        <ele>158.4</ele>
        <time>2022-09-27T05:10:54Z</time>
      </trkpt>
      <trkpt lat="43.62004" lon="1.34386">
        <ele>158</ele>
        <time>2022-09-27T05:10:55Z</time>
      </trkpt>
      <trkpt lat="43.62022" lon="1.34413">
        <ele>158</ele>
        <time>2022-09-27T05:10:59Z</time>
      </trkpt>
      <trkpt lat="43.62026" lon="1.3442">
        <ele>157.8</ele>
        <time>2022-09-27T05:11:00Z</time>
      </trkpt>
      <trkpt lat="43.62029" lon="1.34435">
        <ele>157.6</ele>
        <time>2022-09-27T05:11:02Z</time>
      </trkpt>
      <trkpt lat="43.62027" lon="1.3445">
        <ele>157.4</ele>
        <time>2022-09-27T05:11:04Z</time>
      </trkpt>
      <trkpt lat="43.62025" lon="1.34455">
        <ele>157.2</ele>
        <time>2022-09-27T05:11:05Z</time>
      </trkpt>
      <trkpt lat="43.62024" lon="1.3446">
        <ele>157.2</ele>
        <time>2022-09-27T05:11:06Z</time>
      </trkpt>
      <trkpt lat="43.62023" lon="1.34464">
        <ele>157.2</ele>
        <time>2022-09-27T05:11:07Z</time>
      </trkpt>
      <trkpt lat="43.62025" lon="1.34467">
        <ele>157.2</ele>
        <time>2022-09-27T05:11:08Z</time>
      </trkpt>
      <trkpt lat="43.6203" lon="1.34467">
        <ele>157</ele>
        <time>2022-09-27T05:11:10Z</time>
      </trkpt>
      <trkpt lat="43.62033" lon="1.34464">
        <ele>156.8</ele>
        <time>2022-09-27T05:11:11Z</time>
      </trkpt>
      <trkpt lat="43.62049" lon="1.3446">
        <ele>156.4</ele>
        <time>2022-09-27T05:11:15Z</time>
      </trkpt>
      <trkpt lat="43.62063" lon="1.3446">
        <ele>156.4</ele>
        <time>2022-09-27T05:11:18Z</time>
      </trkpt>
      <trkpt lat="43.62073" lon="1.34465">
        <ele>156.4</ele>
        <time>2022-09-27T05:11:20Z</time>
      </trkpt>
      <trkpt lat="43.62078" lon="1.34469">
        <ele>156.4</ele>
        <time>2022-09-27T05:11:21Z</time>
      </trkpt>
      <trkpt lat="43.62097" lon="1.34489">
        <ele>156.2</ele>
        <time>2022-09-27T05:11:25Z</time>
      </trkpt>
      <trkpt lat="43.62106" lon="1.34499">
        <ele>156</ele>
        <time>2022-09-27T05:11:27Z</time>
      </trkpt>
      <trkpt lat="43.62116" lon="1.34509">
        <ele>156</ele>
        <time>2022-09-27T05:11:29Z</time>
      </trkpt>
      <trkpt lat="43.62131" lon="1.34524">
        <ele>156</ele>
        <time>2022-09-27T05:11:32Z</time>
      </trkpt>
      <trkpt lat="43.62158" lon="1.34549">
        <ele>155.8</ele>
        <time>2022-09-27T05:11:37Z</time>
      </trkpt>
      <trkpt lat="43.62204" lon="1.34584">
        <ele>155.6</ele>
        <time>2022-09-27T05:11:45Z</time>
      </trkpt>
      <trkpt lat="43.6221" lon="1.34587">
        <ele>155.6</ele>
        <time>2022-09-27T05:11:46Z</time>
      </trkpt>
      <trkpt lat="43.62247" lon="1.34614">
        <ele>155.4</ele>
        <time>2022-09-27T05:11:52Z</time>
      </trkpt>
      <trkpt lat="43.62293" lon="1.34637">
        <ele>155.2</ele>
        <time>2022-09-27T05:11:59Z</time>
      </trkpt>
      <trkpt lat="43.62349" lon="1.34661">
        <ele>155.2</ele>
        <time>2022-09-27T05:12:08Z</time>
      </trkpt>
      <trkpt lat="43.62361" lon="1.34667">
        <ele>155.2</ele>
        <time>2022-09-27T05:12:10Z</time>
      </trkpt>
      <trkpt lat="43.62367" lon="1.34671">
        <ele>155.2</ele>
        <time>2022-09-27T05:12:11Z</time>
      </trkpt>
      <trkpt lat="43.62376" lon="1.34682">
        <ele>155</ele>
        <time>2022-09-27T05:12:13Z</time>
      </trkpt>
      <trkpt lat="43.6238" lon="1.34688">
        <ele>155</ele>
        <time>2022-09-27T05:12:14Z</time>
      </trkpt>
      <trkpt lat="43.62384" lon="1.34694">
        <ele>155</ele>
        <time>2022-09-27T05:12:15Z</time>
      </trkpt>
      <trkpt lat="43.62394" lon="1.347">
        <ele>155</ele>
        <time>2022-09-27T05:12:17Z</time>
      </trkpt>
      <trkpt lat="43.62408" lon="1.34693">
        <ele>155</ele>
        <time>2022-09-27T05:12:20Z</time>
      </trkpt>
      <trkpt lat="43.62433" lon="1.3469">
        <ele>154.8</ele>
        <time>2022-09-27T05:12:24Z</time>
      </trkpt>
      <trkpt lat="43.62489" lon="1.34691">
        <ele>154.6</ele>
        <time>2022-09-27T05:12:33Z</time>
      </trkpt>
      <trkpt lat="43.62498" lon="1.347">
        <ele>154.6</ele>
        <time>2022-09-27T05:12:35Z</time>
      </trkpt>
      <trkpt lat="43.62502" lon="1.34707">
        <ele>154.6</ele>
        <time>2022-09-27T05:12:36Z</time>
      </trkpt>
      <trkpt lat="43.62504" lon="1.34713">
        <ele>154.6</ele>
        <time>2022-09-27T05:12:37Z</time>
      </trkpt>
      <trkpt lat="43.62509" lon="1.34731">
        <ele>154.4</ele>
        <time>2022-09-27T05:12:40Z</time>
      </trkpt>
      <trkpt lat="43.62509" lon="1.34746">
        <ele>154.2</ele>
        <time>2022-09-27T05:12:44Z</time>
      </trkpt>
      <trkpt lat="43.6251" lon="1.34746">
        <ele>154</ele>
        <time>2022-09-27T05:12:47Z</time>
      </trkpt>
      <trkpt lat="43.6251" lon="1.34749">
        <ele>153.4</ele>
        <time>2022-09-27T05:13:01Z</time>
      </trkpt>
      <trkpt lat="43.62511" lon="1.34755">
        <ele>153.4</ele>
        <time>2022-09-27T05:13:03Z</time>
      </trkpt>
      <trkpt lat="43.62508" lon="1.34764">
        <ele>153.4</ele>
        <time>2022-09-27T05:13:05Z</time>
      </trkpt>
      <trkpt lat="43.625" lon="1.34773">
        <ele>153.4</ele>
        <time>2022-09-27T05:13:08Z</time>
      </trkpt>
      <trkpt lat="43.62479" lon="1.34773">
        <ele>153</ele>
        <time>2022-09-27T05:13:13Z</time>
      </trkpt>
      <trkpt lat="43.62459" lon="1.34777">
        <ele>153.4</ele>
        <time>2022-09-27T05:13:18Z</time>
      </trkpt>
      <trkpt lat="43.6245" lon="1.34779">
        <ele>153.6</ele>
        <time>2022-09-27T05:13:20Z</time>
      </trkpt>
      <trkpt lat="43.62436" lon="1.34781">
        <ele>153.6</ele>
        <time>2022-09-27T05:13:23Z</time>
      </trkpt>
      <trkpt lat="43.62405" lon="1.34783">
        <ele>154.2</ele>
        <time>2022-09-27T05:13:29Z</time>
      </trkpt>
      <trkpt lat="43.62368" lon="1.34784">
        <ele>154.6</ele>
        <time>2022-09-27T05:13:35Z</time>
      </trkpt>
      <trkpt lat="43.62362" lon="1.34785">
        <ele>154.8</ele>
        <time>2022-09-27T05:13:36Z</time>
      </trkpt>
      <trkpt lat="43.62356" lon="1.34787">
        <ele>154.8</ele>
        <time>2022-09-27T05:13:37Z</time>
      </trkpt>
      <trkpt lat="43.62343" lon="1.34793">
        <ele>154.8</ele>
        <time>2022-09-27T05:13:39Z</time>
      </trkpt>
      <trkpt lat="43.62338" lon="1.34797">
        <ele>154.8</ele>
        <time>2022-09-27T05:13:40Z</time>
      </trkpt>
      <trkpt lat="43.62304" lon="1.34828">
        <ele>154.8</ele>
        <time>2022-09-27T05:13:46Z</time>
      </trkpt>
      <trkpt lat="43.62264" lon="1.3487">
        <ele>154.4</ele>
        <time>2022-09-27T05:13:54Z</time>
      </trkpt>
      <trkpt lat="43.6226" lon="1.34877">
        <ele>154.2</ele>
        <time>2022-09-27T05:13:56Z</time>
      </trkpt>
      <trkpt lat="43.6226" lon="1.34881">
        <ele>154</ele>
        <time>2022-09-27T05:13:57Z</time>
      </trkpt>
      <trkpt lat="43.62259" lon="1.34896">
        <ele>153.8</ele>
        <time>2022-09-27T05:14:00Z</time>
      </trkpt>
      <trkpt lat="43.62259" lon="1.34909">
        <ele>153.8</ele>
        <time>2022-09-27T05:14:02Z</time>
      </trkpt>
      <trkpt lat="43.62259" lon="1.34938">
        <ele>153.2</ele>
        <time>2022-09-27T05:14:06Z</time>
      </trkpt>
      <trkpt lat="43.6226" lon="1.34962">
        <ele>153</ele>
        <time>2022-09-27T05:14:09Z</time>
      </trkpt>
      <trkpt lat="43.62261" lon="1.3497">
        <ele>152.8</ele>
        <time>2022-09-27T05:14:10Z</time>
      </trkpt>
      <trkpt lat="43.62262" lon="1.35034">
        <ele>152.4</ele>
        <time>2022-09-27T05:14:18Z</time>
      </trkpt>
      <trkpt lat="43.62264" lon="1.35113">
        <ele>152.2</ele>
        <time>2022-09-27T05:14:28Z</time>
      </trkpt>
      <trkpt lat="43.62265" lon="1.35127">
        <ele>152.2</ele>
        <time>2022-09-27T05:14:30Z</time>
      </trkpt>
      <trkpt lat="43.62267" lon="1.35157">
        <ele>152</ele>
        <time>2022-09-27T05:14:35Z</time>
      </trkpt>
      <trkpt lat="43.6227" lon="1.35155">
        <ele>151.8</ele>
        <time>2022-09-27T05:14:37Z</time>
      </trkpt>
      <trkpt lat="43.6227" lon="1.35155">
        <ele>152</ele>
        <time>2022-09-27T05:14:39Z</time>
      </trkpt>
      <trkpt lat="43.6227" lon="1.3516">
        <ele>151.6</ele>
        <time>2022-09-27T05:23:52Z</time>
      </trkpt>
      <trkpt lat="43.62269" lon="1.35176">
        <ele>151.6</ele>
        <time>2022-09-27T05:23:57Z</time>
      </trkpt>
      <trkpt lat="43.62268" lon="1.35197">
        <ele>151.8</ele>
        <time>2022-09-27T05:24:02Z</time>
      </trkpt>
      <trkpt lat="43.62273" lon="1.35223">
        <ele>152</ele>
        <time>2022-09-27T05:24:08Z</time>
      </trkpt>
      <trkpt lat="43.62282" lon="1.35231">
        <ele>152</ele>
        <time>2022-09-27T05:24:12Z</time>
      </trkpt>
      <trkpt lat="43.62283" lon="1.35233">
        <ele>152</ele>
        <time>2022-09-27T05:24:13Z</time>
      </trkpt>
      <trkpt lat="43.62285" lon="1.35237">
        <ele>152</ele>
        <time>2022-09-27T05:24:18Z</time>
      </trkpt>
      <trkpt lat="43.62286" lon="1.35241">
        <ele>152</ele>
        <time>2022-09-27T05:24:25Z</time>
      </trkpt>
      <trkpt lat="43.62286" lon="1.35243">
        <ele>152</ele>
        <time>2022-09-27T05:24:27Z</time>
      </trkpt>
      <trkpt lat="43.62285" lon="1.35244">
        <ele>152</ele>
        <time>2022-09-27T05:24:29Z</time>
      </trkpt>
      <trkpt lat="43.62286" lon="1.35244">
        <ele>152.2</ele>
        <time>2022-09-27T05:24:33Z</time>
      </trkpt>
      <trkpt lat="43.62285" lon="1.35171">
        <ele>141.6</ele>
        <time>2022-09-27T14:35:44Z</time>
      </trkpt>
      <trkpt lat="43.62266" lon="1.35168">
        <ele>141.2</ele>
        <time>2022-09-27T14:35:45Z</time>
      </trkpt>
      <trkpt lat="43.62265" lon="1.35168">
        <ele>141</ele>
        <time>2022-09-27T14:35:46Z</time>
      </trkpt>
      <trkpt lat="43.62266" lon="1.35166">
        <ele>140.8</ele>
        <time>2022-09-27T14:35:47Z</time>
      </trkpt>
      <trkpt lat="43.62267" lon="1.35164">
        <ele>140.4</ele>
        <time>2022-09-27T14:35:49Z</time>
      </trkpt>
      <trkpt lat="43.62265" lon="1.35139">
        <ele>141</ele>
        <time>2022-09-27T14:55:24Z</time>
      </trkpt>
      <trkpt lat="43.62264" lon="1.35136">
        <ele>141</ele>
        <time>2022-09-27T14:55:25Z</time>
      </trkpt>
      <trkpt lat="43.62262" lon="1.35111">
        <ele>141.2</ele>
        <time>2022-09-27T14:55:30Z</time>
      </trkpt>
      <trkpt lat="43.62262" lon="1.35084">
        <ele>141.6</ele>
        <time>2022-09-27T14:55:35Z</time>
      </trkpt>
      <trkpt lat="43.62261" lon="1.35063">
        <ele>141.8</ele>
        <time>2022-09-27T14:55:39Z</time>
      </trkpt>
      <trkpt lat="43.62261" lon="1.35047">
        <ele>142.2</ele>
        <time>2022-09-27T14:55:42Z</time>
      </trkpt>
      <trkpt lat="43.62261" lon="1.35003">
        <ele>142.8</ele>
        <time>2022-09-27T14:55:51Z</time>
      </trkpt>
      <trkpt lat="43.62261" lon="1.34992">
        <ele>143</ele>
        <time>2022-09-27T14:55:53Z</time>
      </trkpt>
      <trkpt lat="43.62262" lon="1.34946">
        <ele>143.2</ele>
        <time>2022-09-27T14:56:00Z</time>
      </trkpt>
      <trkpt lat="43.6226" lon="1.34901">
        <ele>143.2</ele>
        <time>2022-09-27T14:56:07Z</time>
      </trkpt>
      <trkpt lat="43.62259" lon="1.34881">
        <ele>143.2</ele>
        <time>2022-09-27T14:56:10Z</time>
      </trkpt>
      <trkpt lat="43.62261" lon="1.3487">
        <ele>143.6</ele>
        <time>2022-09-27T14:56:13Z</time>
      </trkpt>
      <trkpt lat="43.62271" lon="1.34861">
        <ele>143.8</ele>
        <time>2022-09-27T14:56:17Z</time>
      </trkpt>
      <trkpt lat="43.62275" lon="1.34856">
        <ele>144</ele>
        <time>2022-09-27T14:56:18Z</time>
      </trkpt>
      <trkpt lat="43.62293" lon="1.3484">
        <ele>144.2</ele>
        <time>2022-09-27T14:56:23Z</time>
      </trkpt>
      <trkpt lat="43.62328" lon="1.34805">
        <ele>145</ele>
        <time>2022-09-27T14:56:32Z</time>
      </trkpt>
      <trkpt lat="43.62332" lon="1.34801">
        <ele>145</ele>
        <time>2022-09-27T14:56:33Z</time>
      </trkpt>
      <trkpt lat="43.62349" lon="1.34789">
        <ele>145.4</ele>
        <time>2022-09-27T14:56:37Z</time>
      </trkpt>
      <trkpt lat="43.62359" lon="1.34786">
        <ele>145.4</ele>
        <time>2022-09-27T14:56:39Z</time>
      </trkpt>
      <trkpt lat="43.62383" lon="1.34784">
        <ele>146</ele>
        <time>2022-09-27T14:56:44Z</time>
      </trkpt>
      <trkpt lat="43.62395" lon="1.34783">
        <ele>146.2</ele>
        <time>2022-09-27T14:56:46Z</time>
      </trkpt>
      <trkpt lat="43.62404" lon="1.34782">
        <ele>146.4</ele>
        <time>2022-09-27T14:56:48Z</time>
      </trkpt>
      <trkpt lat="43.62417" lon="1.34777">
        <ele>146.6</ele>
        <time>2022-09-27T14:56:51Z</time>
      </trkpt>
      <trkpt lat="43.62425" lon="1.34775">
        <ele>146.6</ele>
        <time>2022-09-27T14:56:53Z</time>
      </trkpt>
      <trkpt lat="43.6244" lon="1.34776">
        <ele>146.6</ele>
        <time>2022-09-27T14:56:57Z</time>
      </trkpt>
      <trkpt lat="43.62455" lon="1.34776">
        <ele>146.6</ele>
        <time>2022-09-27T14:57:01Z</time>
      </trkpt>
      <trkpt lat="43.62459" lon="1.34777">
        <ele>146.6</ele>
        <time>2022-09-27T14:57:02Z</time>
      </trkpt>
      <trkpt lat="43.62465" lon="1.34784">
        <ele>146.4</ele>
        <time>2022-09-27T14:57:04Z</time>
      </trkpt>
      <trkpt lat="43.62485" lon="1.34787">
        <ele>146.2</ele>
        <time>2022-09-27T14:57:07Z</time>
      </trkpt>
      <trkpt lat="43.62497" lon="1.3479">
        <ele>146</ele>
        <time>2022-09-27T14:57:09Z</time>
      </trkpt>
      <trkpt lat="43.62515" lon="1.34785">
        <ele>145.8</ele>
        <time>2022-09-27T14:57:11Z</time>
      </trkpt>
      <trkpt lat="43.62525" lon="1.34772">
        <ele>145.4</ele>
        <time>2022-09-27T14:57:13Z</time>
      </trkpt>
      <trkpt lat="43.62527" lon="1.34756">
        <ele>145.2</ele>
        <time>2022-09-27T14:57:15Z</time>
      </trkpt>
      <trkpt lat="43.62527" lon="1.34751">
        <ele>145.2</ele>
        <time>2022-09-27T14:57:17Z</time>
      </trkpt>
      <trkpt lat="43.62529" lon="1.34742">
        <ele>145</ele>
        <time>2022-09-27T14:57:20Z</time>
      </trkpt>
      <trkpt lat="43.62529" lon="1.34742">
        <ele>144.8</ele>
        <time>2022-09-27T14:57:21Z</time>
      </trkpt>
      <trkpt lat="43.62529" lon="1.34742">
        <ele>144.8</ele>
        <time>2022-09-27T14:57:22Z</time>
      </trkpt>
      <trkpt lat="43.62531" lon="1.34734">
        <ele>144.4</ele>
        <time>2022-09-27T14:57:29Z</time>
      </trkpt>
      <trkpt lat="43.62533" lon="1.34728">
        <ele>144.2</ele>
        <time>2022-09-27T14:57:31Z</time>
      </trkpt>
      <trkpt lat="43.62534" lon="1.34719">
        <ele>144</ele>
        <time>2022-09-27T14:57:34Z</time>
      </trkpt>
      <trkpt lat="43.62538" lon="1.34705">
        <ele>144</ele>
        <time>2022-09-27T14:57:38Z</time>
      </trkpt>
      <trkpt lat="43.62544" lon="1.34683">
        <ele>143.8</ele>
        <time>2022-09-27T14:57:43Z</time>
      </trkpt>
      <trkpt lat="43.62546" lon="1.34675">
        <ele>143.8</ele>
        <time>2022-09-27T14:57:46Z</time>
      </trkpt>
      <trkpt lat="43.62547" lon="1.3467">
        <ele>143.8</ele>
        <time>2022-09-27T14:57:47Z</time>
      </trkpt>
      <trkpt lat="43.62549" lon="1.34661">
        <ele>143.8</ele>
        <time>2022-09-27T14:57:49Z</time>
      </trkpt>
      <trkpt lat="43.6255" lon="1.34659">
        <ele>143.8</ele>
        <time>2022-09-27T14:57:50Z</time>
      </trkpt>
      <trkpt lat="43.62552" lon="1.34657">
        <ele>143.8</ele>
        <time>2022-09-27T14:57:51Z</time>
      </trkpt>
      <trkpt lat="43.62561" lon="1.34658">
        <ele>144</ele>
        <time>2022-09-27T14:57:53Z</time>
      </trkpt>
      <trkpt lat="43.62593" lon="1.3466">
        <ele>144.2</ele>
        <time>2022-09-27T14:57:59Z</time>
      </trkpt>
      <trkpt lat="43.62627" lon="1.34658">
        <ele>144.4</ele>
        <time>2022-09-27T14:58:05Z</time>
      </trkpt>
      <trkpt lat="43.62677" lon="1.34655">
        <ele>144.6</ele>
        <time>2022-09-27T14:58:13Z</time>
      </trkpt>
      <trkpt lat="43.62718" lon="1.34653">
        <ele>144.6</ele>
        <time>2022-09-27T14:58:20Z</time>
      </trkpt>
      <trkpt lat="43.6273" lon="1.34652">
        <ele>144.4</ele>
        <time>2022-09-27T14:58:22Z</time>
      </trkpt>
      <trkpt lat="43.62785" lon="1.34649">
        <ele>144.2</ele>
        <time>2022-09-27T14:58:31Z</time>
      </trkpt>
      <trkpt lat="43.62822" lon="1.34648">
        <ele>144.2</ele>
        <time>2022-09-27T14:58:37Z</time>
      </trkpt>
      <trkpt lat="43.62866" lon="1.34647">
        <ele>144</ele>
        <time>2022-09-27T14:58:44Z</time>
      </trkpt>
      <trkpt lat="43.6291" lon="1.34639">
        <ele>144</ele>
        <time>2022-09-27T14:58:51Z</time>
      </trkpt>
      <trkpt lat="43.62946" lon="1.3462">
        <ele>144.2</ele>
        <time>2022-09-27T14:58:57Z</time>
      </trkpt>
      <trkpt lat="43.62956" lon="1.34612">
        <ele>144.2</ele>
        <time>2022-09-27T14:58:59Z</time>
      </trkpt>
      <trkpt lat="43.62965" lon="1.34608">
        <ele>144.2</ele>
        <time>2022-09-27T14:59:01Z</time>
      </trkpt>
      <trkpt lat="43.62976" lon="1.34604">
        <ele>144.2</ele>
        <time>2022-09-27T14:59:03Z</time>
      </trkpt>
      <trkpt lat="43.62978" lon="1.346">
        <ele>144.2</ele>
        <time>2022-09-27T14:59:04Z</time>
      </trkpt>
      <trkpt lat="43.62979" lon="1.3457">
        <ele>144</ele>
        <time>2022-09-27T14:59:09Z</time>
      </trkpt>
      <trkpt lat="43.62981" lon="1.34519">
        <ele>143.8</ele>
        <time>2022-09-27T14:59:16Z</time>
      </trkpt>
      <trkpt lat="43.62987" lon="1.34439">
        <ele>143.8</ele>
        <time>2022-09-27T14:59:27Z</time>
      </trkpt>
      <trkpt lat="43.62989" lon="1.34418">
        <ele>144</ele>
        <time>2022-09-27T14:59:30Z</time>
      </trkpt>
      <trkpt lat="43.62995" lon="1.34403">
        <ele>144.2</ele>
        <time>2022-09-27T14:59:32Z</time>
      </trkpt>
      <trkpt lat="43.63001" lon="1.34392">
        <ele>144.4</ele>
        <time>2022-09-27T14:59:34Z</time>
      </trkpt>
      <trkpt lat="43.63011" lon="1.34384">
        <ele>144.6</ele>
        <time>2022-09-27T14:59:36Z</time>
      </trkpt>
      <trkpt lat="43.63022" lon="1.34381">
        <ele>144.8</ele>
        <time>2022-09-27T14:59:38Z</time>
      </trkpt>
      <trkpt lat="43.63032" lon="1.3438">
        <ele>144.8</ele>
        <time>2022-09-27T14:59:40Z</time>
      </trkpt>
      <trkpt lat="43.63044" lon="1.3438">
        <ele>145</ele>
        <time>2022-09-27T14:59:42Z</time>
      </trkpt>
      <trkpt lat="43.63054" lon="1.34381">
        <ele>145</ele>
        <time>2022-09-27T14:59:44Z</time>
      </trkpt>
      <trkpt lat="43.63089" lon="1.34383">
        <ele>145.8</ele>
        <time>2022-09-27T14:59:50Z</time>
      </trkpt>
      <trkpt lat="43.63125" lon="1.34385">
        <ele>146.2</ele>
        <time>2022-09-27T14:59:56Z</time>
      </trkpt>
      <trkpt lat="43.63161" lon="1.34387">
        <ele>146.6</ele>
        <time>2022-09-27T15:00:02Z</time>
      </trkpt>
      <trkpt lat="43.63208" lon="1.34392">
        <ele>146.8</ele>
        <time>2022-09-27T15:00:10Z</time>
      </trkpt>
      <trkpt lat="43.63262" lon="1.34393">
        <ele>147</ele>
        <time>2022-09-27T15:00:19Z</time>
      </trkpt>
      <trkpt lat="43.63297" lon="1.34394">
        <ele>147</ele>
        <time>2022-09-27T15:00:25Z</time>
      </trkpt>
      <trkpt lat="43.63333" lon="1.34397">
        <ele>147.2</ele>
        <time>2022-09-27T15:00:31Z</time>
      </trkpt>
      <trkpt lat="43.63346" lon="1.344">
        <ele>147.4</ele>
        <time>2022-09-27T15:00:33Z</time>
      </trkpt>
      <trkpt lat="43.63386" lon="1.34414">
        <ele>147.2</ele>
        <time>2022-09-27T15:00:39Z</time>
      </trkpt>
      <trkpt lat="43.63433" lon="1.34437">
        <ele>147</ele>
        <time>2022-09-27T15:00:46Z</time>
      </trkpt>
      <trkpt lat="43.6346" lon="1.34452">
        <ele>146.6</ele>
        <time>2022-09-27T15:00:50Z</time>
      </trkpt>
      <trkpt lat="43.63471" lon="1.34464">
        <ele>146.4</ele>
        <time>2022-09-27T15:00:52Z</time>
      </trkpt>
      <trkpt lat="43.63475" lon="1.34473">
        <ele>146.2</ele>
        <time>2022-09-27T15:00:53Z</time>
      </trkpt>
      <trkpt lat="43.63476" lon="1.34482">
        <ele>146.2</ele>
        <time>2022-09-27T15:00:54Z</time>
      </trkpt>
      <trkpt lat="43.63476" lon="1.34492">
        <ele>146.2</ele>
        <time>2022-09-27T15:00:55Z</time>
      </trkpt>
      <trkpt lat="43.63474" lon="1.34502">
        <ele>146</ele>
        <time>2022-09-27T15:00:56Z</time>
      </trkpt>
      <trkpt lat="43.63465" lon="1.34529">
        <ele>146</ele>
        <time>2022-09-27T15:00:59Z</time>
      </trkpt>
      <trkpt lat="43.63462" lon="1.34535">
        <ele>145.8</ele>
        <time>2022-09-27T15:01:00Z</time>
      </trkpt>
      <trkpt lat="43.63443" lon="1.34567">
        <ele>145.4</ele>
        <time>2022-09-27T15:01:04Z</time>
      </trkpt>
      <trkpt lat="43.6344" lon="1.34576">
        <ele>145</ele>
        <time>2022-09-27T15:01:05Z</time>
      </trkpt>
      <trkpt lat="43.6344" lon="1.34586">
        <ele>144.8</ele>
        <time>2022-09-27T15:01:06Z</time>
      </trkpt>
      <trkpt lat="43.63444" lon="1.34599">
        <ele>144.6</ele>
        <time>2022-09-27T15:01:07Z</time>
      </trkpt>
      <trkpt lat="43.63448" lon="1.34608">
        <ele>144.6</ele>
        <time>2022-09-27T15:01:08Z</time>
      </trkpt>
      <trkpt lat="43.63455" lon="1.34621">
        <ele>144.4</ele>
        <time>2022-09-27T15:01:10Z</time>
      </trkpt>
      <trkpt lat="43.63468" lon="1.34627">
        <ele>144.4</ele>
        <time>2022-09-27T15:01:12Z</time>
      </trkpt>
      <trkpt lat="43.63504" lon="1.34626">
        <ele>144.2</ele>
        <time>2022-09-27T15:01:17Z</time>
      </trkpt>
      <trkpt lat="43.63513" lon="1.34625">
        <ele>144</ele>
        <time>2022-09-27T15:01:18Z</time>
      </trkpt>
      <trkpt lat="43.6357" lon="1.34621">
        <ele>143.6</ele>
        <time>2022-09-27T15:01:26Z</time>
      </trkpt>
      <trkpt lat="43.63629" lon="1.3462">
        <ele>143.2</ele>
        <time>2022-09-27T15:01:34Z</time>
      </trkpt>
      <trkpt lat="43.63651" lon="1.3462">
        <ele>143.2</ele>
        <time>2022-09-27T15:01:37Z</time>
      </trkpt>
      <trkpt lat="43.6368" lon="1.34622">
        <ele>142.8</ele>
        <time>2022-09-27T15:01:41Z</time>
      </trkpt>
      <trkpt lat="43.6373" lon="1.34623">
        <ele>142.6</ele>
        <time>2022-09-27T15:01:48Z</time>
      </trkpt>
      <trkpt lat="43.63785" lon="1.34621">
        <ele>142.2</ele>
        <time>2022-09-27T15:01:56Z</time>
      </trkpt>
      <trkpt lat="43.63799" lon="1.34618">
        <ele>142.2</ele>
        <time>2022-09-27T15:01:58Z</time>
      </trkpt>
      <trkpt lat="43.63851" lon="1.34599">
        <ele>142</ele>
        <time>2022-09-27T15:02:06Z</time>
      </trkpt>
      <trkpt lat="43.63857" lon="1.34596">
        <ele>142</ele>
        <time>2022-09-27T15:02:07Z</time>
      </trkpt>
      <trkpt lat="43.63903" lon="1.34568">
        <ele>142.4</ele>
        <time>2022-09-27T15:02:15Z</time>
      </trkpt>
      <trkpt lat="43.63949" lon="1.34528">
        <ele>142.8</ele>
        <time>2022-09-27T15:02:24Z</time>
      </trkpt>
      <trkpt lat="43.63996" lon="1.34477">
        <ele>143.2</ele>
        <time>2022-09-27T15:02:34Z</time>
      </trkpt>
      <trkpt lat="43.64037" lon="1.34429">
        <ele>143.6</ele>
        <time>2022-09-27T15:02:43Z</time>
      </trkpt>
      <trkpt lat="43.64046" lon="1.34418">
        <ele>143.6</ele>
        <time>2022-09-27T15:02:45Z</time>
      </trkpt>
      <trkpt lat="43.6405" lon="1.34412">
        <ele>143.8</ele>
        <time>2022-09-27T15:02:46Z</time>
      </trkpt>
      <trkpt lat="43.64056" lon="1.34401">
        <ele>143.8</ele>
        <time>2022-09-27T15:02:48Z</time>
      </trkpt>
      <trkpt lat="43.64059" lon="1.34396">
        <ele>143.8</ele>
        <time>2022-09-27T15:02:49Z</time>
      </trkpt>
      <trkpt lat="43.6407" lon="1.34383">
        <ele>144</ele>
        <time>2022-09-27T15:02:52Z</time>
      </trkpt>
      <trkpt lat="43.64086" lon="1.34365">
        <ele>144</ele>
        <time>2022-09-27T15:02:56Z</time>
      </trkpt>
      <trkpt lat="43.64123" lon="1.34321">
        <ele>144.6</ele>
        <time>2022-09-27T15:03:05Z</time>
      </trkpt>
      <trkpt lat="43.64152" lon="1.34287">
        <ele>145</ele>
        <time>2022-09-27T15:03:12Z</time>
      </trkpt>
      <trkpt lat="43.64165" lon="1.34271">
        <ele>145.2</ele>
        <time>2022-09-27T15:03:15Z</time>
      </trkpt>
      <trkpt lat="43.64209" lon="1.34219">
        <ele>145.6</ele>
        <time>2022-09-27T15:03:25Z</time>
      </trkpt>
      <trkpt lat="43.64214" lon="1.34213">
        <ele>145.6</ele>
        <time>2022-09-27T15:03:26Z</time>
      </trkpt>
      <trkpt lat="43.64241" lon="1.34168">
        <ele>145.8</ele>
        <time>2022-09-27T15:03:33Z</time>
      </trkpt>
      <trkpt lat="43.64273" lon="1.34104">
        <ele>146</ele>
        <time>2022-09-27T15:03:42Z</time>
      </trkpt>
      <trkpt lat="43.64276" lon="1.34097">
        <ele>146</ele>
        <time>2022-09-27T15:03:43Z</time>
      </trkpt>
      <trkpt lat="43.64291" lon="1.34068">
        <ele>146.2</ele>
        <time>2022-09-27T15:03:47Z</time>
      </trkpt>
      <trkpt lat="43.64323" lon="1.34004">
        <ele>146.2</ele>
        <time>2022-09-27T15:03:56Z</time>
      </trkpt>
      <trkpt lat="43.64356" lon="1.33937">
        <ele>146.4</ele>
        <time>2022-09-27T15:04:05Z</time>
      </trkpt>
      <trkpt lat="43.64359" lon="1.3393">
        <ele>146.4</ele>
        <time>2022-09-27T15:04:06Z</time>
      </trkpt>
      <trkpt lat="43.64392" lon="1.33867">
        <ele>146.6</ele>
        <time>2022-09-27T15:04:15Z</time>
      </trkpt>
      <trkpt lat="43.64412" lon="1.33827">
        <ele>146.6</ele>
        <time>2022-09-27T15:04:21Z</time>
      </trkpt>
      <trkpt lat="43.64418" lon="1.33813">
        <ele>146.6</ele>
        <time>2022-09-27T15:04:23Z</time>
      </trkpt>
      <trkpt lat="43.64425" lon="1.33798">
        <ele>146.6</ele>
        <time>2022-09-27T15:04:25Z</time>
      </trkpt>
      <trkpt lat="43.64431" lon="1.33782">
        <ele>146.6</ele>
        <time>2022-09-27T15:04:27Z</time>
      </trkpt>
      <trkpt lat="43.64434" lon="1.33774">
        <ele>146.6</ele>
        <time>2022-09-27T15:04:28Z</time>
      </trkpt>
      <trkpt lat="43.64452" lon="1.33708">
        <ele>146.8</ele>
        <time>2022-09-27T15:04:37Z</time>
      </trkpt>
      <trkpt lat="43.64462" lon="1.3367">
        <ele>147</ele>
        <time>2022-09-27T15:04:43Z</time>
      </trkpt>
      <trkpt lat="43.64467" lon="1.33656">
        <ele>147</ele>
        <time>2022-09-27T15:04:44Z</time>
      </trkpt>
      <trkpt lat="43.64472" lon="1.33642">
        <ele>147</ele>
        <time>2022-09-27T15:04:46Z</time>
      </trkpt>
      <trkpt lat="43.64474" lon="1.33634">
        <ele>147.2</ele>
        <time>2022-09-27T15:04:47Z</time>
      </trkpt>
      <trkpt lat="43.64477" lon="1.33619">
        <ele>147.2</ele>
        <time>2022-09-27T15:04:49Z</time>
      </trkpt>
      <trkpt lat="43.64481" lon="1.33604">
        <ele>147.4</ele>
        <time>2022-09-27T15:04:51Z</time>
      </trkpt>
      <trkpt lat="43.64485" lon="1.33591">
        <ele>147.4</ele>
        <time>2022-09-27T15:04:53Z</time>
      </trkpt>
      <trkpt lat="43.64492" lon="1.33566">
        <ele>147.8</ele>
        <time>2022-09-27T15:04:57Z</time>
      </trkpt>
      <trkpt lat="43.64494" lon="1.3356">
        <ele>148</ele>
        <time>2022-09-27T15:04:58Z</time>
      </trkpt>
      <trkpt lat="43.64495" lon="1.33555">
        <ele>148.2</ele>
        <time>2022-09-27T15:04:59Z</time>
      </trkpt>
      <trkpt lat="43.64497" lon="1.33545">
        <ele>148.8</ele>
        <time>2022-09-27T15:05:01Z</time>
      </trkpt>
      <trkpt lat="43.64501" lon="1.33524">
        <ele>149.4</ele>
        <time>2022-09-27T15:05:05Z</time>
      </trkpt>
      <trkpt lat="43.64505" lon="1.33508">
        <ele>150</ele>
        <time>2022-09-27T15:05:08Z</time>
      </trkpt>
      <trkpt lat="43.64509" lon="1.33499">
        <ele>150.4</ele>
        <time>2022-09-27T15:05:10Z</time>
      </trkpt>
      <trkpt lat="43.64512" lon="1.33487">
        <ele>150.8</ele>
        <time>2022-09-27T15:05:13Z</time>
      </trkpt>
      <trkpt lat="43.64514" lon="1.33483">
        <ele>151.4</ele>
        <time>2022-09-27T15:05:15Z</time>
      </trkpt>
      <trkpt lat="43.64515" lon="1.33481">
        <ele>151.6</ele>
        <time>2022-09-27T15:05:16Z</time>
      </trkpt>
      <trkpt lat="43.64518" lon="1.33479">
        <ele>151.8</ele>
        <time>2022-09-27T15:05:17Z</time>
      </trkpt>
      <trkpt lat="43.6452" lon="1.33476">
        <ele>152.2</ele>
        <time>2022-09-27T15:05:19Z</time>
      </trkpt>
      <trkpt lat="43.64521" lon="1.33468">
        <ele>152.6</ele>
        <time>2022-09-27T15:05:21Z</time>
      </trkpt>
      <trkpt lat="43.64523" lon="1.33444">
        <ele>153.2</ele>
        <time>2022-09-27T15:05:26Z</time>
      </trkpt>
      <trkpt lat="43.64524" lon="1.33439">
        <ele>153.2</ele>
        <time>2022-09-27T15:05:27Z</time>
      </trkpt>
      <trkpt lat="43.6453" lon="1.33418">
        <ele>154.4</ele>
        <time>2022-09-27T15:05:32Z</time>
      </trkpt>
      <trkpt lat="43.64531" lon="1.33413">
        <ele>154.8</ele>
        <time>2022-09-27T15:05:33Z</time>
      </trkpt>
      <trkpt lat="43.64536" lon="1.33398">
        <ele>155.4</ele>
        <time>2022-09-27T15:05:36Z</time>
      </trkpt>
      <trkpt lat="43.64539" lon="1.3339">
        <ele>156</ele>
        <time>2022-09-27T15:05:38Z</time>
      </trkpt>
      <trkpt lat="43.64543" lon="1.3338">
        <ele>156.4</ele>
        <time>2022-09-27T15:05:40Z</time>
      </trkpt>
      <trkpt lat="43.6455" lon="1.33357">
        <ele>157.6</ele>
        <time>2022-09-27T15:05:45Z</time>
      </trkpt>
      <trkpt lat="43.64557" lon="1.3334">
        <ele>158.6</ele>
        <time>2022-09-27T15:05:49Z</time>
      </trkpt>
      <trkpt lat="43.64561" lon="1.3333">
        <ele>159.2</ele>
        <time>2022-09-27T15:05:51Z</time>
      </trkpt>
      <trkpt lat="43.64567" lon="1.33315">
        <ele>159.8</ele>
        <time>2022-09-27T15:05:54Z</time>
      </trkpt>
      <trkpt lat="43.64576" lon="1.33297">
        <ele>161</ele>
        <time>2022-09-27T15:05:58Z</time>
      </trkpt>
      <trkpt lat="43.64578" lon="1.33294">
        <ele>161</ele>
        <time>2022-09-27T15:05:59Z</time>
      </trkpt>
      <trkpt lat="43.64591" lon="1.3327">
        <ele>162</ele>
        <time>2022-09-27T15:06:04Z</time>
      </trkpt>
      <trkpt lat="43.64602" lon="1.33248">
        <ele>162.6</ele>
        <time>2022-09-27T15:06:08Z</time>
      </trkpt>
      <trkpt lat="43.64619" lon="1.33215">
        <ele>163.2</ele>
        <time>2022-09-27T15:06:14Z</time>
      </trkpt>
      <trkpt lat="43.6463" lon="1.3319">
        <ele>163.6</ele>
        <time>2022-09-27T15:06:18Z</time>
      </trkpt>
      <trkpt lat="43.64654" lon="1.33137">
        <ele>163.8</ele>
        <time>2022-09-27T15:06:26Z</time>
      </trkpt>
      <trkpt lat="43.64677" lon="1.33088">
        <ele>164</ele>
        <time>2022-09-27T15:06:33Z</time>
      </trkpt>
      <trkpt lat="43.64685" lon="1.33077">
        <ele>164</ele>
        <time>2022-09-27T15:06:35Z</time>
      </trkpt>
      <trkpt lat="43.64695" lon="1.33069">
        <ele>164</ele>
        <time>2022-09-27T15:06:37Z</time>
      </trkpt>
      <trkpt lat="43.64738" lon="1.33034">
        <ele>163.6</ele>
        <time>2022-09-27T15:06:45Z</time>
      </trkpt>
      <trkpt lat="43.64779" lon="1.32995">
        <ele>163.6</ele>
        <time>2022-09-27T15:06:53Z</time>
      </trkpt>
      <trkpt lat="43.64808" lon="1.32957">
        <ele>163.8</ele>
        <time>2022-09-27T15:06:59Z</time>
      </trkpt>
      <trkpt lat="43.64832" lon="1.3291">
        <ele>163.6</ele>
        <time>2022-09-27T15:07:05Z</time>
      </trkpt>
      <trkpt lat="43.64835" lon="1.329">
        <ele>163.6</ele>
        <time>2022-09-27T15:07:06Z</time>
      </trkpt>
      <trkpt lat="43.64837" lon="1.32889">
        <ele>163.4</ele>
        <time>2022-09-27T15:07:07Z</time>
      </trkpt>
      <trkpt lat="43.6484" lon="1.32851">
        <ele>163</ele>
        <time>2022-09-27T15:07:10Z</time>
      </trkpt>
      <trkpt lat="43.64842" lon="1.32838">
        <ele>162.4</ele>
        <time>2022-09-27T15:07:11Z</time>
      </trkpt>
      <trkpt lat="43.64845" lon="1.32824">
        <ele>162.2</ele>
        <time>2022-09-27T15:07:12Z</time>
      </trkpt>
      <trkpt lat="43.6485" lon="1.32795">
        <ele>161</ele>
        <time>2022-09-27T15:07:14Z</time>
      </trkpt>
      <trkpt lat="43.64855" lon="1.32769">
        <ele>159.8</ele>
        <time>2022-09-27T15:07:16Z</time>
      </trkpt>
      <trkpt lat="43.64858" lon="1.32747">
        <ele>158</ele>
        <time>2022-09-27T15:07:18Z</time>
      </trkpt>
      <trkpt lat="43.64859" lon="1.32726">
        <ele>156.6</ele>
        <time>2022-09-27T15:07:20Z</time>
      </trkpt>
      <trkpt lat="43.64858" lon="1.32717">
        <ele>155.8</ele>
        <time>2022-09-27T15:07:21Z</time>
      </trkpt>
      <trkpt lat="43.64854" lon="1.32709">
        <ele>154.6</ele>
        <time>2022-09-27T15:07:22Z</time>
      </trkpt>
      <trkpt lat="43.64846" lon="1.32693">
        <ele>152.6</ele>
        <time>2022-09-27T15:07:24Z</time>
      </trkpt>
      <trkpt lat="43.64839" lon="1.32675">
        <ele>151.6</ele>
        <time>2022-09-27T15:07:26Z</time>
      </trkpt>
      <trkpt lat="43.64831" lon="1.32654">
        <ele>150.8</ele>
        <time>2022-09-27T15:07:28Z</time>
      </trkpt>
      <trkpt lat="43.64827" lon="1.32643">
        <ele>149.6</ele>
        <time>2022-09-27T15:07:29Z</time>
      </trkpt>
      <trkpt lat="43.64818" lon="1.32621">
        <ele>148.6</ele>
        <time>2022-09-27T15:07:31Z</time>
      </trkpt>
      <trkpt lat="43.64812" lon="1.32608">
        <ele>148.2</ele>
        <time>2022-09-27T15:07:32Z</time>
      </trkpt>
      <trkpt lat="43.64806" lon="1.32596">
        <ele>147.2</ele>
        <time>2022-09-27T15:07:33Z</time>
      </trkpt>
      <trkpt lat="43.64798" lon="1.32571">
        <ele>146</ele>
        <time>2022-09-27T15:07:35Z</time>
      </trkpt>
      <trkpt lat="43.64796" lon="1.32557">
        <ele>145</ele>
        <time>2022-09-27T15:07:36Z</time>
      </trkpt>
      <trkpt lat="43.64795" lon="1.32544">
        <ele>144.6</ele>
        <time>2022-09-27T15:07:37Z</time>
      </trkpt>
      <trkpt lat="43.64795" lon="1.32518">
        <ele>143.4</ele>
        <time>2022-09-27T15:07:39Z</time>
      </trkpt>
      <trkpt lat="43.64794" lon="1.32496">
        <ele>142.4</ele>
        <time>2022-09-27T15:07:41Z</time>
      </trkpt>
      <trkpt lat="43.64794" lon="1.32491">
        <ele>141.6</ele>
        <time>2022-09-27T15:07:42Z</time>
      </trkpt>
      <trkpt lat="43.64792" lon="1.32489">
        <ele>141</ele>
        <time>2022-09-27T15:07:43Z</time>
      </trkpt>
      <trkpt lat="43.64791" lon="1.32496">
        <ele>140.4</ele>
        <time>2022-09-27T15:07:45Z</time>
      </trkpt>
      <trkpt lat="43.64788" lon="1.32505">
        <ele>139.6</ele>
        <time>2022-09-27T15:07:47Z</time>
      </trkpt>
      <trkpt lat="43.64785" lon="1.32507">
        <ele>139.4</ele>
        <time>2022-09-27T15:07:48Z</time>
      </trkpt>
      <trkpt lat="43.64773" lon="1.32506">
        <ele>137.8</ele>
        <time>2022-09-27T15:07:51Z</time>
      </trkpt>
      <trkpt lat="43.64767" lon="1.32504">
        <ele>137.2</ele>
        <time>2022-09-27T15:07:52Z</time>
      </trkpt>
      <trkpt lat="43.64755" lon="1.32501">
        <ele>136.4</ele>
        <time>2022-09-27T15:07:54Z</time>
      </trkpt>
      <trkpt lat="43.64743" lon="1.32498">
        <ele>135.6</ele>
        <time>2022-09-27T15:07:56Z</time>
      </trkpt>
      <trkpt lat="43.64738" lon="1.32495">
        <ele>135.2</ele>
        <time>2022-09-27T15:07:57Z</time>
      </trkpt>
      <trkpt lat="43.64734" lon="1.3249">
        <ele>135</ele>
        <time>2022-09-27T15:07:58Z</time>
      </trkpt>
      <trkpt lat="43.64727" lon="1.32478">
        <ele>134.6</ele>
        <time>2022-09-27T15:08:00Z</time>
      </trkpt>
      <trkpt lat="43.64715" lon="1.32468">
        <ele>134</ele>
        <time>2022-09-27T15:08:02Z</time>
      </trkpt>
      <trkpt lat="43.64703" lon="1.32459">
        <ele>133.4</ele>
        <time>2022-09-27T15:08:04Z</time>
      </trkpt>
      <trkpt lat="43.64685" lon="1.32447">
        <ele>132.8</ele>
        <time>2022-09-27T15:08:07Z</time>
      </trkpt>
      <trkpt lat="43.64657" lon="1.32429">
        <ele>132.4</ele>
        <time>2022-09-27T15:08:12Z</time>
      </trkpt>
      <trkpt lat="43.6461" lon="1.32399">
        <ele>132</ele>
        <time>2022-09-27T15:08:20Z</time>
      </trkpt>
      <trkpt lat="43.64574" lon="1.32365">
        <ele>132.4</ele>
        <time>2022-09-27T15:08:28Z</time>
      </trkpt>
      <trkpt lat="43.64565" lon="1.32361">
        <ele>132.4</ele>
        <time>2022-09-27T15:08:32Z</time>
      </trkpt>
      <trkpt lat="43.6455" lon="1.32352">
        <ele>132.2</ele>
        <time>2022-09-27T15:08:37Z</time>
      </trkpt>
      <trkpt lat="43.64532" lon="1.32343">
        <ele>132.2</ele>
        <time>2022-09-27T15:08:41Z</time>
      </trkpt>
      <trkpt lat="43.64503" lon="1.32327">
        <ele>132.4</ele>
        <time>2022-09-27T15:08:47Z</time>
      </trkpt>
      <trkpt lat="43.64488" lon="1.32319">
        <ele>133</ele>
        <time>2022-09-27T15:08:50Z</time>
      </trkpt>
      <trkpt lat="43.64467" lon="1.32303">
        <ele>133.2</ele>
        <time>2022-09-27T15:08:54Z</time>
      </trkpt>
      <trkpt lat="43.64446" lon="1.32287">
        <ele>133.6</ele>
        <time>2022-09-27T15:08:58Z</time>
      </trkpt>
      <trkpt lat="43.64433" lon="1.32272">
        <ele>133.8</ele>
        <time>2022-09-27T15:09:01Z</time>
      </trkpt>
      <trkpt lat="43.64426" lon="1.32261">
        <ele>133.8</ele>
        <time>2022-09-27T15:09:03Z</time>
      </trkpt>
      <trkpt lat="43.64409" lon="1.32234">
        <ele>134.4</ele>
        <time>2022-09-27T15:09:08Z</time>
      </trkpt>
      <trkpt lat="43.64391" lon="1.32205">
        <ele>134.8</ele>
        <time>2022-09-27T15:09:14Z</time>
      </trkpt>
      <trkpt lat="43.64382" lon="1.3219">
        <ele>135.4</ele>
        <time>2022-09-27T15:09:17Z</time>
      </trkpt>
      <trkpt lat="43.64377" lon="1.32181">
        <ele>135.8</ele>
        <time>2022-09-27T15:09:19Z</time>
      </trkpt>
      <trkpt lat="43.64375" lon="1.32176">
        <ele>136</ele>
        <time>2022-09-27T15:09:20Z</time>
      </trkpt>
      <trkpt lat="43.64372" lon="1.3217">
        <ele>136.4</ele>
        <time>2022-09-27T15:09:21Z</time>
      </trkpt>
      <trkpt lat="43.64366" lon="1.3216">
        <ele>136.8</ele>
        <time>2022-09-27T15:09:23Z</time>
      </trkpt>
      <trkpt lat="43.64361" lon="1.32149">
        <ele>137.2</ele>
        <time>2022-09-27T15:09:25Z</time>
      </trkpt>
      <trkpt lat="43.64341" lon="1.3211">
        <ele>138</ele>
        <time>2022-09-27T15:09:32Z</time>
      </trkpt>
      <trkpt lat="43.64335" lon="1.32098">
        <ele>138.4</ele>
        <time>2022-09-27T15:09:34Z</time>
      </trkpt>
      <trkpt lat="43.64316" lon="1.32052">
        <ele>138.8</ele>
        <time>2022-09-27T15:09:41Z</time>
      </trkpt>
      <trkpt lat="43.64299" lon="1.32004">
        <ele>139.2</ele>
        <time>2022-09-27T15:09:48Z</time>
      </trkpt>
      <trkpt lat="43.64291" lon="1.31983">
        <ele>139.4</ele>
        <time>2022-09-27T15:09:51Z</time>
      </trkpt>
      <trkpt lat="43.64283" lon="1.31957">
        <ele>139.6</ele>
        <time>2022-09-27T15:09:55Z</time>
      </trkpt>
      <trkpt lat="43.64281" lon="1.3195">
        <ele>139.6</ele>
        <time>2022-09-27T15:09:56Z</time>
      </trkpt>
      <trkpt lat="43.64277" lon="1.31937">
        <ele>139.8</ele>
        <time>2022-09-27T15:09:58Z</time>
      </trkpt>
      <trkpt lat="43.64274" lon="1.31931">
        <ele>139.8</ele>
        <time>2022-09-27T15:09:59Z</time>
      </trkpt>
      <trkpt lat="43.64269" lon="1.31925">
        <ele>139.8</ele>
        <time>2022-09-27T15:10:00Z</time>
      </trkpt>
      <trkpt lat="43.64246" lon="1.31905">
        <ele>139.4</ele>
        <time>2022-09-27T15:10:04Z</time>
      </trkpt>
      <trkpt lat="43.64211" lon="1.31879">
        <ele>138</ele>
        <time>2022-09-27T15:10:09Z</time>
      </trkpt>
      <trkpt lat="43.64211" lon="1.31879">
        <ele>137.8</ele>
        <time>2022-09-27T15:10:10Z</time>
      </trkpt>
      <trkpt lat="43.64187" lon="1.31863">
        <ele>137</ele>
        <time>2022-09-27T15:10:13Z</time>
      </trkpt>
      <trkpt lat="43.64182" lon="1.31862">
        <ele>137</ele>
        <time>2022-09-27T15:10:14Z</time>
      </trkpt>
      <trkpt lat="43.64177" lon="1.31862">
        <ele>136.6</ele>
        <time>2022-09-27T15:10:15Z</time>
      </trkpt>
      <trkpt lat="43.64162" lon="1.31855">
        <ele>136.2</ele>
        <time>2022-09-27T15:10:18Z</time>
      </trkpt>
      <trkpt lat="43.64157" lon="1.31853">
        <ele>136</ele>
        <time>2022-09-27T15:10:19Z</time>
      </trkpt>
      <trkpt lat="43.64152" lon="1.31851">
        <ele>135.8</ele>
        <time>2022-09-27T15:10:20Z</time>
      </trkpt>
      <trkpt lat="43.64128" lon="1.31841">
        <ele>135.4</ele>
        <time>2022-09-27T15:10:24Z</time>
      </trkpt>
      <trkpt lat="43.64084" lon="1.31817">
        <ele>135</ele>
        <time>2022-09-27T15:10:31Z</time>
      </trkpt>
      <trkpt lat="43.64033" lon="1.31788">
        <ele>134.8</ele>
        <time>2022-09-27T15:10:39Z</time>
      </trkpt>
      <trkpt lat="43.63979" lon="1.31759">
        <ele>135.2</ele>
        <time>2022-09-27T15:10:48Z</time>
      </trkpt>
      <trkpt lat="43.63973" lon="1.31756">
        <ele>135.2</ele>
        <time>2022-09-27T15:10:49Z</time>
      </trkpt>
      <trkpt lat="43.63947" lon="1.31741">
        <ele>135.2</ele>
        <time>2022-09-27T15:10:54Z</time>
      </trkpt>
      <trkpt lat="43.63943" lon="1.31738">
        <ele>135.2</ele>
        <time>2022-09-27T15:10:55Z</time>
      </trkpt>
      <trkpt lat="43.63916" lon="1.31712">
        <ele>135</ele>
        <time>2022-09-27T15:11:00Z</time>
      </trkpt>
      <trkpt lat="43.63886" lon="1.31685">
        <ele>135.2</ele>
        <time>2022-09-27T15:11:05Z</time>
      </trkpt>
      <trkpt lat="43.63846" lon="1.31643">
        <ele>135</ele>
        <time>2022-09-27T15:11:13Z</time>
      </trkpt>
      <trkpt lat="43.63827" lon="1.3162">
        <ele>135</ele>
        <time>2022-09-27T15:11:16Z</time>
      </trkpt>
      <trkpt lat="43.63815" lon="1.31598">
        <ele>135</ele>
        <time>2022-09-27T15:11:19Z</time>
      </trkpt>
      <trkpt lat="43.63792" lon="1.31551">
        <ele>135</ele>
        <time>2022-09-27T15:11:26Z</time>
      </trkpt>
      <trkpt lat="43.63764" lon="1.31498">
        <ele>135.6</ele>
        <time>2022-09-27T15:11:34Z</time>
      </trkpt>
      <trkpt lat="43.63734" lon="1.31434">
        <ele>136.4</ele>
        <time>2022-09-27T15:11:44Z</time>
      </trkpt>
      <trkpt lat="43.63721" lon="1.31403">
        <ele>136.6</ele>
        <time>2022-09-27T15:11:49Z</time>
      </trkpt>
      <trkpt lat="43.63717" lon="1.31389">
        <ele>136.6</ele>
        <time>2022-09-27T15:11:51Z</time>
      </trkpt>
      <trkpt lat="43.63705" lon="1.31345">
        <ele>136.8</ele>
        <time>2022-09-27T15:11:57Z</time>
      </trkpt>
      <trkpt lat="43.63698" lon="1.31316">
        <ele>137</ele>
        <time>2022-09-27T15:12:01Z</time>
      </trkpt>
      <trkpt lat="43.63683" lon="1.31256">
        <ele>137.2</ele>
        <time>2022-09-27T15:12:09Z</time>
      </trkpt>
      <trkpt lat="43.63672" lon="1.31234">
        <ele>137.4</ele>
        <time>2022-09-27T15:12:13Z</time>
      </trkpt>
      <trkpt lat="43.63669" lon="1.3123">
        <ele>137.4</ele>
        <time>2022-09-27T15:12:14Z</time>
      </trkpt>
      <trkpt lat="43.63665" lon="1.31226">
        <ele>137.4</ele>
        <time>2022-09-27T15:12:15Z</time>
      </trkpt>
      <trkpt lat="43.63655" lon="1.31211">
        <ele>137.8</ele>
        <time>2022-09-27T15:12:18Z</time>
      </trkpt>
      <trkpt lat="43.63652" lon="1.31205">
        <ele>138</ele>
        <time>2022-09-27T15:12:19Z</time>
      </trkpt>
      <trkpt lat="43.6363" lon="1.31158">
        <ele>138.4</ele>
        <time>2022-09-27T15:12:26Z</time>
      </trkpt>
      <trkpt lat="43.63627" lon="1.31151">
        <ele>138.4</ele>
        <time>2022-09-27T15:12:27Z</time>
      </trkpt>
      <trkpt lat="43.63615" lon="1.31123">
        <ele>138.4</ele>
        <time>2022-09-27T15:12:31Z</time>
      </trkpt>
      <trkpt lat="43.63591" lon="1.3109">
        <ele>138</ele>
        <time>2022-09-27T15:12:36Z</time>
      </trkpt>
      <trkpt lat="43.63587" lon="1.31083">
        <ele>138</ele>
        <time>2022-09-27T15:12:37Z</time>
      </trkpt>
      <trkpt lat="43.63573" lon="1.31062">
        <ele>137.8</ele>
        <time>2022-09-27T15:12:40Z</time>
      </trkpt>
      <trkpt lat="43.63564" lon="1.31041">
        <ele>137.8</ele>
        <time>2022-09-27T15:12:43Z</time>
      </trkpt>
      <trkpt lat="43.63543" lon="1.30999">
        <ele>137.6</ele>
        <time>2022-09-27T15:12:49Z</time>
      </trkpt>
      <trkpt lat="43.63524" lon="1.30973">
        <ele>137.6</ele>
        <time>2022-09-27T15:12:53Z</time>
      </trkpt>
      <trkpt lat="43.6352" lon="1.30969">
        <ele>137.6</ele>
        <time>2022-09-27T15:12:54Z</time>
      </trkpt>
      <trkpt lat="43.63499" lon="1.30954">
        <ele>137.4</ele>
        <time>2022-09-27T15:12:58Z</time>
      </trkpt>
      <trkpt lat="43.63487" lon="1.30948">
        <ele>137.4</ele>
        <time>2022-09-27T15:13:00Z</time>
      </trkpt>
      <trkpt lat="43.63449" lon="1.30932">
        <ele>137.4</ele>
        <time>2022-09-27T15:13:07Z</time>
      </trkpt>
      <trkpt lat="43.63418" lon="1.30912">
        <ele>137.6</ele>
        <time>2022-09-27T15:13:13Z</time>
      </trkpt>
      <trkpt lat="43.63414" lon="1.30908">
        <ele>137.8</ele>
        <time>2022-09-27T15:13:14Z</time>
      </trkpt>
      <trkpt lat="43.63381" lon="1.30865">
        <ele>138.2</ele>
        <time>2022-09-27T15:13:22Z</time>
      </trkpt>
      <trkpt lat="43.63348" lon="1.30815">
        <ele>138.2</ele>
        <time>2022-09-27T15:13:31Z</time>
      </trkpt>
      <trkpt lat="43.63309" lon="1.30759">
        <ele>138.2</ele>
        <time>2022-09-27T15:13:41Z</time>
      </trkpt>
      <trkpt lat="43.63305" lon="1.30754">
        <ele>138.4</ele>
        <time>2022-09-27T15:13:42Z</time>
      </trkpt>
      <trkpt lat="43.63293" lon="1.30736">
        <ele>138.6</ele>
        <time>2022-09-27T15:13:46Z</time>
      </trkpt>
      <trkpt lat="43.63292" lon="1.3073">
        <ele>138.6</ele>
        <time>2022-09-27T15:13:47Z</time>
      </trkpt>
      <trkpt lat="43.63292" lon="1.30702">
        <ele>138.6</ele>
        <time>2022-09-27T15:13:51Z</time>
      </trkpt>
      <trkpt lat="43.63292" lon="1.30697">
        <ele>138.6</ele>
        <time>2022-09-27T15:13:52Z</time>
      </trkpt>
      <trkpt lat="43.63291" lon="1.30691">
        <ele>138.8</ele>
        <time>2022-09-27T15:13:53Z</time>
      </trkpt>
      <trkpt lat="43.63288" lon="1.30679">
        <ele>138.8</ele>
        <time>2022-09-27T15:13:55Z</time>
      </trkpt>
      <trkpt lat="43.63288" lon="1.30654">
        <ele>139</ele>
        <time>2022-09-27T15:13:59Z</time>
      </trkpt>
      <trkpt lat="43.63289" lon="1.30647">
        <ele>139.2</ele>
        <time>2022-09-27T15:14:00Z</time>
      </trkpt>
      <trkpt lat="43.63289" lon="1.30603">
        <ele>139.6</ele>
        <time>2022-09-27T15:14:06Z</time>
      </trkpt>
      <trkpt lat="43.633" lon="1.30548">
        <ele>140</ele>
        <time>2022-09-27T15:14:12Z</time>
      </trkpt>
      <trkpt lat="43.63307" lon="1.30531">
        <ele>140</ele>
        <time>2022-09-27T15:14:14Z</time>
      </trkpt>
      <trkpt lat="43.63317" lon="1.30503">
        <ele>140</ele>
        <time>2022-09-27T15:14:18Z</time>
      </trkpt>
      <trkpt lat="43.63329" lon="1.30467">
        <ele>140.6</ele>
        <time>2022-09-27T15:14:23Z</time>
      </trkpt>
      <trkpt lat="43.63329" lon="1.30459">
        <ele>140.6</ele>
        <time>2022-09-27T15:14:24Z</time>
      </trkpt>
      <trkpt lat="43.6333" lon="1.30444">
        <ele>140.8</ele>
        <time>2022-09-27T15:14:26Z</time>
      </trkpt>
      <trkpt lat="43.63333" lon="1.30437">
        <ele>140.8</ele>
        <time>2022-09-27T15:14:27Z</time>
      </trkpt>
      <trkpt lat="43.63333" lon="1.3043">
        <ele>140.8</ele>
        <time>2022-09-27T15:14:28Z</time>
      </trkpt>
      <trkpt lat="43.63334" lon="1.30415">
        <ele>140.8</ele>
        <time>2022-09-27T15:14:30Z</time>
      </trkpt>
      <trkpt lat="43.63334" lon="1.30399">
        <ele>140.8</ele>
        <time>2022-09-27T15:14:32Z</time>
      </trkpt>
      <trkpt lat="43.63334" lon="1.30384">
        <ele>140.6</ele>
        <time>2022-09-27T15:14:34Z</time>
      </trkpt>
      <trkpt lat="43.63334" lon="1.30371">
        <ele>140.6</ele>
        <time>2022-09-27T15:14:36Z</time>
      </trkpt>
      <trkpt lat="43.63332" lon="1.30363">
        <ele>140.6</ele>
        <time>2022-09-27T15:14:37Z</time>
      </trkpt>
      <trkpt lat="43.63328" lon="1.30355">
        <ele>140.6</ele>
        <time>2022-09-27T15:14:38Z</time>
      </trkpt>
      <trkpt lat="43.63325" lon="1.30338">
        <ele>140.6</ele>
        <time>2022-09-27T15:14:40Z</time>
      </trkpt>
      <trkpt lat="43.63321" lon="1.3033">
        <ele>140.6</ele>
        <time>2022-09-27T15:14:41Z</time>
      </trkpt>
      <trkpt lat="43.63311" lon="1.30314">
        <ele>140.8</ele>
        <time>2022-09-27T15:14:43Z</time>
      </trkpt>
      <trkpt lat="43.63309" lon="1.30307">
        <ele>141</ele>
        <time>2022-09-27T15:14:44Z</time>
      </trkpt>
      <trkpt lat="43.63304" lon="1.30296">
        <ele>141.2</ele>
        <time>2022-09-27T15:14:46Z</time>
      </trkpt>
      <trkpt lat="43.63278" lon="1.30249">
        <ele>141.4</ele>
        <time>2022-09-27T15:14:52Z</time>
      </trkpt>
      <trkpt lat="43.63262" lon="1.30222">
        <ele>141.4</ele>
        <time>2022-09-27T15:14:56Z</time>
      </trkpt>
      <trkpt lat="43.63258" lon="1.30219">
        <ele>141.4</ele>
        <time>2022-09-27T15:14:57Z</time>
      </trkpt>
      <trkpt lat="43.6325" lon="1.30213">
        <ele>141.2</ele>
        <time>2022-09-27T15:14:59Z</time>
      </trkpt>
      <trkpt lat="43.63232" lon="1.30199">
        <ele>141.2</ele>
        <time>2022-09-27T15:15:02Z</time>
      </trkpt>
      <trkpt lat="43.63217" lon="1.30193">
        <ele>141.2</ele>
        <time>2022-09-27T15:15:05Z</time>
      </trkpt>
      <trkpt lat="43.63207" lon="1.30187">
        <ele>141.2</ele>
        <time>2022-09-27T15:15:07Z</time>
      </trkpt>
      <trkpt lat="43.63198" lon="1.30181">
        <ele>141.2</ele>
        <time>2022-09-27T15:15:08Z</time>
      </trkpt>
      <trkpt lat="43.63186" lon="1.3017">
        <ele>141.2</ele>
        <time>2022-09-27T15:15:10Z</time>
      </trkpt>
      <trkpt lat="43.63172" lon="1.30156">
        <ele>141.6</ele>
        <time>2022-09-27T15:15:13Z</time>
      </trkpt>
      <trkpt lat="43.63152" lon="1.30139">
        <ele>141.8</ele>
        <time>2022-09-27T15:15:16Z</time>
      </trkpt>
      <trkpt lat="43.63137" lon="1.30123">
        <ele>141.8</ele>
        <time>2022-09-27T15:15:19Z</time>
      </trkpt>
      <trkpt lat="43.63122" lon="1.30105">
        <ele>142</ele>
        <time>2022-09-27T15:15:22Z</time>
      </trkpt>
      <trkpt lat="43.63113" lon="1.30098">
        <ele>142</ele>
        <time>2022-09-27T15:15:24Z</time>
      </trkpt>
      <trkpt lat="43.63096" lon="1.30088">
        <ele>142.2</ele>
        <time>2022-09-27T15:15:27Z</time>
      </trkpt>
      <trkpt lat="43.63082" lon="1.30074">
        <ele>142.2</ele>
        <time>2022-09-27T15:15:30Z</time>
      </trkpt>
      <trkpt lat="43.63043" lon="1.30039">
        <ele>142</ele>
        <time>2022-09-27T15:15:38Z</time>
      </trkpt>
      <trkpt lat="43.63038" lon="1.30036">
        <ele>141.8</ele>
        <time>2022-09-27T15:15:39Z</time>
      </trkpt>
      <trkpt lat="43.63032" lon="1.30035">
        <ele>141.8</ele>
        <time>2022-09-27T15:15:40Z</time>
      </trkpt>
      <trkpt lat="43.63021" lon="1.30034">
        <ele>141.6</ele>
        <time>2022-09-27T15:15:42Z</time>
      </trkpt>
      <trkpt lat="43.63009" lon="1.30036">
        <ele>141.4</ele>
        <time>2022-09-27T15:15:44Z</time>
      </trkpt>
      <trkpt lat="43.62991" lon="1.30041">
        <ele>141</ele>
        <time>2022-09-27T15:15:47Z</time>
      </trkpt>
      <trkpt lat="43.62972" lon="1.30047">
        <ele>140.8</ele>
        <time>2022-09-27T15:15:50Z</time>
      </trkpt>
      <trkpt lat="43.62954" lon="1.30052">
        <ele>140.6</ele>
        <time>2022-09-27T15:15:53Z</time>
      </trkpt>
      <trkpt lat="43.62925" lon="1.30063">
        <ele>140.6</ele>
        <time>2022-09-27T15:15:58Z</time>
      </trkpt>
      <trkpt lat="43.62912" lon="1.30064">
        <ele>140.6</ele>
        <time>2022-09-27T15:16:00Z</time>
      </trkpt>
      <trkpt lat="43.629" lon="1.30061">
        <ele>140.6</ele>
        <time>2022-09-27T15:16:02Z</time>
      </trkpt>
      <trkpt lat="43.62889" lon="1.30056">
        <ele>140.4</ele>
        <time>2022-09-27T15:16:04Z</time>
      </trkpt>
      <trkpt lat="43.62842" lon="1.30032">
        <ele>140.2</ele>
        <time>2022-09-27T15:16:13Z</time>
      </trkpt>
      <trkpt lat="43.62817" lon="1.3002">
        <ele>140.2</ele>
        <time>2022-09-27T15:16:18Z</time>
      </trkpt>
      <trkpt lat="43.62812" lon="1.30016">
        <ele>140.2</ele>
        <time>2022-09-27T15:16:19Z</time>
      </trkpt>
      <trkpt lat="43.62808" lon="1.30012">
        <ele>140.2</ele>
        <time>2022-09-27T15:16:20Z</time>
      </trkpt>
      <trkpt lat="43.62793" lon="1.29992">
        <ele>140.2</ele>
        <time>2022-09-27T15:16:25Z</time>
      </trkpt>
      <trkpt lat="43.62755" lon="1.29939">
        <ele>140.4</ele>
        <time>2022-09-27T15:16:35Z</time>
      </trkpt>
      <trkpt lat="43.62721" lon="1.29888">
        <ele>140.6</ele>
        <time>2022-09-27T15:16:43Z</time>
      </trkpt>
      <trkpt lat="43.62689" lon="1.29844">
        <ele>141</ele>
        <time>2022-09-27T15:16:51Z</time>
      </trkpt>
      <trkpt lat="43.62684" lon="1.29839">
        <ele>141</ele>
        <time>2022-09-27T15:16:52Z</time>
      </trkpt>
      <trkpt lat="43.62647" lon="1.29804">
        <ele>141.6</ele>
        <time>2022-09-27T15:17:00Z</time>
      </trkpt>
      <trkpt lat="43.62633" lon="1.29791">
        <ele>141.8</ele>
        <time>2022-09-27T15:17:03Z</time>
      </trkpt>
      <trkpt lat="43.62609" lon="1.29769">
        <ele>142.2</ele>
        <time>2022-09-27T15:17:08Z</time>
      </trkpt>
      <trkpt lat="43.6258" lon="1.2974">
        <ele>143</ele>
        <time>2022-09-27T15:17:15Z</time>
      </trkpt>
      <trkpt lat="43.62537" lon="1.29694">
        <ele>143.4</ele>
        <time>2022-09-27T15:17:25Z</time>
      </trkpt>
      <trkpt lat="43.62507" lon="1.29661">
        <ele>143.8</ele>
        <time>2022-09-27T15:17:32Z</time>
      </trkpt>
      <trkpt lat="43.62481" lon="1.29629">
        <ele>144</ele>
        <time>2022-09-27T15:17:38Z</time>
      </trkpt>
      <trkpt lat="43.6247" lon="1.29615">
        <ele>144</ele>
        <time>2022-09-27T15:17:41Z</time>
      </trkpt>
      <trkpt lat="43.6244" lon="1.2956">
        <ele>144.2</ele>
        <time>2022-09-27T15:17:50Z</time>
      </trkpt>
      <trkpt lat="43.62413" lon="1.29506">
        <ele>145</ele>
        <time>2022-09-27T15:17:59Z</time>
      </trkpt>
      <trkpt lat="43.62401" lon="1.29471">
        <ele>146</ele>
        <time>2022-09-27T15:18:05Z</time>
      </trkpt>
      <trkpt lat="43.62398" lon="1.29465">
        <ele>146.2</ele>
        <time>2022-09-27T15:18:06Z</time>
      </trkpt>
      <trkpt lat="43.62395" lon="1.29452">
        <ele>146.4</ele>
        <time>2022-09-27T15:18:08Z</time>
      </trkpt>
      <trkpt lat="43.62393" lon="1.29434">
        <ele>147</ele>
        <time>2022-09-27T15:18:11Z</time>
      </trkpt>
      <trkpt lat="43.62392" lon="1.29427">
        <ele>147.2</ele>
        <time>2022-09-27T15:18:12Z</time>
      </trkpt>
      <trkpt lat="43.62386" lon="1.29389">
        <ele>148</ele>
        <time>2022-09-27T15:18:18Z</time>
      </trkpt>
      <trkpt lat="43.62386" lon="1.29382">
        <ele>148.2</ele>
        <time>2022-09-27T15:18:19Z</time>
      </trkpt>
      <trkpt lat="43.62382" lon="1.29348">
        <ele>148.2</ele>
        <time>2022-09-27T15:18:23Z</time>
      </trkpt>
      <trkpt lat="43.62373" lon="1.2928">
        <ele>147.8</ele>
        <time>2022-09-27T15:18:30Z</time>
      </trkpt>
      <trkpt lat="43.62367" lon="1.29241">
        <ele>147.4</ele>
        <time>2022-09-27T15:18:34Z</time>
      </trkpt>
      <trkpt lat="43.62362" lon="1.29224">
        <ele>147.2</ele>
        <time>2022-09-27T15:18:36Z</time>
      </trkpt>
      <trkpt lat="43.62359" lon="1.29216">
        <ele>147</ele>
        <time>2022-09-27T15:18:37Z</time>
      </trkpt>
      <trkpt lat="43.6233" lon="1.29146">
        <ele>146</ele>
        <time>2022-09-27T15:18:46Z</time>
      </trkpt>
      <trkpt lat="43.62303" lon="1.29098">
        <ele>145.2</ele>
        <time>2022-09-27T15:18:53Z</time>
      </trkpt>
      <trkpt lat="43.62296" lon="1.29085">
        <ele>145</ele>
        <time>2022-09-27T15:18:55Z</time>
      </trkpt>
      <trkpt lat="43.62283" lon="1.29061">
        <ele>145</ele>
        <time>2022-09-27T15:18:59Z</time>
      </trkpt>
      <trkpt lat="43.62264" lon="1.29026">
        <ele>145.2</ele>
        <time>2022-09-27T15:19:05Z</time>
      </trkpt>
      <trkpt lat="43.6226" lon="1.29018">
        <ele>145.2</ele>
        <time>2022-09-27T15:19:06Z</time>
      </trkpt>
      <trkpt lat="43.62254" lon="1.29006">
        <ele>145.4</ele>
        <time>2022-09-27T15:19:08Z</time>
      </trkpt>
      <trkpt lat="43.6225" lon="1.28992">
        <ele>145.4</ele>
        <time>2022-09-27T15:19:10Z</time>
      </trkpt>
      <trkpt lat="43.62247" lon="1.28983">
        <ele>145.4</ele>
        <time>2022-09-27T15:19:11Z</time>
      </trkpt>
      <trkpt lat="43.62246" lon="1.2896">
        <ele>145.2</ele>
        <time>2022-09-27T15:19:14Z</time>
      </trkpt>
      <trkpt lat="43.62248" lon="1.28896">
        <ele>144.8</ele>
        <time>2022-09-27T15:19:22Z</time>
      </trkpt>
      <trkpt lat="43.62249" lon="1.2885">
        <ele>145</ele>
        <time>2022-09-27T15:19:28Z</time>
      </trkpt>
      <trkpt lat="43.62251" lon="1.28818">
        <ele>145</ele>
        <time>2022-09-27T15:19:32Z</time>
      </trkpt>
      <trkpt lat="43.62254" lon="1.28795">
        <ele>145</ele>
        <time>2022-09-27T15:19:35Z</time>
      </trkpt>
      <trkpt lat="43.6226" lon="1.2875">
        <ele>144.8</ele>
        <time>2022-09-27T15:19:41Z</time>
      </trkpt>
      <trkpt lat="43.62261" lon="1.28736">
        <ele>144.8</ele>
        <time>2022-09-27T15:19:43Z</time>
      </trkpt>
      <trkpt lat="43.6226" lon="1.28717">
        <ele>145</ele>
        <time>2022-09-27T15:19:46Z</time>
      </trkpt>
      <trkpt lat="43.6226" lon="1.28702">
        <ele>144.8</ele>
        <time>2022-09-27T15:19:48Z</time>
      </trkpt>
      <trkpt lat="43.62258" lon="1.28684">
        <ele>144.8</ele>
        <time>2022-09-27T15:19:50Z</time>
      </trkpt>
      <trkpt lat="43.62259" lon="1.28677">
        <ele>144.8</ele>
        <time>2022-09-27T15:19:51Z</time>
      </trkpt>
      <trkpt lat="43.62262" lon="1.28667">
        <ele>145</ele>
        <time>2022-09-27T15:19:53Z</time>
      </trkpt>
      <trkpt lat="43.62267" lon="1.28652">
        <ele>144.8</ele>
        <time>2022-09-27T15:19:57Z</time>
      </trkpt>
      <trkpt lat="43.62271" lon="1.28626">
        <ele>145</ele>
        <time>2022-09-27T15:20:02Z</time>
      </trkpt>
      <trkpt lat="43.62271" lon="1.2862">
        <ele>145</ele>
        <time>2022-09-27T15:20:03Z</time>
      </trkpt>
      <trkpt lat="43.62267" lon="1.28607">
        <ele>145.2</ele>
        <time>2022-09-27T15:20:05Z</time>
      </trkpt>
      <trkpt lat="43.62265" lon="1.28602">
        <ele>145.2</ele>
        <time>2022-09-27T15:20:06Z</time>
      </trkpt>
      <trkpt lat="43.62242" lon="1.2857">
        <ele>145.8</ele>
        <time>2022-09-27T15:20:13Z</time>
      </trkpt>
      <trkpt lat="43.62232" lon="1.28552">
        <ele>146</ele>
        <time>2022-09-27T15:20:16Z</time>
      </trkpt>
      <trkpt lat="43.62226" lon="1.28539">
        <ele>146</ele>
        <time>2022-09-27T15:20:18Z</time>
      </trkpt>
      <trkpt lat="43.62214" lon="1.28507">
        <ele>146</ele>
        <time>2022-09-27T15:20:22Z</time>
      </trkpt>
      <trkpt lat="43.62212" lon="1.28497">
        <ele>146</ele>
        <time>2022-09-27T15:20:23Z</time>
      </trkpt>
      <trkpt lat="43.62209" lon="1.2845">
        <ele>145.8</ele>
        <time>2022-09-27T15:20:29Z</time>
      </trkpt>
      <trkpt lat="43.62209" lon="1.28391">
        <ele>145.2</ele>
        <time>2022-09-27T15:20:37Z</time>
      </trkpt>
      <trkpt lat="43.6221" lon="1.28382">
        <ele>145.2</ele>
        <time>2022-09-27T15:20:38Z</time>
      </trkpt>
      <trkpt lat="43.62212" lon="1.28344">
        <ele>145.4</ele>
        <time>2022-09-27T15:20:43Z</time>
      </trkpt>
      <trkpt lat="43.62216" lon="1.28276">
        <ele>145.8</ele>
        <time>2022-09-27T15:20:52Z</time>
      </trkpt>
      <trkpt lat="43.62222" lon="1.282">
        <ele>146.4</ele>
        <time>2022-09-27T15:21:02Z</time>
      </trkpt>
      <trkpt lat="43.62229" lon="1.28145">
        <ele>146.8</ele>
        <time>2022-09-27T15:21:10Z</time>
      </trkpt>
      <trkpt lat="43.62228" lon="1.28137">
        <ele>146.8</ele>
        <time>2022-09-27T15:21:11Z</time>
      </trkpt>
      <trkpt lat="43.62228" lon="1.2813">
        <ele>146.8</ele>
        <time>2022-09-27T15:21:12Z</time>
      </trkpt>
      <trkpt lat="43.62223" lon="1.28111">
        <ele>146.8</ele>
        <time>2022-09-27T15:21:15Z</time>
      </trkpt>
      <trkpt lat="43.62217" lon="1.28101">
        <ele>147</ele>
        <time>2022-09-27T15:21:17Z</time>
      </trkpt>
      <trkpt lat="43.62213" lon="1.28098">
        <ele>147</ele>
        <time>2022-09-27T15:21:18Z</time>
      </trkpt>
      <trkpt lat="43.62204" lon="1.28096">
        <ele>147.2</ele>
        <time>2022-09-27T15:21:21Z</time>
      </trkpt>
      <trkpt lat="43.62202" lon="1.28095">
        <ele>147.2</ele>
        <time>2022-09-27T15:21:22Z</time>
      </trkpt>
      <trkpt lat="43.62187" lon="1.28087">
        <ele>147.6</ele>
        <time>2022-09-27T15:21:26Z</time>
      </trkpt>
      <trkpt lat="43.62181" lon="1.28086">
        <ele>147.6</ele>
        <time>2022-09-27T15:21:27Z</time>
      </trkpt>
      <trkpt lat="43.62169" lon="1.28085">
        <ele>147.8</ele>
        <time>2022-09-27T15:21:29Z</time>
      </trkpt>
      <trkpt lat="43.62153" lon="1.28086">
        <ele>147.8</ele>
        <time>2022-09-27T15:21:32Z</time>
      </trkpt>
      <trkpt lat="43.62118" lon="1.28088">
        <ele>147.4</ele>
        <time>2022-09-27T15:21:38Z</time>
      </trkpt>
      <trkpt lat="43.6211" lon="1.28091">
        <ele>147.2</ele>
        <time>2022-09-27T15:21:40Z</time>
      </trkpt>
      <trkpt lat="43.62104" lon="1.28094">
        <ele>147.2</ele>
        <time>2022-09-27T15:21:41Z</time>
      </trkpt>
      <trkpt lat="43.62092" lon="1.28102">
        <ele>147</ele>
        <time>2022-09-27T15:21:44Z</time>
      </trkpt>
      <trkpt lat="43.62087" lon="1.28103">
        <ele>147</ele>
        <time>2022-09-27T15:21:45Z</time>
      </trkpt>
      <trkpt lat="43.62077" lon="1.28104">
        <ele>147</ele>
        <time>2022-09-27T15:21:47Z</time>
      </trkpt>
      <trkpt lat="43.62054" lon="1.28106">
        <ele>147.6</ele>
        <time>2022-09-27T15:21:52Z</time>
      </trkpt>
      <trkpt lat="43.62038" lon="1.28108">
        <ele>147.6</ele>
        <time>2022-09-27T15:21:56Z</time>
      </trkpt>
      <trkpt lat="43.62033" lon="1.28104">
        <ele>148.4</ele>
        <time>2022-09-27T15:21:58Z</time>
      </trkpt>
      <trkpt lat="43.62032" lon="1.28101">
        <ele>148.6</ele>
        <time>2022-09-27T15:21:59Z</time>
      </trkpt>
      <trkpt lat="43.62028" lon="1.28085">
        <ele>149.6</ele>
        <time>2022-09-27T15:22:02Z</time>
      </trkpt>
      <trkpt lat="43.62027" lon="1.28079">
        <ele>149.8</ele>
        <time>2022-09-27T15:22:03Z</time>
      </trkpt>
      <trkpt lat="43.62025" lon="1.28048">
        <ele>150.6</ele>
        <time>2022-09-27T15:22:08Z</time>
      </trkpt>
      <trkpt lat="43.62024" lon="1.28042">
        <ele>150.8</ele>
        <time>2022-09-27T15:22:09Z</time>
      </trkpt>
      <trkpt lat="43.62018" lon="1.27997">
        <ele>151.6</ele>
        <time>2022-09-27T15:22:16Z</time>
      </trkpt>
      <trkpt lat="43.62017" lon="1.2799">
        <ele>151.6</ele>
        <time>2022-09-27T15:22:17Z</time>
      </trkpt>
      <trkpt lat="43.62008" lon="1.27922">
        <ele>152.4</ele>
        <time>2022-09-27T15:22:27Z</time>
      </trkpt>
      <trkpt lat="43.62005" lon="1.27903">
        <ele>152.6</ele>
        <time>2022-09-27T15:22:30Z</time>
      </trkpt>
      <trkpt lat="43.62002" lon="1.27876">
        <ele>153.2</ele>
        <time>2022-09-27T15:22:34Z</time>
      </trkpt>
      <trkpt lat="43.61996" lon="1.27814">
        <ele>153.8</ele>
        <time>2022-09-27T15:22:43Z</time>
      </trkpt>
      <trkpt lat="43.61995" lon="1.27807">
        <ele>153.8</ele>
        <time>2022-09-27T15:22:44Z</time>
      </trkpt>
      <trkpt lat="43.61992" lon="1.2777">
        <ele>153.6</ele>
        <time>2022-09-27T15:22:49Z</time>
      </trkpt>
      <trkpt lat="43.61992" lon="1.27761">
        <ele>153.6</ele>
        <time>2022-09-27T15:22:50Z</time>
      </trkpt>
      <trkpt lat="43.61998" lon="1.27721">
        <ele>153</ele>
        <time>2022-09-27T15:22:55Z</time>
      </trkpt>
      <trkpt lat="43.61998" lon="1.27713">
        <ele>153</ele>
        <time>2022-09-27T15:22:56Z</time>
      </trkpt>
      <trkpt lat="43.61997" lon="1.27681">
        <ele>152.8</ele>
        <time>2022-09-27T15:23:00Z</time>
      </trkpt>
      <trkpt lat="43.61995" lon="1.27675">
        <ele>152.8</ele>
        <time>2022-09-27T15:23:01Z</time>
      </trkpt>
      <trkpt lat="43.61992" lon="1.27671">
        <ele>152.8</ele>
        <time>2022-09-27T15:23:02Z</time>
      </trkpt>
      <trkpt lat="43.61984" lon="1.27662">
        <ele>152.8</ele>
        <time>2022-09-27T15:23:04Z</time>
      </trkpt>
      <trkpt lat="43.61977" lon="1.27651">
        <ele>153.2</ele>
        <time>2022-09-27T15:23:07Z</time>
      </trkpt>
      <trkpt lat="43.61976" lon="1.27645">
        <ele>153.2</ele>
        <time>2022-09-27T15:23:08Z</time>
      </trkpt>
      <trkpt lat="43.61974" lon="1.27601">
        <ele>153.4</ele>
        <time>2022-09-27T15:23:14Z</time>
      </trkpt>
      <trkpt lat="43.61976" lon="1.27547">
        <ele>153.6</ele>
        <time>2022-09-27T15:23:21Z</time>
      </trkpt>
      <trkpt lat="43.61973" lon="1.27489">
        <ele>153.2</ele>
        <time>2022-09-27T15:23:28Z</time>
      </trkpt>
      <trkpt lat="43.61971" lon="1.27448">
        <ele>152.8</ele>
        <time>2022-09-27T15:23:34Z</time>
      </trkpt>
      <trkpt lat="43.61969" lon="1.27435">
        <ele>152.6</ele>
        <time>2022-09-27T15:23:36Z</time>
      </trkpt>
      <trkpt lat="43.61964" lon="1.27391">
        <ele>152.6</ele>
        <time>2022-09-27T15:23:42Z</time>
      </trkpt>
      <trkpt lat="43.61958" lon="1.27326">
        <ele>152.8</ele>
        <time>2022-09-27T15:23:50Z</time>
      </trkpt>
      <trkpt lat="43.61952" lon="1.27276">
        <ele>152.6</ele>
        <time>2022-09-27T15:23:56Z</time>
      </trkpt>
      <trkpt lat="43.61949" lon="1.27226">
        <ele>152.4</ele>
        <time>2022-09-27T15:24:02Z</time>
      </trkpt>
      <trkpt lat="43.61943" lon="1.27171">
        <ele>152.4</ele>
        <time>2022-09-27T15:24:09Z</time>
      </trkpt>
      <trkpt lat="43.61938" lon="1.27119">
        <ele>152.6</ele>
        <time>2022-09-27T15:24:16Z</time>
      </trkpt>
      <trkpt lat="43.61938" lon="1.27111">
        <ele>152.8</ele>
        <time>2022-09-27T15:24:17Z</time>
      </trkpt>
      <trkpt lat="43.61934" lon="1.27067">
        <ele>153</ele>
        <time>2022-09-27T15:24:23Z</time>
      </trkpt>
      <trkpt lat="43.61932" lon="1.27051">
        <ele>153.2</ele>
        <time>2022-09-27T15:24:25Z</time>
      </trkpt>
      <trkpt lat="43.61925" lon="1.27016">
        <ele>153.6</ele>
        <time>2022-09-27T15:24:30Z</time>
      </trkpt>
      <trkpt lat="43.61923" lon="1.27003">
        <ele>153.6</ele>
        <time>2022-09-27T15:24:32Z</time>
      </trkpt>
      <trkpt lat="43.61921" lon="1.26996">
        <ele>153.8</ele>
        <time>2022-09-27T15:24:33Z</time>
      </trkpt>
      <trkpt lat="43.6192" lon="1.2699">
        <ele>153.8</ele>
        <time>2022-09-27T15:24:34Z</time>
      </trkpt>
      <trkpt lat="43.61917" lon="1.26974">
        <ele>153.8</ele>
        <time>2022-09-27T15:24:36Z</time>
      </trkpt>
      <trkpt lat="43.61914" lon="1.26961">
        <ele>153.8</ele>
        <time>2022-09-27T15:24:38Z</time>
      </trkpt>
      <trkpt lat="43.61913" lon="1.26955">
        <ele>153.8</ele>
        <time>2022-09-27T15:24:39Z</time>
      </trkpt>
      <trkpt lat="43.61912" lon="1.2695">
        <ele>153.8</ele>
        <time>2022-09-27T15:24:40Z</time>
      </trkpt>
      <trkpt lat="43.61909" lon="1.26934">
        <ele>153.8</ele>
        <time>2022-09-27T15:24:42Z</time>
      </trkpt>
      <trkpt lat="43.61907" lon="1.26927">
        <ele>154</ele>
        <time>2022-09-27T15:24:43Z</time>
      </trkpt>
      <trkpt lat="43.61899" lon="1.26893">
        <ele>154</ele>
        <time>2022-09-27T15:24:47Z</time>
      </trkpt>
      <trkpt lat="43.61898" lon="1.26884">
        <ele>154</ele>
        <time>2022-09-27T15:24:48Z</time>
      </trkpt>
      <trkpt lat="43.61892" lon="1.26828">
        <ele>154.2</ele>
        <time>2022-09-27T15:24:55Z</time>
      </trkpt>
      <trkpt lat="43.61885" lon="1.26779">
        <ele>154.6</ele>
        <time>2022-09-27T15:25:01Z</time>
      </trkpt>
      <trkpt lat="43.61881" lon="1.2676">
        <ele>154.6</ele>
        <time>2022-09-27T15:25:04Z</time>
      </trkpt>
      <trkpt lat="43.61879" lon="1.26745">
        <ele>154.8</ele>
        <time>2022-09-27T15:25:06Z</time>
      </trkpt>
      <trkpt lat="43.61878" lon="1.26737">
        <ele>154.8</ele>
        <time>2022-09-27T15:25:07Z</time>
      </trkpt>
      <trkpt lat="43.61863" lon="1.26669">
        <ele>154.6</ele>
        <time>2022-09-27T15:25:15Z</time>
      </trkpt>
      <trkpt lat="43.61851" lon="1.26597">
        <ele>154.6</ele>
        <time>2022-09-27T15:25:24Z</time>
      </trkpt>
      <trkpt lat="43.61845" lon="1.26555">
        <ele>154.6</ele>
        <time>2022-09-27T15:25:30Z</time>
      </trkpt>
      <trkpt lat="43.61839" lon="1.26512">
        <ele>155.2</ele>
        <time>2022-09-27T15:25:36Z</time>
      </trkpt>
      <trkpt lat="43.6183" lon="1.26468">
        <ele>155.2</ele>
        <time>2022-09-27T15:25:41Z</time>
      </trkpt>
      <trkpt lat="43.61828" lon="1.26459">
        <ele>155.2</ele>
        <time>2022-09-27T15:25:42Z</time>
      </trkpt>
      <trkpt lat="43.61825" lon="1.26443">
        <ele>155</ele>
        <time>2022-09-27T15:25:44Z</time>
      </trkpt>
      <trkpt lat="43.6182" lon="1.26426">
        <ele>155</ele>
        <time>2022-09-27T15:25:46Z</time>
      </trkpt>
      <trkpt lat="43.61807" lon="1.26375">
        <ele>154.4</ele>
        <time>2022-09-27T15:25:53Z</time>
      </trkpt>
      <trkpt lat="43.61794" lon="1.26318">
        <ele>154.4</ele>
        <time>2022-09-27T15:26:01Z</time>
      </trkpt>
      <trkpt lat="43.6178" lon="1.26263">
        <ele>154.6</ele>
        <time>2022-09-27T15:26:09Z</time>
      </trkpt>
      <trkpt lat="43.61773" lon="1.26216">
        <ele>155</ele>
        <time>2022-09-27T15:26:16Z</time>
      </trkpt>
      <trkpt lat="43.61772" lon="1.26208">
        <ele>155</ele>
        <time>2022-09-27T15:26:17Z</time>
      </trkpt>
      <trkpt lat="43.6177" lon="1.26163">
        <ele>155.2</ele>
        <time>2022-09-27T15:26:23Z</time>
      </trkpt>
      <trkpt lat="43.61768" lon="1.26155">
        <ele>155.2</ele>
        <time>2022-09-27T15:26:24Z</time>
      </trkpt>
      <trkpt lat="43.61764" lon="1.2614">
        <ele>155.2</ele>
        <time>2022-09-27T15:26:26Z</time>
      </trkpt>
      <trkpt lat="43.61756" lon="1.26113">
        <ele>155.2</ele>
        <time>2022-09-27T15:26:30Z</time>
      </trkpt>
      <trkpt lat="43.61743" lon="1.26067">
        <ele>155.2</ele>
        <time>2022-09-27T15:26:37Z</time>
      </trkpt>
      <trkpt lat="43.61741" lon="1.2606">
        <ele>155.4</ele>
        <time>2022-09-27T15:26:38Z</time>
      </trkpt>
      <trkpt lat="43.61738" lon="1.26046">
        <ele>155.4</ele>
        <time>2022-09-27T15:26:40Z</time>
      </trkpt>
      <trkpt lat="43.61731" lon="1.26028">
        <ele>155.4</ele>
        <time>2022-09-27T15:26:43Z</time>
      </trkpt>
      <trkpt lat="43.61727" lon="1.26023">
        <ele>155.4</ele>
        <time>2022-09-27T15:26:44Z</time>
      </trkpt>
      <trkpt lat="43.61723" lon="1.26013">
        <ele>155.6</ele>
        <time>2022-09-27T15:26:46Z</time>
      </trkpt>
      <trkpt lat="43.6172" lon="1.26008">
        <ele>155.6</ele>
        <time>2022-09-27T15:26:47Z</time>
      </trkpt>
      <trkpt lat="43.61713" lon="1.25994">
        <ele>155.8</ele>
        <time>2022-09-27T15:26:50Z</time>
      </trkpt>
      <trkpt lat="43.6171" lon="1.2599">
        <ele>155.8</ele>
        <time>2022-09-27T15:26:51Z</time>
      </trkpt>
      <trkpt lat="43.61698" lon="1.25979">
        <ele>156.4</ele>
        <time>2022-09-27T15:26:55Z</time>
      </trkpt>
      <trkpt lat="43.61688" lon="1.25972">
        <ele>156.6</ele>
        <time>2022-09-27T15:26:58Z</time>
      </trkpt>
      <trkpt lat="43.61681" lon="1.25961">
        <ele>157</ele>
        <time>2022-09-27T15:27:01Z</time>
      </trkpt>
      <trkpt lat="43.61673" lon="1.25945">
        <ele>157.8</ele>
        <time>2022-09-27T15:27:05Z</time>
      </trkpt>
      <trkpt lat="43.61667" lon="1.25932">
        <ele>158</ele>
        <time>2022-09-27T15:27:08Z</time>
      </trkpt>
      <trkpt lat="43.61659" lon="1.25915">
        <ele>158.8</ele>
        <time>2022-09-27T15:27:12Z</time>
      </trkpt>
      <trkpt lat="43.61655" lon="1.25901">
        <ele>159.2</ele>
        <time>2022-09-27T15:27:15Z</time>
      </trkpt>
      <trkpt lat="43.61649" lon="1.25881">
        <ele>160</ele>
        <time>2022-09-27T15:27:20Z</time>
      </trkpt>
      <trkpt lat="43.61648" lon="1.25875">
        <ele>160.4</ele>
        <time>2022-09-27T15:27:22Z</time>
      </trkpt>
      <trkpt lat="43.61647" lon="1.25866">
        <ele>161</ele>
        <time>2022-09-27T15:27:25Z</time>
      </trkpt>
      <trkpt lat="43.61648" lon="1.25864">
        <ele>161.2</ele>
        <time>2022-09-27T15:27:26Z</time>
      </trkpt>
      <trkpt lat="43.61649" lon="1.25861">
        <ele>161.6</ele>
        <time>2022-09-27T15:27:28Z</time>
      </trkpt>
      <trkpt lat="43.61649" lon="1.2586">
        <ele>162.2</ele>
        <time>2022-09-27T15:27:30Z</time>
      </trkpt>
      <trkpt lat="43.61651" lon="1.25849">
        <ele>163</ele>
        <time>2022-09-27T15:27:36Z</time>
      </trkpt>
      <trkpt lat="43.6165" lon="1.25838">
        <ele>163</ele>
        <time>2022-09-27T15:27:38Z</time>
      </trkpt>
      <trkpt lat="43.61649" lon="1.25832">
        <ele>163</ele>
        <time>2022-09-27T15:27:39Z</time>
      </trkpt>
      <trkpt lat="43.61638" lon="1.25803">
        <ele>162.6</ele>
        <time>2022-09-27T15:27:43Z</time>
      </trkpt>
      <trkpt lat="43.61615" lon="1.25755">
        <ele>161.4</ele>
        <time>2022-09-27T15:27:49Z</time>
      </trkpt>
      <trkpt lat="43.61612" lon="1.25748">
        <ele>161</ele>
        <time>2022-09-27T15:27:50Z</time>
      </trkpt>
      <trkpt lat="43.616" lon="1.25714">
        <ele>160.4</ele>
        <time>2022-09-27T15:27:54Z</time>
      </trkpt>
      <trkpt lat="43.61595" lon="1.25697">
        <ele>160</ele>
        <time>2022-09-27T15:27:56Z</time>
      </trkpt>
      <trkpt lat="43.61583" lon="1.2566">
        <ele>159.4</ele>
        <time>2022-09-27T15:28:00Z</time>
      </trkpt>
      <trkpt lat="43.6158" lon="1.25649">
        <ele>159.2</ele>
        <time>2022-09-27T15:28:01Z</time>
      </trkpt>
      <trkpt lat="43.61575" lon="1.25628">
        <ele>159</ele>
        <time>2022-09-27T15:28:03Z</time>
      </trkpt>
      <trkpt lat="43.61571" lon="1.25599">
        <ele>158.6</ele>
        <time>2022-09-27T15:28:06Z</time>
      </trkpt>
      <trkpt lat="43.61569" lon="1.25551">
        <ele>158</ele>
        <time>2022-09-27T15:28:11Z</time>
      </trkpt>
      <trkpt lat="43.61569" lon="1.25542">
        <ele>158</ele>
        <time>2022-09-27T15:28:12Z</time>
      </trkpt>
      <trkpt lat="43.6157" lon="1.25488">
        <ele>158</ele>
        <time>2022-09-27T15:28:18Z</time>
      </trkpt>
      <trkpt lat="43.6157" lon="1.25479">
        <ele>158</ele>
        <time>2022-09-27T15:28:19Z</time>
      </trkpt>
      <trkpt lat="43.61561" lon="1.2541">
        <ele>158.2</ele>
        <time>2022-09-27T15:28:27Z</time>
      </trkpt>
      <trkpt lat="43.61561" lon="1.25394">
        <ele>158.2</ele>
        <time>2022-09-27T15:28:29Z</time>
      </trkpt>
      <trkpt lat="43.61561" lon="1.25373">
        <ele>158.4</ele>
        <time>2022-09-27T15:28:32Z</time>
      </trkpt>
      <trkpt lat="43.61559" lon="1.25336">
        <ele>158.6</ele>
        <time>2022-09-27T15:28:37Z</time>
      </trkpt>
      <trkpt lat="43.61559" lon="1.25328">
        <ele>158.6</ele>
        <time>2022-09-27T15:28:38Z</time>
      </trkpt>
      <trkpt lat="43.6156" lon="1.25312">
        <ele>158.8</ele>
        <time>2022-09-27T15:28:40Z</time>
      </trkpt>
      <trkpt lat="43.61561" lon="1.25297">
        <ele>158.8</ele>
        <time>2022-09-27T15:28:42Z</time>
      </trkpt>
      <trkpt lat="43.61561" lon="1.25289">
        <ele>158.8</ele>
        <time>2022-09-27T15:28:43Z</time>
      </trkpt>
      <trkpt lat="43.61562" lon="1.25282">
        <ele>158.8</ele>
        <time>2022-09-27T15:28:44Z</time>
      </trkpt>
      <trkpt lat="43.61563" lon="1.2525">
        <ele>159</ele>
        <time>2022-09-27T15:28:48Z</time>
      </trkpt>
      <trkpt lat="43.61575" lon="1.25184">
        <ele>160</ele>
        <time>2022-09-27T15:28:57Z</time>
      </trkpt>
      <trkpt lat="43.61578" lon="1.2517">
        <ele>160.2</ele>
        <time>2022-09-27T15:28:59Z</time>
      </trkpt>
      <trkpt lat="43.61582" lon="1.25147">
        <ele>160.4</ele>
        <time>2022-09-27T15:29:02Z</time>
      </trkpt>
      <trkpt lat="43.61583" lon="1.25139">
        <ele>160.6</ele>
        <time>2022-09-27T15:29:03Z</time>
      </trkpt>
      <trkpt lat="43.61583" lon="1.25119">
        <ele>161</ele>
        <time>2022-09-27T15:29:06Z</time>
      </trkpt>
      <trkpt lat="43.6158" lon="1.25099">
        <ele>161.6</ele>
        <time>2022-09-27T15:29:09Z</time>
      </trkpt>
      <trkpt lat="43.61574" lon="1.2508">
        <ele>162.2</ele>
        <time>2022-09-27T15:29:13Z</time>
      </trkpt>
      <trkpt lat="43.61566" lon="1.25057">
        <ele>162.6</ele>
        <time>2022-09-27T15:29:16Z</time>
      </trkpt>
      <trkpt lat="43.61565" lon="1.25051">
        <ele>162.8</ele>
        <time>2022-09-27T15:29:17Z</time>
      </trkpt>
      <trkpt lat="43.61562" lon="1.2504">
        <ele>163.2</ele>
        <time>2022-09-27T15:29:19Z</time>
      </trkpt>
      <trkpt lat="43.61561" lon="1.25034">
        <ele>163.4</ele>
        <time>2022-09-27T15:29:20Z</time>
      </trkpt>
      <trkpt lat="43.61559" lon="1.25018">
        <ele>163.8</ele>
        <time>2022-09-27T15:29:23Z</time>
      </trkpt>
      <trkpt lat="43.61559" lon="1.25013">
        <ele>164</ele>
        <time>2022-09-27T15:29:24Z</time>
      </trkpt>
      <trkpt lat="43.61555" lon="1.25004">
        <ele>164.2</ele>
        <time>2022-09-27T15:29:26Z</time>
      </trkpt>
      <trkpt lat="43.61553" lon="1.25001">
        <ele>164.6</ele>
        <time>2022-09-27T15:29:27Z</time>
      </trkpt>
      <trkpt lat="43.61546" lon="1.24999">
        <ele>165</ele>
        <time>2022-09-27T15:29:29Z</time>
      </trkpt>
      <trkpt lat="43.61543" lon="1.24998">
        <ele>165</ele>
        <time>2022-09-27T15:29:30Z</time>
      </trkpt>
      <trkpt lat="43.61539" lon="1.24997">
        <ele>165.4</ele>
        <time>2022-09-27T15:29:31Z</time>
      </trkpt>
      <trkpt lat="43.61537" lon="1.24994">
        <ele>165.4</ele>
        <time>2022-09-27T15:29:32Z</time>
      </trkpt>
      <trkpt lat="43.61534" lon="1.24989">
        <ele>166.2</ele>
        <time>2022-09-27T15:29:33Z</time>
      </trkpt>
      <trkpt lat="43.61533" lon="1.24984">
        <ele>166.6</ele>
        <time>2022-09-27T15:29:34Z</time>
      </trkpt>
      <trkpt lat="43.61532" lon="1.24962">
        <ele>167.4</ele>
        <time>2022-09-27T15:29:38Z</time>
      </trkpt>
      <trkpt lat="43.61531" lon="1.24957">
        <ele>167.6</ele>
        <time>2022-09-27T15:29:39Z</time>
      </trkpt>
      <trkpt lat="43.61525" lon="1.24951">
        <ele>168.2</ele>
        <time>2022-09-27T15:29:41Z</time>
      </trkpt>
      <trkpt lat="43.61509" lon="1.2496">
        <ele>168.8</ele>
        <time>2022-09-27T15:29:45Z</time>
      </trkpt>
      <trkpt lat="43.61485" lon="1.24969">
        <ele>169.6</ele>
        <time>2022-09-27T15:29:51Z</time>
      </trkpt>
      <trkpt lat="43.61472" lon="1.24968">
        <ele>170</ele>
        <time>2022-09-27T15:29:54Z</time>
      </trkpt>
      <trkpt lat="43.61463" lon="1.24967">
        <ele>170.2</ele>
        <time>2022-09-27T15:29:56Z</time>
      </trkpt>
      <trkpt lat="43.61455" lon="1.24964">
        <ele>170.6</ele>
        <time>2022-09-27T15:29:58Z</time>
      </trkpt>
      <trkpt lat="43.61446" lon="1.24961">
        <ele>170.6</ele>
        <time>2022-09-27T15:30:00Z</time>
      </trkpt>
      <trkpt lat="43.61442" lon="1.2496">
        <ele>170.8</ele>
        <time>2022-09-27T15:30:01Z</time>
      </trkpt>
      <trkpt lat="43.61437" lon="1.24959">
        <ele>171.2</ele>
        <time>2022-09-27T15:30:02Z</time>
      </trkpt>
      <trkpt lat="43.61428" lon="1.24956">
        <ele>171.4</ele>
        <time>2022-09-27T15:30:04Z</time>
      </trkpt>
      <trkpt lat="43.61408" lon="1.2495">
        <ele>172.4</ele>
        <time>2022-09-27T15:30:08Z</time>
      </trkpt>
      <trkpt lat="43.61399" lon="1.2495">
        <ele>172.6</ele>
        <time>2022-09-27T15:30:10Z</time>
      </trkpt>
      <trkpt lat="43.61389" lon="1.24951">
        <ele>173</ele>
        <time>2022-09-27T15:30:12Z</time>
      </trkpt>
      <trkpt lat="43.61376" lon="1.24952">
        <ele>173.2</ele>
        <time>2022-09-27T15:30:15Z</time>
      </trkpt>
      <trkpt lat="43.61347" lon="1.24953">
        <ele>174.4</ele>
        <time>2022-09-27T15:30:21Z</time>
      </trkpt>
      <trkpt lat="43.61333" lon="1.24952">
        <ele>174.6</ele>
        <time>2022-09-27T15:30:24Z</time>
      </trkpt>
      <trkpt lat="43.61329" lon="1.2495">
        <ele>174.6</ele>
        <time>2022-09-27T15:30:25Z</time>
      </trkpt>
      <trkpt lat="43.61306" lon="1.24941">
        <ele>175.6</ele>
        <time>2022-09-27T15:30:30Z</time>
      </trkpt>
      <trkpt lat="43.61288" lon="1.24932">
        <ele>175.8</ele>
        <time>2022-09-27T15:30:34Z</time>
      </trkpt>
      <trkpt lat="43.61284" lon="1.2493">
        <ele>176.2</ele>
        <time>2022-09-27T15:30:35Z</time>
      </trkpt>
      <trkpt lat="43.61263" lon="1.24912">
        <ele>176.6</ele>
        <time>2022-09-27T15:30:40Z</time>
      </trkpt>
      <trkpt lat="43.61255" lon="1.24904">
        <ele>177</ele>
        <time>2022-09-27T15:30:42Z</time>
      </trkpt>
      <trkpt lat="43.61238" lon="1.24881">
        <ele>177.6</ele>
        <time>2022-09-27T15:30:47Z</time>
      </trkpt>
      <trkpt lat="43.61231" lon="1.2487">
        <ele>177.8</ele>
        <time>2022-09-27T15:30:49Z</time>
      </trkpt>
      <trkpt lat="43.61227" lon="1.24866">
        <ele>177.8</ele>
        <time>2022-09-27T15:30:50Z</time>
      </trkpt>
      <trkpt lat="43.61199" lon="1.24824">
        <ele>178.2</ele>
        <time>2022-09-27T15:30:58Z</time>
      </trkpt>
      <trkpt lat="43.61163" lon="1.24765">
        <ele>178.8</ele>
        <time>2022-09-27T15:31:09Z</time>
      </trkpt>
      <trkpt lat="43.6116" lon="1.24759">
        <ele>178.8</ele>
        <time>2022-09-27T15:31:10Z</time>
      </trkpt>
      <trkpt lat="43.61129" lon="1.24707">
        <ele>179.4</ele>
        <time>2022-09-27T15:31:19Z</time>
      </trkpt>
      <trkpt lat="43.61101" lon="1.24661">
        <ele>179.6</ele>
        <time>2022-09-27T15:31:27Z</time>
      </trkpt>
      <trkpt lat="43.61079" lon="1.24632">
        <ele>179.8</ele>
        <time>2022-09-27T15:31:33Z</time>
      </trkpt>
      <trkpt lat="43.61072" lon="1.24627">
        <ele>179.8</ele>
        <time>2022-09-27T15:31:35Z</time>
      </trkpt>
      <trkpt lat="43.61061" lon="1.24631">
        <ele>179.8</ele>
        <time>2022-09-27T15:31:38Z</time>
      </trkpt>
      <trkpt lat="43.61054" lon="1.24639">
        <ele>179.8</ele>
        <time>2022-09-27T15:31:40Z</time>
      </trkpt>
      <trkpt lat="43.61043" lon="1.24654">
        <ele>179.8</ele>
        <time>2022-09-27T15:31:43Z</time>
      </trkpt>
      <trkpt lat="43.61022" lon="1.2469">
        <ele>180</ele>
        <time>2022-09-27T15:31:49Z</time>
      </trkpt>
      <trkpt lat="43.6099" lon="1.24724">
        <ele>180.4</ele>
        <time>2022-09-27T15:31:56Z</time>
      </trkpt>
      <trkpt lat="43.60942" lon="1.24757">
        <ele>180.6</ele>
        <time>2022-09-27T15:32:05Z</time>
      </trkpt>
      <trkpt lat="43.60903" lon="1.24783">
        <ele>180.8</ele>
        <time>2022-09-27T15:32:12Z</time>
      </trkpt>
      <trkpt lat="43.60892" lon="1.24791">
        <ele>181</ele>
        <time>2022-09-27T15:32:14Z</time>
      </trkpt>
      <trkpt lat="43.60863" lon="1.24812">
        <ele>181</ele>
        <time>2022-09-27T15:32:20Z</time>
      </trkpt>
      <trkpt lat="43.60859" lon="1.24812">
        <ele>181</ele>
        <time>2022-09-27T15:32:21Z</time>
      </trkpt>
      <trkpt lat="43.60857" lon="1.24811">
        <ele>181</ele>
        <time>2022-09-27T15:32:22Z</time>
      </trkpt>
      <trkpt lat="43.60854" lon="1.24804">
        <ele>181</ele>
        <time>2022-09-27T15:32:24Z</time>
      </trkpt>
      <trkpt lat="43.60847" lon="1.24775">
        <ele>181</ele>
        <time>2022-09-27T15:32:30Z</time>
      </trkpt>
      <trkpt lat="43.60839" lon="1.24727">
        <ele>181</ele>
        <time>2022-09-27T15:32:38Z</time>
      </trkpt>
      <trkpt lat="43.60825" lon="1.24683">
        <ele>181</ele>
        <time>2022-09-27T15:32:45Z</time>
      </trkpt>
      <trkpt lat="43.6081" lon="1.24643">
        <ele>181</ele>
        <time>2022-09-27T15:32:52Z</time>
      </trkpt>
      <trkpt lat="43.60798" lon="1.24601">
        <ele>181</ele>
        <time>2022-09-27T15:32:59Z</time>
      </trkpt>
      <trkpt lat="43.60784" lon="1.24547">
        <ele>181.2</ele>
        <time>2022-09-27T15:33:08Z</time>
      </trkpt>
      <trkpt lat="43.60766" lon="1.24486">
        <ele>181.2</ele>
        <time>2022-09-27T15:33:18Z</time>
      </trkpt>
      <trkpt lat="43.60764" lon="1.24479">
        <ele>181.2</ele>
        <time>2022-09-27T15:33:19Z</time>
      </trkpt>
      <trkpt lat="43.6075" lon="1.24451">
        <ele>181</ele>
        <time>2022-09-27T15:33:24Z</time>
      </trkpt>
      <trkpt lat="43.60728" lon="1.24416">
        <ele>180.8</ele>
        <time>2022-09-27T15:33:31Z</time>
      </trkpt>
      <trkpt lat="43.60723" lon="1.24405">
        <ele>181</ele>
        <time>2022-09-27T15:33:33Z</time>
      </trkpt>
      <trkpt lat="43.60704" lon="1.24373">
        <ele>181.4</ele>
        <time>2022-09-27T15:33:40Z</time>
      </trkpt>
      <trkpt lat="43.60698" lon="1.24365">
        <ele>181.4</ele>
        <time>2022-09-27T15:33:42Z</time>
      </trkpt>
      <trkpt lat="43.60683" lon="1.24342">
        <ele>181.4</ele>
        <time>2022-09-27T15:33:47Z</time>
      </trkpt>
      <trkpt lat="43.6066" lon="1.24305">
        <ele>181.6</ele>
        <time>2022-09-27T15:33:55Z</time>
      </trkpt>
      <trkpt lat="43.60651" lon="1.24292">
        <ele>181.6</ele>
        <time>2022-09-27T15:33:59Z</time>
      </trkpt>
      <trkpt lat="43.60651" lon="1.24288">
        <ele>181.4</ele>
        <time>2022-09-27T15:34:00Z</time>
      </trkpt>
      <trkpt lat="43.60656" lon="1.24257">
        <ele>181.4</ele>
        <time>2022-09-27T15:34:06Z</time>
      </trkpt>
      <trkpt lat="43.60657" lon="1.2425">
        <ele>181.4</ele>
        <time>2022-09-27T15:34:07Z</time>
      </trkpt>
      <trkpt lat="43.60665" lon="1.24224">
        <ele>181.2</ele>
        <time>2022-09-27T15:34:11Z</time>
      </trkpt>
      <trkpt lat="43.6068" lon="1.24174">
        <ele>181.2</ele>
        <time>2022-09-27T15:34:18Z</time>
      </trkpt>
      <trkpt lat="43.60695" lon="1.24109">
        <ele>181.2</ele>
        <time>2022-09-27T15:34:26Z</time>
      </trkpt>
      <trkpt lat="43.60712" lon="1.24043">
        <ele>181.4</ele>
        <time>2022-09-27T15:34:34Z</time>
      </trkpt>
      <trkpt lat="43.60733" lon="1.23969">
        <ele>181.4</ele>
        <time>2022-09-27T15:34:43Z</time>
      </trkpt>
      <trkpt lat="43.60737" lon="1.23955">
        <ele>181.2</ele>
        <time>2022-09-27T15:34:45Z</time>
      </trkpt>
      <trkpt lat="43.60739" lon="1.23949">
        <ele>181.2</ele>
        <time>2022-09-27T15:34:47Z</time>
      </trkpt>
      <trkpt lat="43.60743" lon="1.23941">
        <ele>180.8</ele>
        <time>2022-09-27T15:34:51Z</time>
      </trkpt>
      <trkpt lat="43.60749" lon="1.23923">
        <ele>180.4</ele>
        <time>2022-09-27T15:34:55Z</time>
      </trkpt>
      <trkpt lat="43.6075" lon="1.23917">
        <ele>180.4</ele>
        <time>2022-09-27T15:34:56Z</time>
      </trkpt>
      <trkpt lat="43.60756" lon="1.23886">
        <ele>180.2</ele>
        <time>2022-09-27T15:35:01Z</time>
      </trkpt>
      <trkpt lat="43.60766" lon="1.23835">
        <ele>180.6</ele>
        <time>2022-09-27T15:35:09Z</time>
      </trkpt>
      <trkpt lat="43.60773" lon="1.23802">
        <ele>180.8</ele>
        <time>2022-09-27T15:35:14Z</time>
      </trkpt>
      <trkpt lat="43.60777" lon="1.23789">
        <ele>181</ele>
        <time>2022-09-27T15:35:16Z</time>
      </trkpt>
      <trkpt lat="43.6079" lon="1.23732">
        <ele>181.6</ele>
        <time>2022-09-27T15:35:25Z</time>
      </trkpt>
      <trkpt lat="43.60794" lon="1.2371">
        <ele>182</ele>
        <time>2022-09-27T15:35:28Z</time>
      </trkpt>
      <trkpt lat="43.60802" lon="1.23665">
        <ele>182</ele>
        <time>2022-09-27T15:35:34Z</time>
      </trkpt>
      <trkpt lat="43.60812" lon="1.23606">
        <ele>182</ele>
        <time>2022-09-27T15:35:41Z</time>
      </trkpt>
      <trkpt lat="43.60825" lon="1.2354">
        <ele>182</ele>
        <time>2022-09-27T15:35:49Z</time>
      </trkpt>
      <trkpt lat="43.6084" lon="1.23476">
        <ele>181.6</ele>
        <time>2022-09-27T15:35:57Z</time>
      </trkpt>
      <trkpt lat="43.60846" lon="1.23455">
        <ele>181.6</ele>
        <time>2022-09-27T15:36:01Z</time>
      </trkpt>
      <trkpt lat="43.60846" lon="1.23453">
        <ele>181.2</ele>
        <time>2022-09-27T15:36:05Z</time>
      </trkpt>
      <trkpt lat="43.60846" lon="1.23449">
        <ele>179.8</ele>
        <time>2022-09-27T15:36:22Z</time>
      </trkpt>
      <trkpt lat="43.60841" lon="1.23445">
        <ele>179.6</ele>
        <time>2022-09-27T15:36:24Z</time>
      </trkpt>
      <trkpt lat="43.60833" lon="1.23441">
        <ele>179.6</ele>
        <time>2022-09-27T15:36:26Z</time>
      </trkpt>
      <trkpt lat="43.60824" lon="1.23437">
        <ele>179.4</ele>
        <time>2022-09-27T15:36:28Z</time>
      </trkpt>
      <trkpt lat="43.60807" lon="1.2343">
        <ele>179.2</ele>
        <time>2022-09-27T15:36:31Z</time>
      </trkpt>
      <trkpt lat="43.60795" lon="1.23427">
        <ele>179</ele>
        <time>2022-09-27T15:36:33Z</time>
      </trkpt>
      <trkpt lat="43.60769" lon="1.23423">
        <ele>178.8</ele>
        <time>2022-09-27T15:36:37Z</time>
      </trkpt>
      <trkpt lat="43.60756" lon="1.23423">
        <ele>178.6</ele>
        <time>2022-09-27T15:36:39Z</time>
      </trkpt>
      <trkpt lat="43.60738" lon="1.2342">
        <ele>178.4</ele>
        <time>2022-09-27T15:36:42Z</time>
      </trkpt>
      <trkpt lat="43.60728" lon="1.23415">
        <ele>178.6</ele>
        <time>2022-09-27T15:36:44Z</time>
      </trkpt>
      <trkpt lat="43.60722" lon="1.23414">
        <ele>178.6</ele>
        <time>2022-09-27T15:36:45Z</time>
      </trkpt>
      <trkpt lat="43.60713" lon="1.23419">
        <ele>178.8</ele>
        <time>2022-09-27T15:36:47Z</time>
      </trkpt>
      <trkpt lat="43.60709" lon="1.23431">
        <ele>179</ele>
        <time>2022-09-27T15:36:49Z</time>
      </trkpt>
      <trkpt lat="43.60707" lon="1.23438">
        <ele>179</ele>
        <time>2022-09-27T15:36:50Z</time>
      </trkpt>
      <trkpt lat="43.60706" lon="1.23445">
        <ele>179</ele>
        <time>2022-09-27T15:36:51Z</time>
      </trkpt>
      <trkpt lat="43.60703" lon="1.23457">
        <ele>179</ele>
        <time>2022-09-27T15:36:53Z</time>
      </trkpt>
      <trkpt lat="43.60701" lon="1.23464">
        <ele>179</ele>
        <time>2022-09-27T15:36:54Z</time>
      </trkpt>
      <trkpt lat="43.607" lon="1.2347">
        <ele>179.2</ele>
        <time>2022-09-27T15:36:55Z</time>
      </trkpt>
      <trkpt lat="43.60688" lon="1.23509">
        <ele>179.2</ele>
        <time>2022-09-27T15:37:01Z</time>
      </trkpt>
      <trkpt lat="43.60686" lon="1.23516">
        <ele>179.4</ele>
        <time>2022-09-27T15:37:02Z</time>
      </trkpt>
      <trkpt lat="43.60679" lon="1.23537">
        <ele>179.4</ele>
        <time>2022-09-27T15:37:05Z</time>
      </trkpt>
      <trkpt lat="43.60676" lon="1.2355">
        <ele>179.6</ele>
        <time>2022-09-27T15:37:07Z</time>
      </trkpt>
      <trkpt lat="43.60674" lon="1.23557">
        <ele>179.6</ele>
        <time>2022-09-27T15:37:08Z</time>
      </trkpt>
      <trkpt lat="43.60663" lon="1.23595">
        <ele>179.6</ele>
        <time>2022-09-27T15:37:13Z</time>
      </trkpt>
      <trkpt lat="43.60652" lon="1.2363">
        <ele>179.6</ele>
        <time>2022-09-27T15:37:18Z</time>
      </trkpt>
      <trkpt lat="43.60643" lon="1.23671">
        <ele>179.4</ele>
        <time>2022-09-27T15:37:23Z</time>
      </trkpt>
      <trkpt lat="43.60636" lon="1.23693">
        <ele>179.2</ele>
        <time>2022-09-27T15:37:26Z</time>
      </trkpt>
      <trkpt lat="43.60632" lon="1.23716">
        <ele>179.2</ele>
        <time>2022-09-27T15:37:29Z</time>
      </trkpt>
      <trkpt lat="43.60612" lon="1.23772">
        <ele>179</ele>
        <time>2022-09-27T15:37:36Z</time>
      </trkpt>
      <trkpt lat="43.6061" lon="1.2378">
        <ele>178.6</ele>
        <time>2022-09-27T15:37:37Z</time>
      </trkpt>
      <trkpt lat="43.60606" lon="1.238">
        <ele>178.2</ele>
        <time>2022-09-27T15:37:40Z</time>
      </trkpt>
      <trkpt lat="43.60603" lon="1.23812">
        <ele>177.6</ele>
        <time>2022-09-27T15:37:42Z</time>
      </trkpt>
      <trkpt lat="43.60595" lon="1.23842">
        <ele>177.6</ele>
        <time>2022-09-27T15:37:47Z</time>
      </trkpt>
      <trkpt lat="43.60583" lon="1.23882">
        <ele>178.2</ele>
        <time>2022-09-27T15:37:53Z</time>
      </trkpt>
      <trkpt lat="43.60573" lon="1.23913">
        <ele>178.8</ele>
        <time>2022-09-27T15:37:58Z</time>
      </trkpt>
      <trkpt lat="43.60568" lon="1.23928">
        <ele>179</ele>
        <time>2022-09-27T15:38:00Z</time>
      </trkpt>
      <trkpt lat="43.60558" lon="1.23944">
        <ele>179.2</ele>
        <time>2022-09-27T15:38:03Z</time>
      </trkpt>
      <trkpt lat="43.60549" lon="1.23941">
        <ele>179.4</ele>
        <time>2022-09-27T15:38:06Z</time>
      </trkpt>
      <trkpt lat="43.60528" lon="1.23925">
        <ele>179.8</ele>
        <time>2022-09-27T15:38:12Z</time>
      </trkpt>
      <trkpt lat="43.60521" lon="1.23924">
        <ele>180</ele>
        <time>2022-09-27T15:38:14Z</time>
      </trkpt>
      <trkpt lat="43.60511" lon="1.23926">
        <ele>180.4</ele>
        <time>2022-09-27T15:38:17Z</time>
      </trkpt>
      <trkpt lat="43.60507" lon="1.23932">
        <ele>180.4</ele>
        <time>2022-09-27T15:38:19Z</time>
      </trkpt>
      <trkpt lat="43.60506" lon="1.23936">
        <ele>180.6</ele>
        <time>2022-09-27T15:38:20Z</time>
      </trkpt>
      <trkpt lat="43.605" lon="1.23958">
        <ele>181</ele>
        <time>2022-09-27T15:38:24Z</time>
      </trkpt>
      <trkpt lat="43.60482" lon="1.23987">
        <ele>180.8</ele>
        <time>2022-09-27T15:38:30Z</time>
      </trkpt>
      <trkpt lat="43.60471" lon="1.24013">
        <ele>178.8</ele>
        <time>2022-09-27T15:38:35Z</time>
      </trkpt>
      <trkpt lat="43.60468" lon="1.24018">
        <ele>178.6</ele>
        <time>2022-09-27T15:38:36Z</time>
      </trkpt>
      <trkpt lat="43.6046" lon="1.24032">
        <ele>176.2</ele>
        <time>2022-09-27T15:38:39Z</time>
      </trkpt>
      <trkpt lat="43.60457" lon="1.24037">
        <ele>175.6</ele>
        <time>2022-09-27T15:38:40Z</time>
      </trkpt>
      <trkpt lat="43.60454" lon="1.24041">
        <ele>174.4</ele>
        <time>2022-09-27T15:38:41Z</time>
      </trkpt>
      <trkpt lat="43.60445" lon="1.24049">
        <ele>173.6</ele>
        <time>2022-09-27T15:38:43Z</time>
      </trkpt>
      <trkpt lat="43.6044" lon="1.24053">
        <ele>173</ele>
        <time>2022-09-27T15:38:44Z</time>
      </trkpt>
      <trkpt lat="43.60431" lon="1.24061">
        <ele>171.8</ele>
        <time>2022-09-27T15:38:46Z</time>
      </trkpt>
      <trkpt lat="43.60423" lon="1.24067">
        <ele>170.6</ele>
        <time>2022-09-27T15:38:48Z</time>
      </trkpt>
      <trkpt lat="43.60417" lon="1.2407">
        <ele>169.2</ele>
        <time>2022-09-27T15:38:50Z</time>
      </trkpt>
      <trkpt lat="43.60408" lon="1.24069">
        <ele>168</ele>
        <time>2022-09-27T15:38:53Z</time>
      </trkpt>
      <trkpt lat="43.60396" lon="1.24057">
        <ele>166.6</ele>
        <time>2022-09-27T15:38:57Z</time>
      </trkpt>
      <trkpt lat="43.60389" lon="1.2405">
        <ele>166.2</ele>
        <time>2022-09-27T15:38:59Z</time>
      </trkpt>
      <trkpt lat="43.60364" lon="1.24025">
        <ele>166</ele>
        <time>2022-09-27T15:39:06Z</time>
      </trkpt>
      <trkpt lat="43.60341" lon="1.24001">
        <ele>165.4</ele>
        <time>2022-09-27T15:39:12Z</time>
      </trkpt>
      <trkpt lat="43.60332" lon="1.23993">
        <ele>165.2</ele>
        <time>2022-09-27T15:39:14Z</time>
      </trkpt>
      <trkpt lat="43.6032" lon="1.23982">
        <ele>165.2</ele>
        <time>2022-09-27T15:39:17Z</time>
      </trkpt>
      <trkpt lat="43.60311" lon="1.23982">
        <ele>165.2</ele>
        <time>2022-09-27T15:39:19Z</time>
      </trkpt>
      <trkpt lat="43.60305" lon="1.23991">
        <ele>165.4</ele>
        <time>2022-09-27T15:39:21Z</time>
      </trkpt>
      <trkpt lat="43.60296" lon="1.24">
        <ele>165.6</ele>
        <time>2022-09-27T15:39:24Z</time>
      </trkpt>
      <trkpt lat="43.6028" lon="1.24014">
        <ele>165.6</ele>
        <time>2022-09-27T15:39:28Z</time>
      </trkpt>
      <trkpt lat="43.60276" lon="1.24016">
        <ele>165.6</ele>
        <time>2022-09-27T15:39:29Z</time>
      </trkpt>
      <trkpt lat="43.60271" lon="1.24018">
        <ele>165.6</ele>
        <time>2022-09-27T15:39:30Z</time>
      </trkpt>
      <trkpt lat="43.60254" lon="1.24022">
        <ele>165.8</ele>
        <time>2022-09-27T15:39:34Z</time>
      </trkpt>
      <trkpt lat="43.60238" lon="1.24016">
        <ele>166.2</ele>
        <time>2022-09-27T15:39:38Z</time>
      </trkpt>
      <trkpt lat="43.60217" lon="1.24">
        <ele>166.4</ele>
        <time>2022-09-27T15:39:43Z</time>
      </trkpt>
      <trkpt lat="43.60209" lon="1.23992">
        <ele>166.6</ele>
        <time>2022-09-27T15:39:45Z</time>
      </trkpt>
      <trkpt lat="43.60205" lon="1.23987">
        <ele>166.6</ele>
        <time>2022-09-27T15:39:46Z</time>
      </trkpt>
      <trkpt lat="43.60194" lon="1.23972">
        <ele>166.6</ele>
        <time>2022-09-27T15:39:49Z</time>
      </trkpt>
      <trkpt lat="43.60184" lon="1.23955">
        <ele>166.8</ele>
        <time>2022-09-27T15:39:52Z</time>
      </trkpt>
      <trkpt lat="43.6018" lon="1.2395">
        <ele>166.8</ele>
        <time>2022-09-27T15:39:53Z</time>
      </trkpt>
      <trkpt lat="43.60171" lon="1.23942">
        <ele>166.8</ele>
        <time>2022-09-27T15:39:55Z</time>
      </trkpt>
      <trkpt lat="43.60166" lon="1.23939">
        <ele>166.8</ele>
        <time>2022-09-27T15:39:56Z</time>
      </trkpt>
      <trkpt lat="43.60157" lon="1.23933">
        <ele>166.6</ele>
        <time>2022-09-27T15:39:58Z</time>
      </trkpt>
      <trkpt lat="43.60142" lon="1.23928">
        <ele>166.6</ele>
        <time>2022-09-27T15:40:01Z</time>
      </trkpt>
      <trkpt lat="43.60137" lon="1.23925">
        <ele>166.6</ele>
        <time>2022-09-27T15:40:02Z</time>
      </trkpt>
      <trkpt lat="43.60133" lon="1.23921">
        <ele>166.6</ele>
        <time>2022-09-27T15:40:03Z</time>
      </trkpt>
      <trkpt lat="43.60128" lon="1.2391">
        <ele>166.6</ele>
        <time>2022-09-27T15:40:05Z</time>
      </trkpt>
      <trkpt lat="43.60124" lon="1.23899">
        <ele>166.6</ele>
        <time>2022-09-27T15:40:07Z</time>
      </trkpt>
      <trkpt lat="43.60117" lon="1.23893">
        <ele>166.4</ele>
        <time>2022-09-27T15:40:09Z</time>
      </trkpt>
      <trkpt lat="43.60105" lon="1.23887">
        <ele>166.4</ele>
        <time>2022-09-27T15:40:12Z</time>
      </trkpt>
      <trkpt lat="43.60096" lon="1.23889">
        <ele>166.6</ele>
        <time>2022-09-27T15:40:14Z</time>
      </trkpt>
      <trkpt lat="43.60089" lon="1.23896">
        <ele>166.8</ele>
        <time>2022-09-27T15:40:16Z</time>
      </trkpt>
      <trkpt lat="43.60083" lon="1.23904">
        <ele>166.8</ele>
        <time>2022-09-27T15:40:18Z</time>
      </trkpt>
      <trkpt lat="43.60075" lon="1.23914">
        <ele>167</ele>
        <time>2022-09-27T15:40:22Z</time>
      </trkpt>
      <trkpt lat="43.60071" lon="1.23916">
        <ele>167.6</ele>
        <time>2022-09-27T15:40:24Z</time>
      </trkpt>
      <trkpt lat="43.60063" lon="1.2392">
        <ele>168.6</ele>
        <time>2022-09-27T15:40:27Z</time>
      </trkpt>
      <trkpt lat="43.6006" lon="1.2392">
        <ele>168.8</ele>
        <time>2022-09-27T15:40:28Z</time>
      </trkpt>
      <trkpt lat="43.60048" lon="1.23926">
        <ele>170</ele>
        <time>2022-09-27T15:40:32Z</time>
      </trkpt>
      <trkpt lat="43.60045" lon="1.23928">
        <ele>170.2</ele>
        <time>2022-09-27T15:40:33Z</time>
      </trkpt>
      <trkpt lat="43.60037" lon="1.23937">
        <ele>170.8</ele>
        <time>2022-09-27T15:40:36Z</time>
      </trkpt>
      <trkpt lat="43.60036" lon="1.23942">
        <ele>170.8</ele>
        <time>2022-09-27T15:40:37Z</time>
      </trkpt>
      <trkpt lat="43.60036" lon="1.23947">
        <ele>171</ele>
        <time>2022-09-27T15:40:38Z</time>
      </trkpt>
      <trkpt lat="43.60035" lon="1.2398">
        <ele>171.6</ele>
        <time>2022-09-27T15:40:45Z</time>
      </trkpt>
      <trkpt lat="43.60035" lon="1.24">
        <ele>172</ele>
        <time>2022-09-27T15:40:49Z</time>
      </trkpt>
      <trkpt lat="43.60036" lon="1.24024">
        <ele>172.6</ele>
        <time>2022-09-27T15:40:54Z</time>
      </trkpt>
      <trkpt lat="43.60038" lon="1.24033">
        <ele>173</ele>
        <time>2022-09-27T15:40:56Z</time>
      </trkpt>
      <trkpt lat="43.60037" lon="1.24047">
        <ele>173.8</ele>
        <time>2022-09-27T15:40:59Z</time>
      </trkpt>
      <trkpt lat="43.60036" lon="1.2406">
        <ele>174.4</ele>
        <time>2022-09-27T15:41:02Z</time>
      </trkpt>
      <trkpt lat="43.60035" lon="1.24085">
        <ele>175.4</ele>
        <time>2022-09-27T15:41:07Z</time>
      </trkpt>
      <trkpt lat="43.60035" lon="1.241">
        <ele>176.6</ele>
        <time>2022-09-27T15:41:10Z</time>
      </trkpt>
      <trkpt lat="43.60036" lon="1.24129">
        <ele>177.6</ele>
        <time>2022-09-27T15:41:16Z</time>
      </trkpt>
      <trkpt lat="43.60036" lon="1.24133">
        <ele>177.6</ele>
        <time>2022-09-27T15:41:17Z</time>
      </trkpt>
      <trkpt lat="43.60036" lon="1.24143">
        <ele>178.6</ele>
        <time>2022-09-27T15:41:21Z</time>
      </trkpt>
      <trkpt lat="43.60033" lon="1.24145">
        <ele>178.8</ele>
        <time>2022-09-27T15:41:24Z</time>
      </trkpt>
      <trkpt lat="43.60031" lon="1.24145">
        <ele>179</ele>
        <time>2022-09-27T15:41:25Z</time>
      </trkpt>
      <trkpt lat="43.60026" lon="1.24147">
        <ele>179.4</ele>
        <time>2022-09-27T15:41:27Z</time>
      </trkpt>
      <trkpt lat="43.60024" lon="1.2415">
        <ele>179.6</ele>
        <time>2022-09-27T15:41:28Z</time>
      </trkpt>
      <trkpt lat="43.60023" lon="1.24153">
        <ele>179.8</ele>
        <time>2022-09-27T15:41:29Z</time>
      </trkpt>
      <trkpt lat="43.60022" lon="1.24155">
        <ele>179.8</ele>
        <time>2022-09-27T15:41:30Z</time>
      </trkpt>
      <trkpt lat="43.60015" lon="1.24156">
        <ele>180</ele>
        <time>2022-09-27T15:41:32Z</time>
      </trkpt>
      <trkpt lat="43.60002" lon="1.24156">
        <ele>180.6</ele>
        <time>2022-09-27T15:41:35Z</time>
      </trkpt>
      <trkpt lat="43.59994" lon="1.24159">
        <ele>180.8</ele>
        <time>2022-09-27T15:41:37Z</time>
      </trkpt>
      <trkpt lat="43.59986" lon="1.24165">
        <ele>180.8</ele>
        <time>2022-09-27T15:41:39Z</time>
      </trkpt>
      <trkpt lat="43.59978" lon="1.24173">
        <ele>181</ele>
        <time>2022-09-27T15:41:41Z</time>
      </trkpt>
      <trkpt lat="43.59975" lon="1.24177">
        <ele>181.2</ele>
        <time>2022-09-27T15:41:42Z</time>
      </trkpt>
      <trkpt lat="43.59949" lon="1.24211">
        <ele>181.4</ele>
        <time>2022-09-27T15:41:50Z</time>
      </trkpt>
      <trkpt lat="43.59939" lon="1.24225">
        <ele>181.6</ele>
        <time>2022-09-27T15:41:53Z</time>
      </trkpt>
      <trkpt lat="43.59913" lon="1.24261">
        <ele>182.2</ele>
        <time>2022-09-27T15:42:00Z</time>
      </trkpt>
      <trkpt lat="43.59884" lon="1.24309">
        <ele>182.6</ele>
        <time>2022-09-27T15:42:08Z</time>
      </trkpt>
      <trkpt lat="43.59873" lon="1.24328">
        <ele>182.6</ele>
        <time>2022-09-27T15:42:11Z</time>
      </trkpt>
      <trkpt lat="43.59848" lon="1.2437">
        <ele>182.6</ele>
        <time>2022-09-27T15:42:18Z</time>
      </trkpt>
      <trkpt lat="43.59832" lon="1.24389">
        <ele>182.6</ele>
        <time>2022-09-27T15:42:22Z</time>
      </trkpt>
      <trkpt lat="43.59823" lon="1.24405">
        <ele>182.4</ele>
        <time>2022-09-27T15:42:25Z</time>
      </trkpt>
      <trkpt lat="43.59787" lon="1.24447">
        <ele>182.6</ele>
        <time>2022-09-27T15:42:33Z</time>
      </trkpt>
      <trkpt lat="43.5976" lon="1.24475">
        <ele>182.8</ele>
        <time>2022-09-27T15:42:39Z</time>
      </trkpt>
      <trkpt lat="43.59733" lon="1.24504">
        <ele>182.8</ele>
        <time>2022-09-27T15:42:45Z</time>
      </trkpt>
      <trkpt lat="43.59724" lon="1.24512">
        <ele>183</ele>
        <time>2022-09-27T15:42:47Z</time>
      </trkpt>
      <trkpt lat="43.5972" lon="1.24517">
        <ele>183</ele>
        <time>2022-09-27T15:42:48Z</time>
      </trkpt>
      <trkpt lat="43.59683" lon="1.24554">
        <ele>183.4</ele>
        <time>2022-09-27T15:42:56Z</time>
      </trkpt>
      <trkpt lat="43.59633" lon="1.24596">
        <ele>183.6</ele>
        <time>2022-09-27T15:43:05Z</time>
      </trkpt>
      <trkpt lat="43.59582" lon="1.24636">
        <ele>183.8</ele>
        <time>2022-09-27T15:43:14Z</time>
      </trkpt>
      <trkpt lat="43.59528" lon="1.24675">
        <ele>184</ele>
        <time>2022-09-27T15:43:23Z</time>
      </trkpt>
      <trkpt lat="43.5951" lon="1.24685">
        <ele>184</ele>
        <time>2022-09-27T15:43:26Z</time>
      </trkpt>
      <trkpt lat="43.59456" lon="1.24714">
        <ele>184.8</ele>
        <time>2022-09-27T15:43:35Z</time>
      </trkpt>
      <trkpt lat="43.5945" lon="1.24717">
        <ele>184.8</ele>
        <time>2022-09-27T15:43:36Z</time>
      </trkpt>
      <trkpt lat="43.59422" lon="1.24738">
        <ele>184.8</ele>
        <time>2022-09-27T15:43:41Z</time>
      </trkpt>
      <trkpt lat="43.59418" lon="1.24743">
        <ele>184.8</ele>
        <time>2022-09-27T15:43:42Z</time>
      </trkpt>
      <trkpt lat="43.5941" lon="1.24755">
        <ele>185</ele>
        <time>2022-09-27T15:43:44Z</time>
      </trkpt>
      <trkpt lat="43.59396" lon="1.24772">
        <ele>185.4</ele>
        <time>2022-09-27T15:43:47Z</time>
      </trkpt>
      <trkpt lat="43.5936" lon="1.2482">
        <ele>185.6</ele>
        <time>2022-09-27T15:43:55Z</time>
      </trkpt>
      <trkpt lat="43.59325" lon="1.24869">
        <ele>185.6</ele>
        <time>2022-09-27T15:44:03Z</time>
      </trkpt>
      <trkpt lat="43.59294" lon="1.24915">
        <ele>185.8</ele>
        <time>2022-09-27T15:44:10Z</time>
      </trkpt>
      <trkpt lat="43.59284" lon="1.24927">
        <ele>185.8</ele>
        <time>2022-09-27T15:44:12Z</time>
      </trkpt>
      <trkpt lat="43.59244" lon="1.24986">
        <ele>185.8</ele>
        <time>2022-09-27T15:44:21Z</time>
      </trkpt>
      <trkpt lat="43.592" lon="1.25043">
        <ele>185.6</ele>
        <time>2022-09-27T15:44:30Z</time>
      </trkpt>
      <trkpt lat="43.59195" lon="1.25049">
        <ele>185.4</ele>
        <time>2022-09-27T15:44:31Z</time>
      </trkpt>
      <trkpt lat="43.5919" lon="1.25056">
        <ele>185.4</ele>
        <time>2022-09-27T15:44:32Z</time>
      </trkpt>
      <trkpt lat="43.59178" lon="1.25079">
        <ele>185.4</ele>
        <time>2022-09-27T15:44:35Z</time>
      </trkpt>
      <trkpt lat="43.59173" lon="1.25094">
        <ele>185.2</ele>
        <time>2022-09-27T15:44:37Z</time>
      </trkpt>
      <trkpt lat="43.59173" lon="1.25102">
        <ele>185.2</ele>
        <time>2022-09-27T15:44:38Z</time>
      </trkpt>
      <trkpt lat="43.59176" lon="1.25109">
        <ele>185.2</ele>
        <time>2022-09-27T15:44:39Z</time>
      </trkpt>
      <trkpt lat="43.59181" lon="1.25114">
        <ele>185.2</ele>
        <time>2022-09-27T15:44:40Z</time>
      </trkpt>
      <trkpt lat="43.59223" lon="1.25154">
        <ele>185</ele>
        <time>2022-09-27T15:44:48Z</time>
      </trkpt>
      <trkpt lat="43.59275" lon="1.25199">
        <ele>185.4</ele>
        <time>2022-09-27T15:44:57Z</time>
      </trkpt>
      <trkpt lat="43.59287" lon="1.25208">
        <ele>185.4</ele>
        <time>2022-09-27T15:44:59Z</time>
      </trkpt>
      <trkpt lat="43.59305" lon="1.25224">
        <ele>185.4</ele>
        <time>2022-09-27T15:45:02Z</time>
      </trkpt>
      <trkpt lat="43.59311" lon="1.25231">
        <ele>185.4</ele>
        <time>2022-09-27T15:45:03Z</time>
      </trkpt>
      <trkpt lat="43.59345" lon="1.25265">
        <ele>185.4</ele>
        <time>2022-09-27T15:45:09Z</time>
      </trkpt>
      <trkpt lat="43.59378" lon="1.25283">
        <ele>185.2</ele>
        <time>2022-09-27T15:45:14Z</time>
      </trkpt>
      <trkpt lat="43.59433" lon="1.25302">
        <ele>185</ele>
        <time>2022-09-27T15:45:22Z</time>
      </trkpt>
      <trkpt lat="43.5944" lon="1.25304">
        <ele>185</ele>
        <time>2022-09-27T15:45:23Z</time>
      </trkpt>
      <trkpt lat="43.59494" lon="1.25319">
        <ele>185.6</ele>
        <time>2022-09-27T15:45:31Z</time>
      </trkpt>
      <trkpt lat="43.59506" lon="1.25325">
        <ele>185.6</ele>
        <time>2022-09-27T15:45:33Z</time>
      </trkpt>
      <trkpt lat="43.59517" lon="1.25335">
        <ele>185.6</ele>
        <time>2022-09-27T15:45:35Z</time>
      </trkpt>
      <trkpt lat="43.59541" lon="1.25369">
        <ele>185.8</ele>
        <time>2022-09-27T15:45:40Z</time>
      </trkpt>
      <trkpt lat="43.59551" lon="1.2538">
        <ele>185.8</ele>
        <time>2022-09-27T15:45:42Z</time>
      </trkpt>
      <trkpt lat="43.59561" lon="1.2539">
        <ele>186</ele>
        <time>2022-09-27T15:45:44Z</time>
      </trkpt>
      <trkpt lat="43.59571" lon="1.254">
        <ele>186</ele>
        <time>2022-09-27T15:45:46Z</time>
      </trkpt>
      <trkpt lat="43.59582" lon="1.25408">
        <ele>186.2</ele>
        <time>2022-09-27T15:45:48Z</time>
      </trkpt>
      <trkpt lat="43.59589" lon="1.2541">
        <ele>186.2</ele>
        <time>2022-09-27T15:45:49Z</time>
      </trkpt>
      <trkpt lat="43.59629" lon="1.2542">
        <ele>186.4</ele>
        <time>2022-09-27T15:45:55Z</time>
      </trkpt>
      <trkpt lat="43.59685" lon="1.25425">
        <ele>186.2</ele>
        <time>2022-09-27T15:46:03Z</time>
      </trkpt>
      <trkpt lat="43.59691" lon="1.25426">
        <ele>186.2</ele>
        <time>2022-09-27T15:46:04Z</time>
      </trkpt>
      <trkpt lat="43.59698" lon="1.25428">
        <ele>186.2</ele>
        <time>2022-09-27T15:46:05Z</time>
      </trkpt>
      <trkpt lat="43.59718" lon="1.25433">
        <ele>186</ele>
        <time>2022-09-27T15:46:08Z</time>
      </trkpt>
      <trkpt lat="43.59772" lon="1.25441">
        <ele>186</ele>
        <time>2022-09-27T15:46:16Z</time>
      </trkpt>
      <trkpt lat="43.59786" lon="1.25442">
        <ele>186</ele>
        <time>2022-09-27T15:46:18Z</time>
      </trkpt>
      <trkpt lat="43.59812" lon="1.25445">
        <ele>186</ele>
        <time>2022-09-27T15:46:22Z</time>
      </trkpt>
      <trkpt lat="43.59827" lon="1.25449">
        <ele>185.8</ele>
        <time>2022-09-27T15:46:24Z</time>
      </trkpt>
      <trkpt lat="43.59873" lon="1.25457">
        <ele>185.6</ele>
        <time>2022-09-27T15:46:31Z</time>
      </trkpt>
      <trkpt lat="43.59929" lon="1.25464">
        <ele>185.2</ele>
        <time>2022-09-27T15:46:40Z</time>
      </trkpt>
      <trkpt lat="43.59971" lon="1.25477">
        <ele>185.2</ele>
        <time>2022-09-27T15:46:47Z</time>
      </trkpt>
      <trkpt lat="43.59994" lon="1.25481">
        <ele>185.2</ele>
        <time>2022-09-27T15:46:52Z</time>
      </trkpt>
      <trkpt lat="43.6" lon="1.25492">
        <ele>185.2</ele>
        <time>2022-09-27T15:46:55Z</time>
      </trkpt>
      <trkpt lat="43.60001" lon="1.25498">
        <ele>185.2</ele>
        <time>2022-09-27T15:46:56Z</time>
      </trkpt>
      <trkpt lat="43.60003" lon="1.25528">
        <ele>185.4</ele>
        <time>2022-09-27T15:47:00Z</time>
      </trkpt>
      <trkpt lat="43.60002" lon="1.25585">
        <ele>185.4</ele>
        <time>2022-09-27T15:47:06Z</time>
      </trkpt>
      <trkpt lat="43.6" lon="1.25613">
        <ele>185</ele>
        <time>2022-09-27T15:47:09Z</time>
      </trkpt>
      <trkpt lat="43.59995" lon="1.25667">
        <ele>184.6</ele>
        <time>2022-09-27T15:47:14Z</time>
      </trkpt>
      <trkpt lat="43.5999" lon="1.25742">
        <ele>184.2</ele>
        <time>2022-09-27T15:47:21Z</time>
      </trkpt>
      <trkpt lat="43.59988" lon="1.25761">
        <ele>184</ele>
        <time>2022-09-27T15:47:23Z</time>
      </trkpt>
      <trkpt lat="43.59981" lon="1.25838">
        <ele>183.4</ele>
        <time>2022-09-27T15:47:30Z</time>
      </trkpt>
      <trkpt lat="43.59979" lon="1.25849">
        <ele>183.4</ele>
        <time>2022-09-27T15:47:31Z</time>
      </trkpt>
      <trkpt lat="43.59969" lon="1.25925">
        <ele>183.2</ele>
        <time>2022-09-27T15:47:38Z</time>
      </trkpt>
      <trkpt lat="43.59965" lon="1.2595">
        <ele>183.2</ele>
        <time>2022-09-27T15:47:40Z</time>
      </trkpt>
      <trkpt lat="43.5995" lon="1.2603">
        <ele>183</ele>
        <time>2022-09-27T15:47:47Z</time>
      </trkpt>
      <trkpt lat="43.59948" lon="1.26039">
        <ele>183</ele>
        <time>2022-09-27T15:47:48Z</time>
      </trkpt>
      <trkpt lat="43.59931" lon="1.26121">
        <ele>183</ele>
        <time>2022-09-27T15:47:55Z</time>
      </trkpt>
      <trkpt lat="43.59924" lon="1.26153">
        <ele>183</ele>
        <time>2022-09-27T15:47:58Z</time>
      </trkpt>
      <trkpt lat="43.59922" lon="1.26165">
        <ele>182.8</ele>
        <time>2022-09-27T15:47:59Z</time>
      </trkpt>
      <trkpt lat="43.59913" lon="1.26223">
        <ele>182.6</ele>
        <time>2022-09-27T15:48:04Z</time>
      </trkpt>
      <trkpt lat="43.59906" lon="1.26254">
        <ele>182.2</ele>
        <time>2022-09-27T15:48:07Z</time>
      </trkpt>
      <trkpt lat="43.59907" lon="1.26262">
        <ele>182.2</ele>
        <time>2022-09-27T15:48:08Z</time>
      </trkpt>
      <trkpt lat="43.59908" lon="1.26275">
        <ele>182</ele>
        <time>2022-09-27T15:48:09Z</time>
      </trkpt>
      <trkpt lat="43.59911" lon="1.26306">
        <ele>182</ele>
        <time>2022-09-27T15:48:12Z</time>
      </trkpt>
      <trkpt lat="43.59911" lon="1.26377">
        <ele>181.6</ele>
        <time>2022-09-27T15:48:18Z</time>
      </trkpt>
      <trkpt lat="43.59911" lon="1.26454">
        <ele>181</ele>
        <time>2022-09-27T15:48:24Z</time>
      </trkpt>
      <trkpt lat="43.59911" lon="1.26466">
        <ele>180.8</ele>
        <time>2022-09-27T15:48:25Z</time>
      </trkpt>
      <trkpt lat="43.5991" lon="1.26479">
        <ele>180.8</ele>
        <time>2022-09-27T15:48:26Z</time>
      </trkpt>
      <trkpt lat="43.59904" lon="1.26564">
        <ele>179.8</ele>
        <time>2022-09-27T15:48:33Z</time>
      </trkpt>
      <trkpt lat="43.59904" lon="1.26579">
        <ele>179.8</ele>
        <time>2022-09-27T15:48:34Z</time>
      </trkpt>
      <trkpt lat="43.59904" lon="1.26591">
        <ele>179.6</ele>
        <time>2022-09-27T15:48:35Z</time>
      </trkpt>
      <trkpt lat="43.59907" lon="1.26672">
        <ele>178.8</ele>
        <time>2022-09-27T15:48:42Z</time>
      </trkpt>
      <trkpt lat="43.59908" lon="1.26684">
        <ele>178.8</ele>
        <time>2022-09-27T15:48:43Z</time>
      </trkpt>
      <trkpt lat="43.5991" lon="1.26768">
        <ele>178.2</ele>
        <time>2022-09-27T15:48:50Z</time>
      </trkpt>
      <trkpt lat="43.59909" lon="1.26777">
        <ele>178</ele>
        <time>2022-09-27T15:48:51Z</time>
      </trkpt>
      <trkpt lat="43.59897" lon="1.26846">
        <ele>177.6</ele>
        <time>2022-09-27T15:48:57Z</time>
      </trkpt>
      <trkpt lat="43.59883" lon="1.26897">
        <ele>177.4</ele>
        <time>2022-09-27T15:49:02Z</time>
      </trkpt>
      <trkpt lat="43.59871" lon="1.26937">
        <ele>177</ele>
        <time>2022-09-27T15:49:06Z</time>
      </trkpt>
      <trkpt lat="43.5986" lon="1.26966">
        <ele>176.8</ele>
        <time>2022-09-27T15:49:09Z</time>
      </trkpt>
      <trkpt lat="43.59837" lon="1.27026">
        <ele>177</ele>
        <time>2022-09-27T15:49:16Z</time>
      </trkpt>
      <trkpt lat="43.59819" lon="1.27097">
        <ele>177.2</ele>
        <time>2022-09-27T15:49:23Z</time>
      </trkpt>
      <trkpt lat="43.59816" lon="1.2716">
        <ele>176.8</ele>
        <time>2022-09-27T15:49:28Z</time>
      </trkpt>
      <trkpt lat="43.59815" lon="1.27172">
        <ele>176.6</ele>
        <time>2022-09-27T15:49:29Z</time>
      </trkpt>
      <trkpt lat="43.59808" lon="1.27219">
        <ele>175.8</ele>
        <time>2022-09-27T15:49:32Z</time>
      </trkpt>
      <trkpt lat="43.59804" lon="1.27235">
        <ele>175.4</ele>
        <time>2022-09-27T15:49:33Z</time>
      </trkpt>
      <trkpt lat="43.59796" lon="1.27264">
        <ele>174.4</ele>
        <time>2022-09-27T15:49:35Z</time>
      </trkpt>
      <trkpt lat="43.59791" lon="1.2728">
        <ele>173.2</ele>
        <time>2022-09-27T15:49:36Z</time>
      </trkpt>
      <trkpt lat="43.59784" lon="1.27298">
        <ele>172</ele>
        <time>2022-09-27T15:49:37Z</time>
      </trkpt>
      <trkpt lat="43.59775" lon="1.27326">
        <ele>170.4</ele>
        <time>2022-09-27T15:49:39Z</time>
      </trkpt>
      <trkpt lat="43.59764" lon="1.27357">
        <ele>168.6</ele>
        <time>2022-09-27T15:49:41Z</time>
      </trkpt>
      <trkpt lat="43.59759" lon="1.27371">
        <ele>168.2</ele>
        <time>2022-09-27T15:49:42Z</time>
      </trkpt>
      <trkpt lat="43.59755" lon="1.27384">
        <ele>167</ele>
        <time>2022-09-27T15:49:43Z</time>
      </trkpt>
      <trkpt lat="43.5975" lon="1.27397">
        <ele>166</ele>
        <time>2022-09-27T15:49:44Z</time>
      </trkpt>
      <trkpt lat="43.59737" lon="1.27434">
        <ele>164.8</ele>
        <time>2022-09-27T15:49:47Z</time>
      </trkpt>
      <trkpt lat="43.59726" lon="1.2747">
        <ele>163.2</ele>
        <time>2022-09-27T15:49:50Z</time>
      </trkpt>
      <trkpt lat="43.59713" lon="1.27504">
        <ele>161.8</ele>
        <time>2022-09-27T15:49:53Z</time>
      </trkpt>
      <trkpt lat="43.59699" lon="1.27548">
        <ele>160.8</ele>
        <time>2022-09-27T15:49:57Z</time>
      </trkpt>
      <trkpt lat="43.59689" lon="1.2758">
        <ele>160.2</ele>
        <time>2022-09-27T15:50:00Z</time>
      </trkpt>
      <trkpt lat="43.59682" lon="1.27601">
        <ele>159.6</ele>
        <time>2022-09-27T15:50:02Z</time>
      </trkpt>
      <trkpt lat="43.59671" lon="1.27642">
        <ele>159</ele>
        <time>2022-09-27T15:50:06Z</time>
      </trkpt>
      <trkpt lat="43.59664" lon="1.27668">
        <ele>158.6</ele>
        <time>2022-09-27T15:50:09Z</time>
      </trkpt>
      <trkpt lat="43.59659" lon="1.27678">
        <ele>158.6</ele>
        <time>2022-09-27T15:50:10Z</time>
      </trkpt>
      <trkpt lat="43.59654" lon="1.27683">
        <ele>158.4</ele>
        <time>2022-09-27T15:50:11Z</time>
      </trkpt>
      <trkpt lat="43.59648" lon="1.27684">
        <ele>158.4</ele>
        <time>2022-09-27T15:50:12Z</time>
      </trkpt>
      <trkpt lat="43.59641" lon="1.27683">
        <ele>158.2</ele>
        <time>2022-09-27T15:50:13Z</time>
      </trkpt>
      <trkpt lat="43.59622" lon="1.27676">
        <ele>158</ele>
        <time>2022-09-27T15:50:16Z</time>
      </trkpt>
      <trkpt lat="43.5961" lon="1.27678">
        <ele>158</ele>
        <time>2022-09-27T15:50:18Z</time>
      </trkpt>
      <trkpt lat="43.59603" lon="1.27683">
        <ele>158</ele>
        <time>2022-09-27T15:50:19Z</time>
      </trkpt>
      <trkpt lat="43.59599" lon="1.27693">
        <ele>158</ele>
        <time>2022-09-27T15:50:20Z</time>
      </trkpt>
      <trkpt lat="43.59599" lon="1.27703">
        <ele>157.8</ele>
        <time>2022-09-27T15:50:21Z</time>
      </trkpt>
      <trkpt lat="43.59592" lon="1.27731">
        <ele>157.6</ele>
        <time>2022-09-27T15:50:24Z</time>
      </trkpt>
      <trkpt lat="43.59585" lon="1.27754">
        <ele>157.4</ele>
        <time>2022-09-27T15:50:26Z</time>
      </trkpt>
      <trkpt lat="43.59574" lon="1.27784">
        <ele>156.8</ele>
        <time>2022-09-27T15:50:29Z</time>
      </trkpt>
      <trkpt lat="43.59565" lon="1.27809">
        <ele>156.4</ele>
        <time>2022-09-27T15:50:31Z</time>
      </trkpt>
      <trkpt lat="43.5954" lon="1.27869">
        <ele>155.8</ele>
        <time>2022-09-27T15:50:37Z</time>
      </trkpt>
      <trkpt lat="43.59531" lon="1.27891">
        <ele>155.2</ele>
        <time>2022-09-27T15:50:39Z</time>
      </trkpt>
      <trkpt lat="43.59508" lon="1.27935">
        <ele>154.6</ele>
        <time>2022-09-27T15:50:44Z</time>
      </trkpt>
      <trkpt lat="43.59498" lon="1.27961">
        <ele>154.2</ele>
        <time>2022-09-27T15:50:47Z</time>
      </trkpt>
      <trkpt lat="43.59494" lon="1.2798">
        <ele>154</ele>
        <time>2022-09-27T15:50:49Z</time>
      </trkpt>
      <trkpt lat="43.59485" lon="1.28058">
        <ele>154</ele>
        <time>2022-09-27T15:50:57Z</time>
      </trkpt>
      <trkpt lat="43.59477" lon="1.28108">
        <ele>154.2</ele>
        <time>2022-09-27T15:51:03Z</time>
      </trkpt>
      <trkpt lat="43.59467" lon="1.28162">
        <ele>155.2</ele>
        <time>2022-09-27T15:51:10Z</time>
      </trkpt>
      <trkpt lat="43.59465" lon="1.28169">
        <ele>155.4</ele>
        <time>2022-09-27T15:51:11Z</time>
      </trkpt>
      <trkpt lat="43.59456" lon="1.28202">
        <ele>156.6</ele>
        <time>2022-09-27T15:51:16Z</time>
      </trkpt>
      <trkpt lat="43.59454" lon="1.28208">
        <ele>157</ele>
        <time>2022-09-27T15:51:17Z</time>
      </trkpt>
      <trkpt lat="43.59448" lon="1.28226">
        <ele>157.6</ele>
        <time>2022-09-27T15:51:20Z</time>
      </trkpt>
      <trkpt lat="43.59441" lon="1.28242">
        <ele>158.2</ele>
        <time>2022-09-27T15:51:23Z</time>
      </trkpt>
      <trkpt lat="43.59438" lon="1.28247">
        <ele>158.6</ele>
        <time>2022-09-27T15:51:24Z</time>
      </trkpt>
      <trkpt lat="43.59427" lon="1.28272">
        <ele>160</ele>
        <time>2022-09-27T15:51:29Z</time>
      </trkpt>
      <trkpt lat="43.59415" lon="1.28293">
        <ele>161.4</ele>
        <time>2022-09-27T15:51:34Z</time>
      </trkpt>
      <trkpt lat="43.59404" lon="1.28309">
        <ele>162.6</ele>
        <time>2022-09-27T15:51:38Z</time>
      </trkpt>
      <trkpt lat="43.59396" lon="1.28318">
        <ele>163.2</ele>
        <time>2022-09-27T15:51:41Z</time>
      </trkpt>
      <trkpt lat="43.59393" lon="1.28323">
        <ele>163.6</ele>
        <time>2022-09-27T15:51:42Z</time>
      </trkpt>
      <trkpt lat="43.5938" lon="1.28341">
        <ele>164.4</ele>
        <time>2022-09-27T15:51:46Z</time>
      </trkpt>
      <trkpt lat="43.5936" lon="1.28371">
        <ele>165.6</ele>
        <time>2022-09-27T15:51:52Z</time>
      </trkpt>
      <trkpt lat="43.59349" lon="1.28387">
        <ele>166.2</ele>
        <time>2022-09-27T15:51:55Z</time>
      </trkpt>
      <trkpt lat="43.59342" lon="1.28398">
        <ele>166.8</ele>
        <time>2022-09-27T15:51:57Z</time>
      </trkpt>
      <trkpt lat="43.59327" lon="1.28418">
        <ele>167.8</ele>
        <time>2022-09-27T15:52:02Z</time>
      </trkpt>
      <trkpt lat="43.59325" lon="1.28423">
        <ele>168</ele>
        <time>2022-09-27T15:52:03Z</time>
      </trkpt>
      <trkpt lat="43.59315" lon="1.28437">
        <ele>168.8</ele>
        <time>2022-09-27T15:52:07Z</time>
      </trkpt>
      <trkpt lat="43.59303" lon="1.2845">
        <ele>169.6</ele>
        <time>2022-09-27T15:52:11Z</time>
      </trkpt>
      <trkpt lat="43.59299" lon="1.28453">
        <ele>169.8</ele>
        <time>2022-09-27T15:52:12Z</time>
      </trkpt>
      <trkpt lat="43.59281" lon="1.28472">
        <ele>170.8</ele>
        <time>2022-09-27T15:52:18Z</time>
      </trkpt>
      <trkpt lat="43.59278" lon="1.28476">
        <ele>171</ele>
        <time>2022-09-27T15:52:19Z</time>
      </trkpt>
      <trkpt lat="43.59262" lon="1.28492">
        <ele>172.2</ele>
        <time>2022-09-27T15:52:24Z</time>
      </trkpt>
      <trkpt lat="43.59255" lon="1.28498">
        <ele>172.6</ele>
        <time>2022-09-27T15:52:26Z</time>
      </trkpt>
      <trkpt lat="43.59243" lon="1.28512">
        <ele>173.2</ele>
        <time>2022-09-27T15:52:30Z</time>
      </trkpt>
      <trkpt lat="43.59232" lon="1.28521">
        <ele>173.8</ele>
        <time>2022-09-27T15:52:33Z</time>
      </trkpt>
      <trkpt lat="43.59225" lon="1.28525">
        <ele>174</ele>
        <time>2022-09-27T15:52:35Z</time>
      </trkpt>
      <trkpt lat="43.59218" lon="1.28531">
        <ele>174.4</ele>
        <time>2022-09-27T15:52:37Z</time>
      </trkpt>
      <trkpt lat="43.59215" lon="1.28536">
        <ele>174.6</ele>
        <time>2022-09-27T15:52:38Z</time>
      </trkpt>
      <trkpt lat="43.59213" lon="1.28541">
        <ele>174.6</ele>
        <time>2022-09-27T15:52:39Z</time>
      </trkpt>
      <trkpt lat="43.59212" lon="1.28551">
        <ele>175</ele>
        <time>2022-09-27T15:52:41Z</time>
      </trkpt>
      <trkpt lat="43.59212" lon="1.28556">
        <ele>175.2</ele>
        <time>2022-09-27T15:52:42Z</time>
      </trkpt>
      <trkpt lat="43.59215" lon="1.28563">
        <ele>175.4</ele>
        <time>2022-09-27T15:52:43Z</time>
      </trkpt>
      <trkpt lat="43.59222" lon="1.28571">
        <ele>175.8</ele>
        <time>2022-09-27T15:52:45Z</time>
      </trkpt>
      <trkpt lat="43.5923" lon="1.28572">
        <ele>175.8</ele>
        <time>2022-09-27T15:52:47Z</time>
      </trkpt>
      <trkpt lat="43.59241" lon="1.2857">
        <ele>176.2</ele>
        <time>2022-09-27T15:52:49Z</time>
      </trkpt>
      <trkpt lat="43.59251" lon="1.28567">
        <ele>176.4</ele>
        <time>2022-09-27T15:52:51Z</time>
      </trkpt>
      <trkpt lat="43.59262" lon="1.28568">
        <ele>176.8</ele>
        <time>2022-09-27T15:52:53Z</time>
      </trkpt>
      <trkpt lat="43.59268" lon="1.2857">
        <ele>176.8</ele>
        <time>2022-09-27T15:52:54Z</time>
      </trkpt>
      <trkpt lat="43.59301" lon="1.28579">
        <ele>177.4</ele>
        <time>2022-09-27T15:53:00Z</time>
      </trkpt>
      <trkpt lat="43.59358" lon="1.286">
        <ele>177.6</ele>
        <time>2022-09-27T15:53:10Z</time>
      </trkpt>
      <trkpt lat="43.59404" lon="1.28628">
        <ele>177.2</ele>
        <time>2022-09-27T15:53:18Z</time>
      </trkpt>
      <trkpt lat="43.59454" lon="1.28674">
        <ele>176.8</ele>
        <time>2022-09-27T15:53:27Z</time>
      </trkpt>
      <trkpt lat="43.59487" lon="1.28715">
        <ele>176.2</ele>
        <time>2022-09-27T15:53:33Z</time>
      </trkpt>
      <trkpt lat="43.59522" lon="1.28773">
        <ele>176</ele>
        <time>2022-09-27T15:53:40Z</time>
      </trkpt>
      <trkpt lat="43.59556" lon="1.28836">
        <ele>176.2</ele>
        <time>2022-09-27T15:53:48Z</time>
      </trkpt>
      <trkpt lat="43.59593" lon="1.28895">
        <ele>176.6</ele>
        <time>2022-09-27T15:53:55Z</time>
      </trkpt>
      <trkpt lat="43.59598" lon="1.28902">
        <ele>176.6</ele>
        <time>2022-09-27T15:53:56Z</time>
      </trkpt>
      <trkpt lat="43.59642" lon="1.28962">
        <ele>176.2</ele>
        <time>2022-09-27T15:54:04Z</time>
      </trkpt>
      <trkpt lat="43.59658" lon="1.28984">
        <ele>176</ele>
        <time>2022-09-27T15:54:07Z</time>
      </trkpt>
      <trkpt lat="43.59666" lon="1.29">
        <ele>175.8</ele>
        <time>2022-09-27T15:54:09Z</time>
      </trkpt>
      <trkpt lat="43.59675" lon="1.29016">
        <ele>175.8</ele>
        <time>2022-09-27T15:54:11Z</time>
      </trkpt>
      <trkpt lat="43.59678" lon="1.29023">
        <ele>175.8</ele>
        <time>2022-09-27T15:54:12Z</time>
      </trkpt>
      <trkpt lat="43.59679" lon="1.29032">
        <ele>175.6</ele>
        <time>2022-09-27T15:54:13Z</time>
      </trkpt>
      <trkpt lat="43.59681" lon="1.29052">
        <ele>175.4</ele>
        <time>2022-09-27T15:54:15Z</time>
      </trkpt>
      <trkpt lat="43.59678" lon="1.29069">
        <ele>175.6</ele>
        <time>2022-09-27T15:54:17Z</time>
      </trkpt>
      <trkpt lat="43.59675" lon="1.29079">
        <ele>175.6</ele>
        <time>2022-09-27T15:54:18Z</time>
      </trkpt>
      <trkpt lat="43.59648" lon="1.29146">
        <ele>175.4</ele>
        <time>2022-09-27T15:54:25Z</time>
      </trkpt>
      <trkpt lat="43.59618" lon="1.29218">
        <ele>175</ele>
        <time>2022-09-27T15:54:33Z</time>
      </trkpt>
      <trkpt lat="43.59605" lon="1.29247">
        <ele>175</ele>
        <time>2022-09-27T15:54:36Z</time>
      </trkpt>
      <trkpt lat="43.59589" lon="1.29281">
        <ele>175.2</ele>
        <time>2022-09-27T15:54:40Z</time>
      </trkpt>
      <trkpt lat="43.59575" lon="1.29305">
        <ele>175.2</ele>
        <time>2022-09-27T15:54:43Z</time>
      </trkpt>
      <trkpt lat="43.5955" lon="1.29339">
        <ele>175.4</ele>
        <time>2022-09-27T15:54:48Z</time>
      </trkpt>
      <trkpt lat="43.59528" lon="1.29365">
        <ele>175.6</ele>
        <time>2022-09-27T15:54:53Z</time>
      </trkpt>
      <trkpt lat="43.59523" lon="1.29369">
        <ele>175.6</ele>
        <time>2022-09-27T15:54:54Z</time>
      </trkpt>
      <trkpt lat="43.59483" lon="1.29394">
        <ele>176.4</ele>
        <time>2022-09-27T15:55:01Z</time>
      </trkpt>
      <trkpt lat="43.59444" lon="1.29402">
        <ele>176.2</ele>
        <time>2022-09-27T15:55:07Z</time>
      </trkpt>
      <trkpt lat="43.59405" lon="1.29393">
        <ele>176.4</ele>
        <time>2022-09-27T15:55:13Z</time>
      </trkpt>
      <trkpt lat="43.59347" lon="1.29375">
        <ele>177</ele>
        <time>2022-09-27T15:55:22Z</time>
      </trkpt>
      <trkpt lat="43.59342" lon="1.29374">
        <ele>177</ele>
        <time>2022-09-27T15:55:23Z</time>
      </trkpt>
      <trkpt lat="43.59335" lon="1.29372">
        <ele>177</ele>
        <time>2022-09-27T15:55:24Z</time>
      </trkpt>
      <trkpt lat="43.59329" lon="1.29369">
        <ele>177</ele>
        <time>2022-09-27T15:55:25Z</time>
      </trkpt>
      <trkpt lat="43.59303" lon="1.29361">
        <ele>177</ele>
        <time>2022-09-27T15:55:29Z</time>
      </trkpt>
      <trkpt lat="43.59256" lon="1.29346">
        <ele>177.2</ele>
        <time>2022-09-27T15:55:36Z</time>
      </trkpt>
      <trkpt lat="43.5925" lon="1.29342">
        <ele>177.2</ele>
        <time>2022-09-27T15:55:37Z</time>
      </trkpt>
      <trkpt lat="43.59226" lon="1.29319">
        <ele>177.2</ele>
        <time>2022-09-27T15:55:42Z</time>
      </trkpt>
      <trkpt lat="43.59224" lon="1.29315">
        <ele>177.4</ele>
        <time>2022-09-27T15:55:43Z</time>
      </trkpt>
      <trkpt lat="43.5922" lon="1.29307">
        <ele>177.2</ele>
        <time>2022-09-27T15:55:44Z</time>
      </trkpt>
      <trkpt lat="43.59216" lon="1.29293">
        <ele>177.2</ele>
        <time>2022-09-27T15:55:46Z</time>
      </trkpt>
      <trkpt lat="43.59214" lon="1.29287">
        <ele>177.2</ele>
        <time>2022-09-27T15:55:47Z</time>
      </trkpt>
      <trkpt lat="43.5921" lon="1.29276">
        <ele>177.4</ele>
        <time>2022-09-27T15:55:49Z</time>
      </trkpt>
      <trkpt lat="43.59208" lon="1.29264">
        <ele>177.4</ele>
        <time>2022-09-27T15:55:51Z</time>
      </trkpt>
      <trkpt lat="43.59204" lon="1.29261">
        <ele>177.4</ele>
        <time>2022-09-27T15:55:53Z</time>
      </trkpt>
      <trkpt lat="43.592" lon="1.29269">
        <ele>177.4</ele>
        <time>2022-09-27T15:55:55Z</time>
      </trkpt>
      <trkpt lat="43.59198" lon="1.29274">
        <ele>177.4</ele>
        <time>2022-09-27T15:55:56Z</time>
      </trkpt>
      <trkpt lat="43.59185" lon="1.29298">
        <ele>177</ele>
        <time>2022-09-27T15:56:00Z</time>
      </trkpt>
      <trkpt lat="43.59182" lon="1.29312">
        <ele>176.8</ele>
        <time>2022-09-27T15:56:02Z</time>
      </trkpt>
      <trkpt lat="43.59183" lon="1.2932">
        <ele>176.8</ele>
        <time>2022-09-27T15:56:03Z</time>
      </trkpt>
      <trkpt lat="43.59188" lon="1.29345">
        <ele>176.6</ele>
        <time>2022-09-27T15:56:06Z</time>
      </trkpt>
      <trkpt lat="43.59187" lon="1.29361">
        <ele>176.4</ele>
        <time>2022-09-27T15:56:08Z</time>
      </trkpt>
      <trkpt lat="43.59178" lon="1.29429">
        <ele>176.2</ele>
        <time>2022-09-27T15:56:15Z</time>
      </trkpt>
      <trkpt lat="43.59176" lon="1.29439">
        <ele>176</ele>
        <time>2022-09-27T15:56:16Z</time>
      </trkpt>
      <trkpt lat="43.59165" lon="1.29516">
        <ele>175.6</ele>
        <time>2022-09-27T15:56:24Z</time>
      </trkpt>
      <trkpt lat="43.59155" lon="1.29594">
        <ele>175.8</ele>
        <time>2022-09-27T15:56:32Z</time>
      </trkpt>
      <trkpt lat="43.59147" lon="1.29649">
        <ele>176</ele>
        <time>2022-09-27T15:56:37Z</time>
      </trkpt>
      <trkpt lat="43.59142" lon="1.29723">
        <ele>176.2</ele>
        <time>2022-09-27T15:56:44Z</time>
      </trkpt>
      <trkpt lat="43.59141" lon="1.29736">
        <ele>176.2</ele>
        <time>2022-09-27T15:56:45Z</time>
      </trkpt>
      <trkpt lat="43.59135" lon="1.29786">
        <ele>176.2</ele>
        <time>2022-09-27T15:56:50Z</time>
      </trkpt>
      <trkpt lat="43.59132" lon="1.29844">
        <ele>176.2</ele>
        <time>2022-09-27T15:56:56Z</time>
      </trkpt>
      <trkpt lat="43.59131" lon="1.29869">
        <ele>176.4</ele>
        <time>2022-09-27T15:56:59Z</time>
      </trkpt>
      <trkpt lat="43.59129" lon="1.29879">
        <ele>176.6</ele>
        <time>2022-09-27T15:57:00Z</time>
      </trkpt>
      <trkpt lat="43.59122" lon="1.29894">
        <ele>176.6</ele>
        <time>2022-09-27T15:57:02Z</time>
      </trkpt>
      <trkpt lat="43.59123" lon="1.29909">
        <ele>176.6</ele>
        <time>2022-09-27T15:57:04Z</time>
      </trkpt>
      <trkpt lat="43.59131" lon="1.29921">
        <ele>176.6</ele>
        <time>2022-09-27T15:57:06Z</time>
      </trkpt>
      <trkpt lat="43.59143" lon="1.29925">
        <ele>176.6</ele>
        <time>2022-09-27T15:57:08Z</time>
      </trkpt>
      <trkpt lat="43.59156" lon="1.29934">
        <ele>176.8</ele>
        <time>2022-09-27T15:57:10Z</time>
      </trkpt>
      <trkpt lat="43.59168" lon="1.29944">
        <ele>176.8</ele>
        <time>2022-09-27T15:57:12Z</time>
      </trkpt>
      <trkpt lat="43.5918" lon="1.29951">
        <ele>176.8</ele>
        <time>2022-09-27T15:57:14Z</time>
      </trkpt>
      <trkpt lat="43.59188" lon="1.29955">
        <ele>176.8</ele>
        <time>2022-09-27T15:57:15Z</time>
      </trkpt>
      <trkpt lat="43.59212" lon="1.29971">
        <ele>176.8</ele>
        <time>2022-09-27T15:57:19Z</time>
      </trkpt>
      <trkpt lat="43.59217" lon="1.29978">
        <ele>176.8</ele>
        <time>2022-09-27T15:57:20Z</time>
      </trkpt>
      <trkpt lat="43.59221" lon="1.29989">
        <ele>176.8</ele>
        <time>2022-09-27T15:57:21Z</time>
      </trkpt>
      <trkpt lat="43.59225" lon="1.30007">
        <ele>176.8</ele>
        <time>2022-09-27T15:57:23Z</time>
      </trkpt>
      <trkpt lat="43.59224" lon="1.30051">
        <ele>176.6</ele>
        <time>2022-09-27T15:57:27Z</time>
      </trkpt>
      <trkpt lat="43.59223" lon="1.30135">
        <ele>176.2</ele>
        <time>2022-09-27T15:57:35Z</time>
      </trkpt>
      <trkpt lat="43.59225" lon="1.30217">
        <ele>176</ele>
        <time>2022-09-27T15:57:43Z</time>
      </trkpt>
      <trkpt lat="43.59219" lon="1.30261">
        <ele>176</ele>
        <time>2022-09-27T15:57:47Z</time>
      </trkpt>
      <trkpt lat="43.59216" lon="1.30269">
        <ele>176</ele>
        <time>2022-09-27T15:57:48Z</time>
      </trkpt>
      <trkpt lat="43.59213" lon="1.30279">
        <ele>176</ele>
        <time>2022-09-27T15:57:49Z</time>
      </trkpt>
      <trkpt lat="43.59202" lon="1.30297">
        <ele>176</ele>
        <time>2022-09-27T15:57:51Z</time>
      </trkpt>
      <trkpt lat="43.59178" lon="1.3032">
        <ele>176</ele>
        <time>2022-09-27T15:57:55Z</time>
      </trkpt>
      <trkpt lat="43.59125" lon="1.30362">
        <ele>176.6</ele>
        <time>2022-09-27T15:58:03Z</time>
      </trkpt>
      <trkpt lat="43.59106" lon="1.30377">
        <ele>176.6</ele>
        <time>2022-09-27T15:58:06Z</time>
      </trkpt>
      <trkpt lat="43.59068" lon="1.3041">
        <ele>177</ele>
        <time>2022-09-27T15:58:12Z</time>
      </trkpt>
      <trkpt lat="43.59058" lon="1.30425">
        <ele>177</ele>
        <time>2022-09-27T15:58:14Z</time>
      </trkpt>
      <trkpt lat="43.5905" lon="1.30443">
        <ele>177</ele>
        <time>2022-09-27T15:58:16Z</time>
      </trkpt>
      <trkpt lat="43.59046" lon="1.30464">
        <ele>177.2</ele>
        <time>2022-09-27T15:58:18Z</time>
      </trkpt>
      <trkpt lat="43.59044" lon="1.30485">
        <ele>177.2</ele>
        <time>2022-09-27T15:58:20Z</time>
      </trkpt>
      <trkpt lat="43.59042" lon="1.3053">
        <ele>177.2</ele>
        <time>2022-09-27T15:58:24Z</time>
      </trkpt>
      <trkpt lat="43.59043" lon="1.30563">
        <ele>177.2</ele>
        <time>2022-09-27T15:58:27Z</time>
      </trkpt>
      <trkpt lat="43.59046" lon="1.30584">
        <ele>177.2</ele>
        <time>2022-09-27T15:58:29Z</time>
      </trkpt>
      <trkpt lat="43.59057" lon="1.30657">
        <ele>177.2</ele>
        <time>2022-09-27T15:58:36Z</time>
      </trkpt>
      <trkpt lat="43.59062" lon="1.30689">
        <ele>177.2</ele>
        <time>2022-09-27T15:58:39Z</time>
      </trkpt>
      <trkpt lat="43.59075" lon="1.30763">
        <ele>177.2</ele>
        <time>2022-09-27T15:58:46Z</time>
      </trkpt>
      <trkpt lat="43.5908" lon="1.30784">
        <ele>177</ele>
        <time>2022-09-27T15:58:48Z</time>
      </trkpt>
      <trkpt lat="43.59094" lon="1.30835">
        <ele>176.8</ele>
        <time>2022-09-27T15:58:53Z</time>
      </trkpt>
      <trkpt lat="43.59098" lon="1.30844">
        <ele>176.8</ele>
        <time>2022-09-27T15:58:54Z</time>
      </trkpt>
      <trkpt lat="43.59106" lon="1.30862">
        <ele>176.8</ele>
        <time>2022-09-27T15:58:56Z</time>
      </trkpt>
      <trkpt lat="43.59111" lon="1.30869">
        <ele>176.8</ele>
        <time>2022-09-27T15:58:57Z</time>
      </trkpt>
      <trkpt lat="43.59122" lon="1.30881">
        <ele>176.8</ele>
        <time>2022-09-27T15:58:59Z</time>
      </trkpt>
      <trkpt lat="43.59135" lon="1.30891">
        <ele>176.6</ele>
        <time>2022-09-27T15:59:01Z</time>
      </trkpt>
      <trkpt lat="43.59169" lon="1.30925">
        <ele>176.4</ele>
        <time>2022-09-27T15:59:07Z</time>
      </trkpt>
      <trkpt lat="43.59178" lon="1.30939">
        <ele>176.4</ele>
        <time>2022-09-27T15:59:09Z</time>
      </trkpt>
      <trkpt lat="43.5918" lon="1.30948">
        <ele>176.4</ele>
        <time>2022-09-27T15:59:10Z</time>
      </trkpt>
      <trkpt lat="43.59183" lon="1.30956">
        <ele>176.4</ele>
        <time>2022-09-27T15:59:11Z</time>
      </trkpt>
      <trkpt lat="43.59192" lon="1.3097">
        <ele>176.4</ele>
        <time>2022-09-27T15:59:13Z</time>
      </trkpt>
      <trkpt lat="43.59204" lon="1.30973">
        <ele>176.6</ele>
        <time>2022-09-27T15:59:15Z</time>
      </trkpt>
      <trkpt lat="43.59211" lon="1.30971">
        <ele>176.6</ele>
        <time>2022-09-27T15:59:16Z</time>
      </trkpt>
      <trkpt lat="43.59216" lon="1.30965">
        <ele>176.6</ele>
        <time>2022-09-27T15:59:17Z</time>
      </trkpt>
      <trkpt lat="43.5922" lon="1.30957">
        <ele>176.6</ele>
        <time>2022-09-27T15:59:18Z</time>
      </trkpt>
      <trkpt lat="43.59222" lon="1.30948">
        <ele>176.8</ele>
        <time>2022-09-27T15:59:19Z</time>
      </trkpt>
      <trkpt lat="43.59221" lon="1.30929">
        <ele>177</ele>
        <time>2022-09-27T15:59:21Z</time>
      </trkpt>
      <trkpt lat="43.59222" lon="1.3092">
        <ele>177</ele>
        <time>2022-09-27T15:59:22Z</time>
      </trkpt>
      <trkpt lat="43.59226" lon="1.30903">
        <ele>177</ele>
        <time>2022-09-27T15:59:24Z</time>
      </trkpt>
      <trkpt lat="43.59238" lon="1.30882">
        <ele>177</ele>
        <time>2022-09-27T15:59:27Z</time>
      </trkpt>
      <trkpt lat="43.59249" lon="1.30873">
        <ele>177</ele>
        <time>2022-09-27T15:59:29Z</time>
      </trkpt>
      <trkpt lat="43.59261" lon="1.3087">
        <ele>176.8</ele>
        <time>2022-09-27T15:59:31Z</time>
      </trkpt>
      <trkpt lat="43.59274" lon="1.30871">
        <ele>176.8</ele>
        <time>2022-09-27T15:59:33Z</time>
      </trkpt>
      <trkpt lat="43.59328" lon="1.30878">
        <ele>176.8</ele>
        <time>2022-09-27T15:59:41Z</time>
      </trkpt>
      <trkpt lat="43.59335" lon="1.30879">
        <ele>176.8</ele>
        <time>2022-09-27T15:59:42Z</time>
      </trkpt>
      <trkpt lat="43.59392" lon="1.3089">
        <ele>176.4</ele>
        <time>2022-09-27T15:59:50Z</time>
      </trkpt>
      <trkpt lat="43.59405" lon="1.30892">
        <ele>176.4</ele>
        <time>2022-09-27T15:59:52Z</time>
      </trkpt>
      <trkpt lat="43.59412" lon="1.30893">
        <ele>176.4</ele>
        <time>2022-09-27T15:59:53Z</time>
      </trkpt>
      <trkpt lat="43.59459" lon="1.30901">
        <ele>176.2</ele>
        <time>2022-09-27T16:00:00Z</time>
      </trkpt>
      <trkpt lat="43.59502" lon="1.30909">
        <ele>176</ele>
        <time>2022-09-27T16:00:07Z</time>
      </trkpt>
      <trkpt lat="43.59508" lon="1.30911">
        <ele>176</ele>
        <time>2022-09-27T16:00:08Z</time>
      </trkpt>
      <trkpt lat="43.59511" lon="1.30916">
        <ele>176</ele>
        <time>2022-09-27T16:00:09Z</time>
      </trkpt>
      <trkpt lat="43.59512" lon="1.30923">
        <ele>176</ele>
        <time>2022-09-27T16:00:10Z</time>
      </trkpt>
      <trkpt lat="43.59511" lon="1.3093">
        <ele>176</ele>
        <time>2022-09-27T16:00:11Z</time>
      </trkpt>
      <trkpt lat="43.5951" lon="1.30961">
        <ele>175.8</ele>
        <time>2022-09-27T16:00:15Z</time>
      </trkpt>
      <trkpt lat="43.59507" lon="1.31001">
        <ele>175.8</ele>
        <time>2022-09-27T16:00:20Z</time>
      </trkpt>
      <trkpt lat="43.59503" lon="1.31016">
        <ele>176</ele>
        <time>2022-09-27T16:00:22Z</time>
      </trkpt>
      <trkpt lat="43.59501" lon="1.31032">
        <ele>176</ele>
        <time>2022-09-27T16:00:24Z</time>
      </trkpt>
      <trkpt lat="43.59501" lon="1.31049">
        <ele>176</ele>
        <time>2022-09-27T16:00:26Z</time>
      </trkpt>
      <trkpt lat="43.59497" lon="1.31128">
        <ele>176</ele>
        <time>2022-09-27T16:00:35Z</time>
      </trkpt>
      <trkpt lat="43.59495" lon="1.31203">
        <ele>176.2</ele>
        <time>2022-09-27T16:00:43Z</time>
      </trkpt>
      <trkpt lat="43.59495" lon="1.31213">
        <ele>176.4</ele>
        <time>2022-09-27T16:00:44Z</time>
      </trkpt>
      <trkpt lat="43.59494" lon="1.31282">
        <ele>176</ele>
        <time>2022-09-27T16:00:52Z</time>
      </trkpt>
      <trkpt lat="43.59493" lon="1.31301">
        <ele>176</ele>
        <time>2022-09-27T16:00:56Z</time>
      </trkpt>
      <trkpt lat="43.59493" lon="1.31327">
        <ele>176</ele>
        <time>2022-09-27T16:01:01Z</time>
      </trkpt>
      <trkpt lat="43.59492" lon="1.31362">
        <ele>176.2</ele>
        <time>2022-09-27T16:01:06Z</time>
      </trkpt>
      <trkpt lat="43.5949" lon="1.31424">
        <ele>175.8</ele>
        <time>2022-09-27T16:01:14Z</time>
      </trkpt>
      <trkpt lat="43.59488" lon="1.31438">
        <ele>175.8</ele>
        <time>2022-09-27T16:01:16Z</time>
      </trkpt>
      <trkpt lat="43.59485" lon="1.31443">
        <ele>175.6</ele>
        <time>2022-09-27T16:01:17Z</time>
      </trkpt>
      <trkpt lat="43.59481" lon="1.31447">
        <ele>175.6</ele>
        <time>2022-09-27T16:01:18Z</time>
      </trkpt>
      <trkpt lat="43.59471" lon="1.31451">
        <ele>175.6</ele>
        <time>2022-09-27T16:01:20Z</time>
      </trkpt>
      <trkpt lat="43.59452" lon="1.31457">
        <ele>175.6</ele>
        <time>2022-09-27T16:01:24Z</time>
      </trkpt>
      <trkpt lat="43.59449" lon="1.31459">
        <ele>175.6</ele>
        <time>2022-09-27T16:01:25Z</time>
      </trkpt>
      <trkpt lat="43.59447" lon="1.3146">
        <ele>175.6</ele>
        <time>2022-09-27T16:01:26Z</time>
      </trkpt>
      <trkpt lat="43.59442" lon="1.3146">
        <ele>175.6</ele>
        <time>2022-09-27T16:01:28Z</time>
      </trkpt>
      <trkpt lat="43.59428" lon="1.31468">
        <ele>175.6</ele>
        <time>2022-09-27T16:01:32Z</time>
      </trkpt>
      <trkpt lat="43.59409" lon="1.31478">
        <ele>175.4</ele>
        <time>2022-09-27T16:01:36Z</time>
      </trkpt>
      <trkpt lat="43.59394" lon="1.31484">
        <ele>175.4</ele>
        <time>2022-09-27T16:01:39Z</time>
      </trkpt>
      <trkpt lat="43.59352" lon="1.31506">
        <ele>175.4</ele>
        <time>2022-09-27T16:01:47Z</time>
      </trkpt>
      <trkpt lat="43.59311" lon="1.31522">
        <ele>175.4</ele>
        <time>2022-09-27T16:01:54Z</time>
      </trkpt>
      <trkpt lat="43.59306" lon="1.31523">
        <ele>175.4</ele>
        <time>2022-09-27T16:01:55Z</time>
      </trkpt>
      <trkpt lat="43.593" lon="1.31525">
        <ele>175.4</ele>
        <time>2022-09-27T16:01:56Z</time>
      </trkpt>
      <trkpt lat="43.59285" lon="1.31536">
        <ele>175.4</ele>
        <time>2022-09-27T16:01:59Z</time>
      </trkpt>
      <trkpt lat="43.59244" lon="1.31556">
        <ele>175.4</ele>
        <time>2022-09-27T16:02:06Z</time>
      </trkpt>
      <trkpt lat="43.5919" lon="1.31585">
        <ele>175.2</ele>
        <time>2022-09-27T16:02:15Z</time>
      </trkpt>
      <trkpt lat="43.59184" lon="1.31589">
        <ele>175.2</ele>
        <time>2022-09-27T16:02:16Z</time>
      </trkpt>
      <trkpt lat="43.59128" lon="1.3162">
        <ele>175.2</ele>
        <time>2022-09-27T16:02:25Z</time>
      </trkpt>
      <trkpt lat="43.59074" lon="1.3165">
        <ele>175.4</ele>
        <time>2022-09-27T16:02:34Z</time>
      </trkpt>
      <trkpt lat="43.59062" lon="1.31656">
        <ele>175.4</ele>
        <time>2022-09-27T16:02:36Z</time>
      </trkpt>
      <trkpt lat="43.59036" lon="1.31669">
        <ele>175.4</ele>
        <time>2022-09-27T16:02:41Z</time>
      </trkpt>
      <trkpt lat="43.58994" lon="1.31694">
        <ele>175.4</ele>
        <time>2022-09-27T16:02:49Z</time>
      </trkpt>
      <trkpt lat="43.58957" lon="1.31715">
        <ele>175.6</ele>
        <time>2022-09-27T16:02:56Z</time>
      </trkpt>
      <trkpt lat="43.5891" lon="1.31741">
        <ele>175.8</ele>
        <time>2022-09-27T16:03:04Z</time>
      </trkpt>
      <trkpt lat="43.58877" lon="1.31757">
        <ele>175.8</ele>
        <time>2022-09-27T16:03:10Z</time>
      </trkpt>
      <trkpt lat="43.58872" lon="1.31757">
        <ele>175.8</ele>
        <time>2022-09-27T16:03:11Z</time>
      </trkpt>
      <trkpt lat="43.58867" lon="1.31754">
        <ele>175.8</ele>
        <time>2022-09-27T16:03:12Z</time>
      </trkpt>
      <trkpt lat="43.58858" lon="1.31745">
        <ele>175.6</ele>
        <time>2022-09-27T16:03:14Z</time>
      </trkpt>
      <trkpt lat="43.58815" lon="1.3169">
        <ele>175.8</ele>
        <time>2022-09-27T16:03:24Z</time>
      </trkpt>
      <trkpt lat="43.58789" lon="1.3166">
        <ele>175.6</ele>
        <time>2022-09-27T16:03:30Z</time>
      </trkpt>
      <trkpt lat="43.58785" lon="1.31658">
        <ele>175.6</ele>
        <time>2022-09-27T16:03:31Z</time>
      </trkpt>
      <trkpt lat="43.5878" lon="1.3166">
        <ele>175.6</ele>
        <time>2022-09-27T16:03:32Z</time>
      </trkpt>
      <trkpt lat="43.58772" lon="1.31669">
        <ele>175.4</ele>
        <time>2022-09-27T16:03:34Z</time>
      </trkpt>
      <trkpt lat="43.5875" lon="1.31704">
        <ele>175.4</ele>
        <time>2022-09-27T16:03:40Z</time>
      </trkpt>
      <trkpt lat="43.58728" lon="1.31744">
        <ele>175.4</ele>
        <time>2022-09-27T16:03:46Z</time>
      </trkpt>
      <trkpt lat="43.58695" lon="1.31805">
        <ele>175.2</ele>
        <time>2022-09-27T16:03:55Z</time>
      </trkpt>
      <trkpt lat="43.58689" lon="1.31818">
        <ele>175</ele>
        <time>2022-09-27T16:03:57Z</time>
      </trkpt>
      <trkpt lat="43.58675" lon="1.31843">
        <ele>175</ele>
        <time>2022-09-27T16:04:01Z</time>
      </trkpt>
      <trkpt lat="43.58672" lon="1.31858">
        <ele>175</ele>
        <time>2022-09-27T16:04:03Z</time>
      </trkpt>
      <trkpt lat="43.58671" lon="1.31866">
        <ele>175</ele>
        <time>2022-09-27T16:04:04Z</time>
      </trkpt>
      <trkpt lat="43.58671" lon="1.31874">
        <ele>175</ele>
        <time>2022-09-27T16:04:05Z</time>
      </trkpt>
      <trkpt lat="43.58675" lon="1.31904">
        <ele>175</ele>
        <time>2022-09-27T16:04:09Z</time>
      </trkpt>
      <trkpt lat="43.5868" lon="1.31938">
        <ele>174.6</ele>
        <time>2022-09-27T16:04:14Z</time>
      </trkpt>
      <trkpt lat="43.58679" lon="1.3194">
        <ele>174.6</ele>
        <time>2022-09-27T16:04:16Z</time>
      </trkpt>
      <trkpt lat="43.58671" lon="1.31946">
        <ele>174.4</ele>
        <time>2022-09-27T16:04:18Z</time>
      </trkpt>
      <trkpt lat="43.58666" lon="1.31952">
        <ele>174.4</ele>
        <time>2022-09-27T16:04:20Z</time>
      </trkpt>
      <trkpt lat="43.58664" lon="1.31959">
        <ele>174.2</ele>
        <time>2022-09-27T16:04:22Z</time>
      </trkpt>
      <trkpt lat="43.58671" lon="1.31968">
        <ele>174.2</ele>
        <time>2022-09-27T16:04:26Z</time>
      </trkpt>
      <trkpt lat="43.58675" lon="1.31977">
        <ele>174</ele>
        <time>2022-09-27T16:04:27Z</time>
      </trkpt>
      <trkpt lat="43.58681" lon="1.31988">
        <ele>173.8</ele>
        <time>2022-09-27T16:04:29Z</time>
      </trkpt>
      <trkpt lat="43.58686" lon="1.32029">
        <ele>173.4</ele>
        <time>2022-09-27T16:04:34Z</time>
      </trkpt>
      <trkpt lat="43.58686" lon="1.321">
        <ele>172.8</ele>
        <time>2022-09-27T16:04:42Z</time>
      </trkpt>
      <trkpt lat="43.58681" lon="1.32175">
        <ele>172.8</ele>
        <time>2022-09-27T16:04:51Z</time>
      </trkpt>
      <trkpt lat="43.58679" lon="1.32199">
        <ele>173</ele>
        <time>2022-09-27T16:04:54Z</time>
      </trkpt>
      <trkpt lat="43.58677" lon="1.32225">
        <ele>173.4</ele>
        <time>2022-09-27T16:04:59Z</time>
      </trkpt>
      <trkpt lat="43.58677" lon="1.32233">
        <ele>173.4</ele>
        <time>2022-09-27T16:05:00Z</time>
      </trkpt>
      <trkpt lat="43.58679" lon="1.32233">
        <ele>173.2</ele>
        <time>2022-09-27T16:05:02Z</time>
      </trkpt>
      <trkpt lat="43.58679" lon="1.3223">
        <ele>172.8</ele>
        <time>2022-09-27T16:05:07Z</time>
      </trkpt>
    </trkseg>
  </trk>
</gpx>